     2              OBSERVATION DATA    GPS                 RINEX VERSION / TYPE
teqc 1997Jun30 19970702                                     PGM / RUN BY / DATE
                                                            COMMENT
Original Marker Name:                                       COMMENT
Campaign Name: HMC San Gabriel Valley 1993-1996             COMMENT
4-Character Station Name: VERN                              COMMENT
6-Character Antenna Code: DMRCHT                            COMMENT
Vertical Measurement Point: BPA                             COMMENT
Vertical Offset to Rinex Ref. Point: 0.0000                 COMMENT
Radial Measurement Point: RRP                               COMMENT
Radial Offset to Rinex Ref. Point: 0.0000                   COMMENT
Antenna Height from Field Measurement: 0.0614 m             COMMENT
Additional Antenna Identification Info.:                    COMMENT
Turborogue and Ashtech Choke Ring                           COMMENT
Original XYZ: -2458887.2174 -4678399.2103 3559373.4157      COMMENT
New XYZ position is based on association with SCEC monument COMMENT
E1D0R2P2+0011. Position of that monument is believed to be  COMMENT
valid to within 1 m horizontally; vertical accuracy         COMMENT
should be no worse than 3-times this value.                 COMMENT
                                                            COMMENT
Revised Rinex header created by UCSD GPS archive for        COMMENT
GSAC on 13-Apr-1999 (1999:103) 21:36:33 GMT                 COMMENT
For assistance contact dagnew@ucsd.edu or hjohnson@ucsd.edu COMMENT
                                                            COMMENT
VERN                                                        MARKER NAME
UNKNOWN OBSERVER HARVEY MUDD COLLEGE                        OBSERVER / AGENCY
262 TURBOROGUE SNR-8000 93.09.02                            REC # / TYPE / VERS
329 DORNE-MARGOL. TYPE T                                    ANT # / TYPE
 -2458903.0000 -4678424.0000  3559377.0000                  APPROX POSITION XYZ
        0.0614        0.0000        0.0000                  ANTENNA: DELTA H/E/N
     1     1     0                                          WAVELENGTH FACT L1/2
     5    L1    L2    C1    P2    P1                        # / TYPES OF OBSERV
     0                                                      INTERVAL
  1994     4    14     0     0    0.000000                  TIME OF FIRST OBS
  1994     4    14    23    59   30.000000                  TIME OF LAST OBS
     0                                                      # OF SATELLITES
                                                            END OF HEADER
 94  4 14  0  0  0.0000000  0  8G24G12G 7G 5G 2G13G 4G 9
 -20960569.57944 -16332873.75444  21267156.5884   21267157.2414
 -19081877.646 4 -14868988.688 4  21005559.555    21005558.452
  11568780.86044   9014635.14344  22670435.8894   22670437.8824
 -10853000.67144  -8456876.98144  22660543.9854   22660544.2964
  13641495.22644  10629728.89644  23494013.3334   23494015.2204
 -18686471.101 4 -14560863.082 4  20752582.879    20752582.269
 -24478926.97344 -19074441.85244  20566040.4464   20566039.3684
 -21508660.14644 -16759987.96244  20958302.2844   20958302.1304
 94  4 14  0  0 30.0000000  0  8G24G12G 7G 5G 2G13G 4G 9
 -21028677.19244 -16385944.58044  21254195.9924   21254196.6434
 -19123506.011 4 -14901426.369 4  20997637.967    20997636.864
  11641191.25044   9071058.79444  22684214.9004   22684214.9924
 -10931887.09944  -8518346.89844  22645531.9544   22645532.7954
  13720075.02744  10690959.86944  23508967.9414   23508970.7644
 -18650513.727 4 -14532844.339 4  20759425.339    20759424.660
 -24484536.82844 -19078813.14944  20564972.8484   20564971.6954
 -21509343.85644 -16760520.73044  20958172.1514   20958171.6774
 94  4 14  0  1  0.0000000  0  8G24G12G 7G 5G 2G13G 4G 9
 -21095712.25344 -16438179.65044  21241439.6474   21241440.2294
 -19164035.118 4 -14933007.479 4  20989925.411    20989924.369
  11714249.97944   9127987.65744  22698118.1924   22698118.1064
 -11010110.34744  -8579300.05144  22630646.6544   22630647.2744
  13799511.62744  10752858.42444  23524083.9954   23524086.2714
 -18613593.475 4 -14504075.307 4  20766450.995    20766450.389
 -24488944.02844 -19082247.31744  20564133.8384   20564133.0024
 -21508809.69744 -16760104.50244  20958273.7594   20958273.4064
 94  4 14  0  1 30.0000000  0  8G24G 7G 5G 2G13G12G 4G 9
 -21162855.99344 -16490499.39844  21228662.4184   21228663.3944
  11786773.01344   9184499.07244  22711918.0684   22711917.4634
 -11088846.65944  -8640652.98744  22615663.5964   22615664.5054
  13878632.55044  10814511.02144  23539140.1894   23539138.3224
 -18576895.166 4 -14475479.218 4  20773434.448    20773433.823
 -19204645.571 4 -14964651.975 4  20982197.506    20982196.482
 -24493325.09344 -19085661.11344  20563300.2914   20563299.3954
 -21508245.64744 -16759664.98644  20958381.1524   20958381.0174
 94  4 14  0  2  0.0000000  0  8G24G 7G 5G 2G13G12G 4G 9
 -21229690.95144 -16542578.54144  21215944.0004   21215944.7124
  11859193.82644   9240930.85944  22725699.9594   22725698.6854
 -11167653.63744  -8702060.98844  22600667.1264   22600667.5814
  13957861.73544  10876247.95344  23554216.6744   23554217.7074
 -18539993.520 4 -14446724.678 4  20780456.640    20780455.982
 -19244907.678 4 -14996025.034 4  20974535.954    20974534.878
 -24497256.74744 -19088724.71844  20562552.3594   20562551.2084
 -21507226.62944 -16758870.95244  20958575.2514   20958574.9764
 94  4 14  0  2 30.0000000  0  8G24G 7G 5G 2G 4G13G12G 9
 -21296131.29944 -16594350.19744  21203300.9324   21203301.7654
  11931624.12644   9297370.02744  22739483.2334   22739482.3274
 -11246428.57244  -8763444.03244  22585676.4384   22585676.8394
  14037304.92344  10938151.70244  23569334.9924   23569336.9294
 -24500631.07644 -19091354.05244  20561909.8454   20561908.8274
 -18502788.813 4 -14417733.993 4  20787536.399    20787535.797
 -19284717.473 4 -15027045.647 4  20966960.270    20966959.276
 -21505653.43444 -16757645.08944  20958874.4084   20958873.9684
 94  4 14  0  3  0.0000000  0  8G24G 7G 5G 2G 4G13G12G 9
 -21362149.24744 -16645792.71844  21190738.2924   21190739.0514
  12004084.73544   9353832.81944  22753272.0714   22753273.1944
 -11325140.71944  -8824778.13644  22570698.2664   22570698.9064
  14116997.03144  11000249.31944  23584498.1254   23584501.7124
 -24503417.77144 -19093525.48244  20561379.3314   20561378.2034
 -18465255.664 4 -14388487.380 4  20794678.748    20794678.112
 -19324045.129 4 -15057690.560 4  20959476.484    20959475.481
 -21503518.54244 -16755981.53844  20959280.7864   20959280.4684
 94  4 14  0  3 30.0000000  0  8G24G 7G 5G 2G 4G13G12G 9
 -21427733.74644 -16696897.47844  21178257.9534   21178259.0374
  12076587.16044   9410328.19144  22767068.4714   22767068.8284
 -11403774.85244  -8886051.45144  22555734.8534   22555734.9834
  14196918.58644  11062525.77844  23599707.5244   23599708.9504
 -24505622.80144 -19095243.66944  20560960.0744   20560958.9214
 -18427389.647 4 -14358981.386 4  20801884.431    20801883.790
 -19362881.913 4 -15087952.977 4  20952086.159    20952085.028
 -21500829.59944 -16753886.26244  20959792.4704   20959792.1704
 94  4 14  0  4  0.0000000  0  8G24G 7G 5G 2G 4G13G12G 9
 -21492878.86644 -16747659.86644  21165861.1654   21165861.7574
  12149137.64544   9466861.02744  22780874.4954   22780875.6014
 -11482318.35344  -8947254.15144  22540788.6134   22540788.7094
  14277065.99844  11124978.33244  23614960.3784   23614961.4364
 -24507244.54344 -19096507.34644  20560651.4984   20560650.4014
 -18389187.982 4 -14329213.850 4  20809153.892    20809153.300
 -19401220.853 4 -15117827.475 4  20944790.396    20944789.408
 -21497574.08344 -16751349.50144  20960412.1134   20960411.7714
 94  4 14  0  4 30.0000000  0  8G24G 5G 7G 2G 4G13G12G 9
 -21557581.60944 -16798077.54644  21153548.4954   21153549.3854
 -11560789.03544  -9008400.09744  22525856.2214   22525856.0544
  12221724.14044   9523421.91044  22794686.9894   22794688.6784
  14357424.21444  11187595.01644  23630251.3334   23630253.4694
 -24508290.73944 -19097322.54244  20560452.2424   20560451.3854
 -18350663.099 4 -14299194.458 4  20816484.942    20816484.330
 -19439070.038 4 -15147320.329 4  20937587.927    20937586.946
 -21493765.50244 -16748381.78344  20961136.8284   20961136.4154
 94  4 14  0  5  0.0000000  0  8G24G 5G 7G 2G 4G13G12G 9
 -21621827.94044 -16848139.58044  21141322.9584   21141323.5104
 -11639167.79844  -9069474.42744  22510941.0844   22510941.4774
  12294353.68944   9580016.31944  22808508.3194   22808509.0274
  14438002.35044  11250383.13044  23645585.9384   23645585.4484
 -24508738.59444 -19097671.49844  20560367.1804   20560366.1854
 -18311798.273 4 -14268910.176 4  20823880.684    20823880.006
 -19476408.469 4 -15176415.211 4  20930482.742    20930481.640
 -21489381.50044 -16744965.67844  20961970.9734   20961970.4654
 94  4 14  0  5 30.0000000  0  8G24G 5G 7G 2G13G12G 4G 9
 -21685606.41644 -16897837.05444  21129186.3034   21129187.1764
 -11717450.05944  -9130473.56744  22496044.7114   22496043.9844
  12367040.48344   9636655.33644  22822339.9264   22822339.6334
  14518799.28944  11313341.75844  23660960.9494   23660964.3554
 -18272592.403 4 -14238360.143 4  20831341.282    20831340.660
 -19513230.720 4 -15205107.866 4  20923475.582    20923474.713
 -24508587.82044 -19097553.99844  20560395.8224   20560394.6804
 -21484408.13744 -16741090.33444  20962917.5534   20962917.1154
 94  4 14  0  6  0.0000000  0  8G24G 5G 7G 2G 4G13G12G 9
 -21748922.93144 -16947174.55644  21117137.3974   21117138.1164
 -11795652.45144  -9191410.46344  22481163.3004   22481163.0574
  12439780.48444   9693335.85044  22836181.7274   22836181.3954
  14599821.79844  11376476.02544  23676378.2244   23676379.1434
 -24507845.61944 -19096975.64344  20560537.1214   20560536.0434
 -18233055.681 4 -14207552.308 4  20838864.866    20838864.210
 -19549542.674 4 -15233402.885 4  20916565.687    20916564.571
 -21478846.26944 -16736756.41944  20963975.7964   20963975.3114
 94  4 14  0  6 30.0000000  0  8G24G 5G 7G 2G 4G13G12G 9
 -21811778.39944 -16996152.80344  21105176.5364   21105177.1314
 -11873767.61544  -9252279.39744  22466298.5974   22466298.1934
  12512573.02444   9750057.26644  22850034.2684   22850034.5534
  14681070.27644  11439786.49644  23691839.8544   23691842.1664
 -24506511.99244 -19095936.42644  20560790.8064   20560789.9524
 -18193187.615 4 -14176486.273 4  20846451.464    20846450.806
 -19585339.904 4 -15261296.823 4  20909753.744    20909752.689
 -21472692.46144 -16731961.25044  20965146.9214   20965146.4414
 94  4 14  0  7  0.0000000  0  8G24G 5G 7G 2G 4G13G12G 9
 -21874158.78044 -17044760.85344  21093305.7824   21093306.4054
 -11951774.02144  -9313063.59344  22451454.6584   22451454.3914
  12585428.98444   9806828.11344  22863897.5874   22863898.4174
  14762563.26644  11503287.41744  23707346.7584   23707346.2934
 -24504578.73444 -19094429.97844  20561158.6254   20561157.5724
 -18152978.033 4 -14145154.139 4  20854103.168    20854102.528
 -19620607.744 4 -15288778.255 4  20903042.433    20903041.405
 -21465930.60344 -16726692.27344  20966433.3814   20966432.9854
 94  4 14  0  7 30.0000000  0  8G24G 5G 7G 2G 4G13G12G 9
 -21936022.27044 -17092966.13744  21081533.6134   21081534.1524
 -12029653.37844  -9373748.78244  22436634.3124   22436633.8524
  12658367.43544   9863663.24044  22877778.3194   22877777.9634
  14844316.70444  11566991.38544  23722904.4734   23722905.7884
 -24502057.36044 -19092465.26044  20561638.3004   20561637.1844
 -18112417.158 4 -14113548.261 4  20861821.623    20861820.945
 -19655332.210 4 -15315836.280 4  20896434.614    20896433.622
 -21458557.10744 -16720946.69944  20967836.7674   20967836.3244
 94  4 14  0  8  0.0000000  0  8G24G 5G 7G 2G 4G13G12G 9
 -21997427.84544 -17140814.58444  21069848.4794   21069849.0444
 -12107457.37444  -9434375.25444  22421828.5934   22421828.6724
  12731315.26244   9920505.67544  22891659.9264   22891659.4834
  14926274.97244  11630854.88644  23738500.1644   23738501.5484
 -24499008.58344 -19090089.57044  20562218.6904   20562217.5774
 -18071566.910 4 -14081716.899 4  20869595.184    20869594.476
 -19689571.251 4 -15342516.049 4  20889919.125    20889918.141
 -21450635.20644 -16714773.79944  20969344.1634   20969344.0674
 94  4 14  0  8 30.0000000  0  8G24G 5G 7G 2G13G12G 4G 9
 -22058362.13044 -17188295.80044  21058253.0124   21058253.6064
 -12185170.40344  -9494930.84544  22407040.3954   22407039.8804
  12804267.42044   9977351.48344  22905541.8954   22905542.0794
  15008448.07844  11694885.79344  23754137.8444   23754138.2664
 -18030422.792 4 -14049656.547 4  20877424.670    20877424.036
 -19723316.007 4 -15368810.664 4  20883497.705    20883496.682
 -24495422.62944 -19087295.30644  20562901.1764   20562900.0374
 -21442163.72744 -16708172.65344  20970956.2304   20970955.8074
 94  4 14  0  9  0.0000000  0  8G24G 5G 7G 2G 4G13G12G 9
 -22118781.02344 -17235375.41344  21046755.4174   21046756.1794
 -12262756.50444  -9555387.53344  22392276.5014   22392276.3304
  12877272.48244  10034238.51944  22919434.3604   22919434.5384
  15090891.07244  11759127.04344  23769825.8994   23769828.4264
 -24491247.47844 -19084041.92844  20563695.4484   20563694.2864
 -17988941.629 4 -14017333.559 4  20885318.201    20885317.545
 -19756519.170 4 -15394683.256 4  20877179.294    20877178.408
 -21433108.92744 -16701116.97344  20972679.4994   20972679.2764
 94  4 14  0  9 30.0000000  0  8G24G 5G 7G 2G 4G13G12G 9
 -22178750.60844 -17282104.91044  21035343.6144   21035343.8814
 -12340269.32944  -9615787.12244  22377526.0404   22377525.4304
  12950283.64144  10091130.28544  22933327.2674   22933326.9254
  15173547.43544  11823534.45044  23785555.1724   23785558.7874
 -24486521.90544 -19080359.65044  20564594.7964   20564593.6054
 -17947178.703 4 -13984791.020 4  20893265.447    20893264.802
 -19789231.840 4 -15420173.642 4  20870954.331    20870953.235
 -21423525.30444 -16693649.22044  20974503.0354   20974502.7984
 94  4 14  0 10  0.0000000  0  8G24G 5G 7G 2G 4G13G12G 9
 -22238302.14344 -17328508.66244  21024011.2354   21024011.9344
 -12417723.06544  -9676140.66044  22362787.2124   22362786.8444
  13023303.01744  10148028.45144  22947222.7544   22947223.1324
  15256418.84844  11888109.54844  23801324.7754   23801327.6264
 -24481211.80044 -19076221.89544  20565605.2694   20565604.1434
 -17905136.199 4 -13952030.630 4  20901265.910    20901265.174
 -19821452.185 4 -15445280.408 4  20864823.030    20864822.008
 -21413405.02344 -16685763.29844  20976428.7964   20976428.5774
 94  4 14  0 10 30.0000000  0  8G24G 5G 7G 2G 4G13G12G 9
 -22297426.36744 -17374579.44444  21012760.4784   21012760.6104
 -12495108.17044  -9736440.71944  22348061.1594   22348060.7224
  13096364.52144  10204959.48344  22961126.5634   22961125.1044
  15339508.37244  11952854.54144  23817136.4664   23817138.1844
 -24475295.87844 -19071612.07044  20566730.7614   20566729.8084
 -17862800.304 4 -13919041.618 4  20909322.106    20909321.413
 -19853162.252 4 -15469989.543 4  20858788.741    20858787.726
 -21402726.25744 -16677442.19044  20978460.8904   20978460.6934
 94  4 14  0 11  0.0000000  0  8G24G 5G 7G 2G 4G13G12G 9
 -22356120.47244 -17420315.07044  21001591.2994   21001591.6134
 -12572414.16644  -9796679.14044  22333350.3014   22333349.7704
  13169486.15444  10261937.34144  22975041.8214   22975042.3624
  15422811.98044  12017766.39344  23832988.7774   23832991.4024
 -24468766.47544 -19066524.21644  20567973.3794   20567972.3164
 -17820164.559 4 -13885818.959 4  20917435.408    20917434.790
 -19884351.441 4 -15494292.810 4  20852853.715    20852852.606
 -21391477.69244 -16668677.08144  20980601.4324   20980600.9094
 94  4 14  0 11 30.0000000  0  8G 5G 7G 2G 4G13G24G12G 9
 -12649643.06244  -9856857.47544  22318654.0844   22318653.5314
  13242653.54344  10318950.86744  22988964.1234   22988963.3784
  15506317.62144  12082835.64444  23848879.2534   23848883.6914
 -24461645.46944 -19060975.36944  20569328.6464   20569327.5754
 -17777241.268 4 -13852372.243 4  20925603.430    20925602.837
 -22414377.06344 -17465709.77244  20990505.4974   20990505.8724
 -19915028.048 4 -15518196.652 4  20847016.121    20847015.084
 -21379656.04444 -16659465.41344  20982851.1444   20982850.8824
 94  4 14  0 12  0.0000000  0  8G 9G 5G 7G 2G 4G13G24G12
 -21367219.33844 -16649774.48444  20985217.8184   20985217.6874
 -12726753.76544  -9916943.71644  22303980.2834   22303980.4924
  13315888.93344  10376017.36444  23002900.5904   23002900.1804
  15590055.18044  12148085.64144  23864814.3924   23864816.2124
 -24453921.13744 -19054956.39344  20570798.3534   20570797.5624
 -17733999.521 4 -13818677.371 4  20933832.085    20933831.408
 -22472143.27044 -17510722.35344  20979512.7524   20979513.1614
 -19945157.042 4 -15541673.786 4  20841282.682    20841281.645
 94  4 14  0 12 30.0000000  0  8G 9G 5G 7G 2G13G24G12G 4
 -21354178.95144 -16639613.15344  20987699.2974   20987699.0144
 -12803724.78044  -9976921.10644  22289333.1744   22289332.8054
  13389174.57644  10433123.03844  23016845.5124   23016846.5544
  15674026.46544  12213517.72144  23880793.6434   23880793.4404
 -17690444.651 4 -13784738.513 4  20942120.308    20942119.697
 -22529401.17944 -17555338.85744  20968617.0244   20968617.3844
 -19974739.697 4 -15564725.199 4  20835653.363    20835652.388
 -24445622.75444 -19048490.10444  20572377.3774   20572376.3354
 94  4 14  0 13  0.0000000  0  8G 9G 5G 7G 2G 4G13G24G12
 -21340550.94444 -16628993.93344  20990292.5004   20990292.2804
 -12880559.99544 -10036792.68544  22274711.6984   22274711.7484
  13462480.99344  10490244.88444  23030796.0204   23030796.1994
  15758239.00544  12279137.80244  23896818.7354   23896821.2184
 -24436764.44644 -19041587.51544  20574063.3904   20574061.9394
 -17646586.339 4 -13750563.209 4  20950466.315    20950465.620
 -22586155.33344 -17599562.83244  20957816.9944   20957817.2984
 -20003781.666 4 -15587355.301 4  20830126.830    20830125.785
 94  4 14  0 13 30.0000000  0  8G 9G 5G 7G 2G13G24G12G 4
 -21326334.51944 -16617916.20944  20992997.8114   20992997.5434
 -12957263.52244 -10096561.64244  22260115.6804   22260115.7684
  13535798.18744  10547375.13644  23044748.3074   23044747.7044
  15842696.52844  12344948.79244  23912890.4214   23912890.6284
 -17602424.706 4 -13716151.545 4  20958869.982    20958869.243
 -22642388.19544 -17643380.60744  20947116.2744   20947116.5244
 -20032279.122 4 -15609561.105 4  20824703.912    20824702.937
 -24427342.40544 -19034245.65644  20575856.1414   20575855.0794
 94  4 14  0 14  0.0000000  0  8G 9G 5G 7G 2G 4G13G24G12
 -21311555.08044 -16606399.77044  20995810.2254   20995810.2254
 -13033861.55844 -10156248.40144  22245539.7224   22245539.7494
  13609099.88944  10604493.31644  23058696.8234   23058698.2524
  15927374.61444  12410931.67844  23929003.7924   23929004.5784
 -24417361.40444 -19026468.23344  20577755.2004   20577754.4964
 -17557977.930 4 -13681517.695 4  20967327.920    20967327.275
 -22698128.64244 -17686814.68044  20936509.2524   20936509.6044
 -20060246.479 4 -15631353.847 4  20819381.879    20819380.887
 94  4 14  0 14 30.0000000  0  8G 9G 5G 7G 2G13G24G12G 4
 -21296232.18144 -16594459.85844  20998726.0574   20998725.9964
 -13110378.56844 -10215872.02144  22230978.8724   22230978.8604
  13682386.19144  10661599.49544  23072642.4604   23072643.0724
  16012267.16344  12477081.61944  23945157.9794   23945159.5074
 -17513256.924 4 -13646670.159 4  20975838.063    20975837.380
 -22753393.66044 -17729878.28544  20925992.4594   20925992.9774
 -20087690.360 4 -15652738.683 4  20814159.564    20814158.562
 -24406813.40344 -19018248.99544  20579762.6814   20579761.5374
 94  4 14  0 15  0.0000000  0  8G13G 9G 5G 7G 2G24G12G 4
 -17468254.017 4 -13611602.962 4  20984401.829    20984401.085
 -21280346.91044 -16582081.73444  21001749.0554   21001748.5984
 -13186825.16944 -10275440.78244  22216431.5894   22216430.9254
  13755672.37744  10718705.57344  23086589.2934   23086589.9224
  16097364.96744  12543391.49344  23961352.2434   23961353.4934
 -22808172.14744 -17772562.77444  20915568.3514   20915568.7834
 -20114599.227 4 -15673706.628 4  20809038.916    20809037.959
 -24395678.99744 -19009572.82344  20581881.2604   20581879.9424
 94  4 14  0 15 30.0000000  0  8G13G 9G 5G 7G 2G24G12G 4
 -17422956.320 4 -13576306.058 4  20993021.652    20993021.016
 -21263876.80844 -16569247.89644  21004883.1194   21004882.9164
 -13263184.94044 -10334941.88144  22201900.6054   22201900.3884
  13828979.55544  10775827.99544  23100538.2464   23100537.8454
  16182672.26444  12609864.60644  23977585.2084   23977587.0904
 -22862443.16644 -17814851.83944  20905240.8694   20905241.3834
 -20140956.316 4 -15694244.616 4  20804023.343    20804022.405
 -24383942.43444 -19000427.43744  20584114.6634   20584113.7674
 94  4 14  0 16  0.0000000  0  8G13G 9G 5G 7G 2G24G12G 4
 -17377367.039 4 -13540781.949 4  21001697.015    21001696.378
 -21246823.56244 -16555959.66044  21008128.3884   21008127.8654
 -13339449.96444 -10394369.14944  22187387.9244   22187387.4594
  13902325.91844  10832980.99544  23114495.5064   23114495.8664
  16268190.41144  12676502.04144  23993858.4364   23993859.6124
 -22916223.52244 -17856758.57844  20895006.8594   20895007.4334
 -20166760.909 4 -15714352.089 4  20799112.942    20799111.937
 -24371616.11144 -18990822.49244  20586460.4014   20586459.6204
 94  4 14  0 16 30.0000000  0  8G13G 9G 5G 7G 2G24G12G 4
 -17331466.762 4 -13505015.502 4  21010431.499    21010430.911
 -21229159.42044 -16542195.40644  21011489.7734   21011489.6694
 -13415584.67144 -10453694.88244  22172900.0574   22172900.0814
  13975744.34344  10890190.13944  23128467.0364   23128466.8694
  16353951.12344  12743328.45244  24010179.1274   24010185.5274
 -22969481.12644 -17898257.97344  20884872.3434   20884872.5864
 -20191989.651 4 -15734010.848 4  20794312.002    20794310.971
 -24358692.14844 -18980751.85644  20588919.9284   20588918.8744
 94  4 14  0 17  0.0000000  0  7G13G 9G 5G 7G24G12G 4
 -17285265.971 4 -13469014.890 4  21019223.226    21019222.644
 -21210899.83544 -16527967.17044  21014964.3904   21014964.1014
 -13491582.18344 -10512913.70744  22158437.7254   22158437.3934
  14049212.40044  10947437.90944  23142447.3484   23142448.3564
 -23022222.94144 -17939355.45444  20874835.9314   20874836.3014
 -20216649.305 4 -15753226.158 4  20789619.445    20789618.425
 -24345192.78644 -18970232.86644  20591488.5324   20591487.4354
 94  4 14  0 17 30.0000000  0  7G13G 9G 5G 7G24G12G 4
 -17238793.074 4 -13432802.248 4  21028066.721    21028066.096
 -21192086.10944 -16513307.12844  21018544.6464   21018544.1854
 -13567449.33244 -10572030.94644  22144000.4864   22144000.2604
  14122719.32144  11004715.99944  23156435.1204   23156435.3484
 -23074481.86144 -17980076.65044  20864891.3524   20864891.7194
 -20240764.386 4 -15772017.128 4  20785030.531    20785029.423
 -24331149.13944 -18959289.75044  20594160.8974   20594159.9784
 94  4 14  0 18  0.0000000  0  8G13G 9G 5G 7G20G24G12G 4
 -17192059.231 4 -13396386.274 4  21036959.890    21036959.264
 -21172736.21644 -16498229.30644  21022226.5384   21022226.5674
 -13643181.10644 -10631042.70744  22129589.0894   22129589.2754
  14196261.99844  11062021.94544  23170430.6054   23170431.4494
        -0.30154         0.59554  25206063.8904   25206066.9774
 -23126269.93444 -18020430.95644  20855036.4114   20855036.5724
 -20264342.179 4 -15790389.437 4  20780543.741    20780542.748
 -24316571.28444 -18947930.36744  20596935.1054   20596934.0924
 94  4 14  0 18 30.0000000  0  8G13G 9G 5G 7G20G24G12G 4
 -17145093.655 4 -13359789.724 4  21045897.152    21045896.462
 -21152883.97844 -16482760.04644  21026004.4744   21026004.1954
 -13718796.04344 -10689963.42344  22115200.0874   22115200.2684
  14269794.22244  11119319.74944  23184423.3344   23184421.5694
    -96166.71244    -74934.14244  25187763.3444   25187764.5014
 -23177608.32344 -18060434.86044  20845266.8164   20845267.2694
 -20287408.141 4 -15808362.910 4  20776154.448    20776153.461
 -24301472.42044 -18936165.00944  20599808.2324   20599807.0004
 94  4 14  0 19  0.0000000  0  7G13G 9G 5G 7G24G12G 4
 -17097900.391 4 -13323015.742 4  21054877.593    21054877.061
 -21132524.11644 -16466895.21544  21029878.9644   21029878.8584
 -13794293.87344 -10748792.87644  22100833.5124   22100833.3974
  14343318.12544  11176611.11944  23198413.8984   23198413.6214
 -23228505.30644 -18100094.79544  20835581.4234   20835581.8684
 -20309962.699 4 -15825937.877 4  20771862.437    20771861.428
 -24285844.91544 -18923987.71944  20602781.7914   20602780.8874
 94  4 14  0 19 30.0000000  0  7G13G 9G 5G 7G24G12G 4
 -17050411.070 4 -13286011.087 4  21063914.547    21063913.989
 -21111564.65444 -16450563.18144  21033867.1084   21033867.0654
 -13869604.14944 -10807476.18944  22086502.4284   22086502.2124
  14416912.56044  11233957.35944  23212418.2014   23212419.9864
 -23278891.20644 -18139356.50144  20825993.2974   20825993.5894
 -20331933.687 4 -15843058.132 4  20767681.483    20767680.563
 -24269611.69744 -18911338.44844  20605870.9874   20605870.3024
 94  4 14  0 20  0.0000000  0  7G13G 9G 5G 7G24G12G 4
 -17002614.804 4 -13248767.257 4  21073009.956    21073009.344
 -21089979.53844 -16433743.62144  21037974.7544   21037974.7984
 -13944729.01744 -10866015.03944  22072206.7684   22072207.0754
  14490564.31844  11291348.26444  23226433.0584   23226434.6384
 -23328741.97644 -18178201.21744  20816506.9684   20816507.4854
 -20353306.339 4 -15859712.150 4  20763614.362    20763613.411
 -24252754.94644 -18898203.30944  20609079.1074   20609078.0544
 94  4 14  0 20 30.0000000  0  7G13G 9G 5G 7G24G12G 4
 -16954565.859 4 -13211326.504 4  21082153.350    21082152.736
 -21067809.74244 -16416468.46844  21042193.6634   21042193.4404
 -14019741.72544 -10924466.48244  22057932.1554   22057932.6294
  14564216.55744  11348739.57844  23240449.7204   23240450.3794
 -23378096.13644 -18216658.96344  20807115.1224   20807115.1814
 -20374131.221 4 -15875939.317 4  20759651.566    20759650.589
 -24235322.77244 -18884619.79144  20612396.0934   20612394.9444
 94  4 14  0 21  0.0000000  0  7G13G 9G 5G 7G24G12G 4
 -16906243.650 4 -13173672.859 4  21091348.762    21091348.173
 -21045033.40244 -16398720.68344  21046527.6154   21046527.3994
 -14094624.91344 -10982817.00944  22043682.6664   22043682.0974
  14637899.99744  11406155.20744  23254471.4924   23254471.3114
 -23426925.85644 -18254708.05944  20797823.2184   20797823.6214
 -20394384.135 4 -15891720.827 4  20755797.614    20755796.555
 -24217298.63044 -18870575.00344  20615826.0674   20615825.0724
 94  4 14  0 21 30.0000000  0  8G13G 9G 5G 7G20G24G12G 4
 -16857641.934 4 -13135801.400 4  21100597.380    21100596.731
 -21021664.32644 -16380511.02944  21050974.8934   21050974.5714
 -14169371.06544 -11041060.74844  22029459.1434   22029458.4994
  14711619.13044  11463598.66144  23268500.1934   23268500.1754
        -0.03854         0.77354  25077735.9174   25077740.1504
 -23475210.35744 -18292332.30944  20788635.0554   20788635.3124
 -20414055.311 4 -15907049.016 4  20752054.270    20752053.238
 -24198672.08644 -18856060.80444  20619370.5484   20619369.3264
 94  4 14  0 22  0.0000000  0  7G13G 9G 5G 7G24G12G 4
 -16808810.128 4 -13097750.644 4  21109889.823    21109889.140
 -20997759.18444 -16361883.65944  21055523.7304   21055523.6734
 -14244023.43144 -11099231.40544  22015253.5954   22015252.9794
  14785326.09844  11521032.63144  23282524.9854   23282524.3344
 -23522985.41944 -18329559.59544  20779543.6384   20779543.8134
 -20433190.394 4 -15921959.468 4  20748413.011    20748411.952
 -24179497.15744 -18841119.29144  20623019.3954   20623018.1124
 94  4 14  0 22 30.0000000  0  7G13G 9G 5G 7G24G12G 4
 -16759753.302 4 -13059524.548 4  21119225.025    21119224.346
 -20973327.32744 -16342845.85844  21060173.1594   21060172.7034
 -14318565.45644 -11157316.08644  22001068.6714   22001067.6854
  14859041.67244  11578473.28144  23296553.0774   23296552.6484
 -23570264.68844 -18366400.54644  20770546.7734   20770546.9104
 -20451790.829 4 -15936453.317 4  20744873.426    20744872.458
 -24159783.54044 -18825758.03244  20626770.7954   20626769.6644
 94  4 14  0 23  0.0000000  0  8G13G 9G 5G 7G20G24G12G 4
 -16710422.124 4 -13021084.677 4  21128612.381    21128611.749
 -20948323.06544 -16323362.02444  21064931.2984   21064930.9464
 -14392928.97544 -11215261.66844  21986917.6614   21986916.9764
  14932808.91144  11635954.21444  23310590.5464   23310588.9964
        -0.07354         0.41454  25022573.3974   25022581.3004
 -23617012.39644 -18402827.30144  20761650.9174   20761651.1344
 -20469803.684 4 -15950489.306 4  20741445.702    20741444.669
 -24139489.33944 -18809944.35844  20630632.4584   20630631.4474
 94  4 14  0 23 30.0000000  0  8G13G 9G 5G 7G20G24G12G 4
 -16660847.427 4 -12982455.050 4  21138046.203    21138045.525
 -20922765.07444 -16303446.72244  21069794.5704   21069794.7584
 -14467147.99444 -11273094.64544  21972794.2204   21972793.6734
  15006587.67644  11693444.13144  23324631.0404   23324630.5774
    -96731.69844    -75374.82044  25004167.0124   25004165.8534
 -23663251.83744 -18438857.99644  20752851.7694   20752851.9594
 -20487256.334 4 -15964088.773 4  20738124.568    20738123.534
 -24118651.29844 -18793706.91644  20634597.9124   20634596.7434
 94  4 14  0 24  0.0000000  0  8G13G 9G 5G 7G20G24G12G 4
 -16611046.895 4 -12943649.444 4  21147522.943    21147522.279
 -20896664.86444 -16283108.91644  21074761.4684   21074761.3364
 -14541236.52944 -11330825.95344  21958695.7724   21958695.4694
  15080366.07644  11750933.76544  23338669.4054   23338672.1854
   -193536.68244   -150807.29544  24985745.8734   24985747.5804
 -23709010.65244 -18474514.17344  20744144.1824   20744144.5744
 -20504162.978 4 -15977262.778 4  20734907.396    20734906.288
 -24097297.10244 -18777067.28044  20638661.5854   20638660.3064
 94  4 14  0 24 30.0000000  0  8G13G 9G 5G 7G20G24G12G 4
 -16561012.778 4 -12904661.826 4  21157044.114    21157043.464
 -20870028.16244 -16262353.04844  21079830.5634   21079830.1064
 -14615185.91044 -11388448.82744  21944623.4874   21944623.2954
  15154157.83044  11808433.79244  23352712.2834   23352711.9674
   -290403.79044   -226288.12544  24967312.9004   24967312.0164
 -23754286.95244 -18509794.36844  20735528.3654   20735528.6294
 -20520512.128 4 -15990002.376 4  20731796.196    20731795.168
 -24075412.21044 -18760014.11344  20642826.2034   20642825.0834
 94  4 14  0 25  0.0000000  0  8G13G 9G 5G 7G20G24G12G 4
 -16510741.285 4 -12865489.248 4  21166610.407    21166609.789
 -20842844.90044 -16241171.29844  21085003.0244   21085003.1104
 -14688991.15044 -11445959.39144  21930578.4824   21930578.8324
  15227957.79144  11865940.20944  23366755.3664   23366756.0124
   -387326.14344   -301812.05944  24948868.4424   24948867.1874
 -23799059.87944 -18544682.32844  20727008.4214   20727008.4684
 -20536296.854 4 -16002302.159 4  20728792.452    20728791.447
 -24052986.18444 -18742539.27844  20647093.3764   20647092.4224
 94  4 14  0 25 30.0000000  0  8G13G 9G 5G 7G20G24G12G 4
 -16460223.945 4 -12826125.094 4  21176223.503    21176222.895
 -20815108.22444 -16219558.32744  21090281.2374   21090280.8254
 -14762647.27044 -11503353.75344  21916561.6984   21916561.7864
  15301790.66744  11923472.28844  23380805.1534   23380805.3314
   -484291.88844   -377369.69844  24930417.6564   24930414.9934
 -23843303.80844 -18579158.08144  20718588.8274   20718589.1804
 -20551504.969 4 -16014152.636 4  20725898.514    20725897.434
 -24030004.04544 -18724631.11044  20651466.8624   20651465.7084
 94  4 14  0 26  0.0000000  0  7G13G 9G 5G 7G24G12G 4
 -16409461.569 4 -12786569.991 4  21185883.324    21185882.615
 -20786817.80244 -16197513.84644  21095664.9154   21095664.5704
 -14836147.00344 -11560626.25644  21902575.4604   21902575.2914
  15375671.54544  11981041.75144  23394864.8594   23394862.3104
 -23887022.30344 -18613224.40444  20710269.5194   20710269.8194
 -20566133.890 4 -16025551.788 4  20723114.603    20723113.624
 -24006462.42844 -18706286.98844  20655946.7184   20655945.5384
 94  4 14  0 26 30.0000000  0  7G13G 9G 5G 7G24G12G 4
 -16358480.452 4 -12746844.443 4  21195584.708    21195584.038
 -20757986.11444 -16175047.60644  21101151.1894   21101150.7624
 -14909515.92944 -11617796.83544  21888613.9264   21888614.5604
  15449562.09044  12038618.80244  23408926.2634   23408927.1664
 -23930233.20944 -18646895.20744  20702046.6474   20702046.7204
 -20580206.747 4 -16036517.641 4  20720436.684    20720435.696
 -23982375.95444 -18687518.29944  20660530.2784   20660529.0104
 94  4 14  0 27  0.0000000  0  7G13G 9G 5G 7G24G12G 4
 -16307224.215 4 -12706904.537 4  21205338.463    21205337.710
 -20728541.69844 -16152103.92844  21106754.3994   21106754.3384
 -14982705.97044 -11674828.02144  21874686.5984   21874685.9194
  15523509.22144  12096239.88844  23422997.2994   23422997.4234
 -23972871.41644 -18680119.75544  20693932.7154   20693933.1484
 -20593663.558 4 -16047003.484 4  20717876.045    20717874.874
 -23957696.08344 -18668287.22944  20665226.5534   20665225.5584
 94  4 14  0 27 30.0000000  0  8G13G 9G 5G 7G20G24G12G 4
 -16255743.686 4 -12666789.848 4  21215134.910    21215134.158
 -20698554.51944 -16128737.31744  21112460.6924   21112460.5894
 -15055766.04844 -11731757.94044  21860783.8104   21860783.2914
  15597470.42644  12153871.95144  23437072.0044   23437070.9664
        -0.52854         0.05854  24856529.3394   24856527.0074
 -24014998.91544 -18712946.34244  20685916.1564   20685916.3884
 -20606551.878 4 -16057046.332 4  20715423.393    20715422.401
 -23932486.22844 -18648643.18044  20670023.9424   20670022.6564
 94  4 14  0 28  0.0000000  0  8G13G 9G 5G 7G20G24G12G 4
 -16204065.575 4 -12626521.197 4  21224968.949    21224968.244
 -20668046.40544 -16104964.78144  21118266.2154   21118265.9514
 -15128715.00544 -11788601.26944  21846901.8994   21846901.5164
  15671417.53544  12211493.04544  23451144.1394   23451144.4754
    -97200.49544    -75740.15944  24838033.1844   24838026.4254
 -24056651.73844 -18745403.05344  20677989.7994   20677990.0294
 -20618895.146 4 -16066664.456 4  20713074.587    20713073.469
 -23906773.04644 -18628606.93744  20674917.2124   20674915.8714
 94  4 14  0 28 30.0000000  0  8G13G 9G 5G 7G20G24G12G 4
 -16152181.972 4 -12586092.421 4  21234842.012    21234841.299
 -20637023.19244 -16080790.85444  21124169.8284   21124169.5944
 -15201534.36944 -11845343.60844  21833044.8854   21833044.1194
  15745355.00344  12269106.60244  23465213.3054   23465214.8994
   -194463.67744   -151529.58544  24819524.2444   24819522.4484
 -24097819.50844 -18777481.80644  20670155.7984   20670156.1644
 -20630682.045 4 -16075849.057 4  20710831.642    20710830.585
 -23880548.80844 -18608172.45944  20679907.1644   20679906.1404
 94  4 14  0 29  0.0000000  0  8G13G 5G 9G 7G20G24G12G 4
 -16100078.237 4 -12545492.118 4  21244756.995    21244756.352
 -15274201.24644 -11901967.13544  21819216.7744   21819216.1944
 -20605480.09844 -16056211.83644  21130172.0384   21130172.0784
  15819309.33844  12326733.33944  23479287.0364   23479287.0034
   -291772.29644   -227354.41744  24801007.9004   24801008.3484
 -24138485.92644 -18809169.89544  20662417.1794   20662417.3614
 -20641894.962 4 -16084586.394 4  20708697.839    20708696.827
 -23853807.48844 -18587335.06244  20684996.0754   20684994.7634
 94  4 14  0 29 30.0000000  0  8G13G 5G 9G 7G20G24G12G 4
 -16047753.740 4 -12504719.791 4  21254713.998    21254713.438
 -15346703.73044 -11958462.56844  21805419.9704   21805420.2544
 -20573408.43944 -16031220.96544  21136275.3384   21136275.1464
  15893287.80644  12384378.87444  23493363.9524   23493363.8864
   -389122.22044   -303211.48744  24782483.6054   24782484.3494
 -24178655.02044 -18840470.45944  20654773.3914   20654773.6944
 -20652529.582 4 -16092873.113 4  20706674.141    20706673.137
 -23826532.55144 -18566081.87044  20690186.1124   20690184.9554
 94  4 14  0 30  0.0000000  0  8G13G 5G 9G 7G20G24G12G 4
 -15995211.707 4 -12463777.956 4  21264712.489    21264711.891
 -15419047.74644 -12014834.52544  21791653.1134   21791653.5014
 -20540790.04044 -16005804.04644  21142482.3404   21142482.1534
  15967271.22044  12442028.22944  23507442.7834   23507443.3064
   -486513.39644   -379100.63144  24763948.7874   24763946.5614
 -24218324.50844 -18871381.72244  20647224.5514   20647224.7224
 -20662586.291 4 -16100709.509 4  20704760.413    20704759.392
 -23798710.82844 -18544402.60244  20695480.3344   20695479.2774
 94  4 14  0 30 30.0000000  0  8G13G 5G 9G 7G20G24G12G 4
 -15942447.182 4 -12422662.750 4  21274753.190    21274752.548
 -15491225.86844 -12071077.20244  21777917.8454   21777918.0224
 -20507621.06344 -15979958.09944  21148794.0314   21148794.0054
  16041255.02744  12499677.90544  23521521.5224   23521521.6914
   -583937.11444   -455015.26144  24745410.8184   24745412.6634
 -24257476.22644 -18901889.52944  20639774.2314   20639774.4124
 -20672056.916 4 -16108089.218 4  20702958.235    20702957.204
 -23770330.07444 -18522287.72244  20700881.2054   20700880.0494
 94  4 14  0 31  0.0000000  0  8G13G 5G 9G 7G20G24G12G 4
 -15889463.871 4 -12381377.060 4  21284835.563    21284834.965
 -15563246.84344 -12127197.42944  21764212.9414   21764212.7664
 -20473887.68344 -15953672.36944  21155213.4464   21155213.3844
  16115233.27144  12557323.26244  23535599.1184   23535600.5674
   -681390.42544   -530952.70044  24726869.3184   24726869.4004
 -24296109.89244 -18931993.65544  20632422.4594   20632422.8184
 -20680941.844 4 -16115012.542 4  20701267.430    20701266.431
 -23741384.49644 -18499732.73044  20706389.4374   20706388.1984
 94  4 14  0 31 30.0000000  0  8G13G 5G 9G 7G20G24G12G 4
 -15836241.336 4 -12339904.964 4  21294963.552    21294962.881
 -15635082.48644 -12183173.24444  21750543.1704   21750542.5244
 -20439562.53544 -15926925.52244  21161745.4554   21161745.3124
  16189223.97344  12614978.30744  23549679.0504   23549680.6734
   -779091.64944   -607083.77844  24708317.4364   24708317.5864
 -24334194.09644 -18961669.62244  20625175.1114   20625175.4154
 -20689217.686 4 -16121461.247 4  20699692.637    20699691.591
 -23711841.52044 -18476712.22444  20712011.1424   20712010.2014
 94  4 14  0 32  0.0000000  0  8G13G 5G 9G 7G20G24G12G 4
 -15782843.698 4 -12298296.425 4  21305124.787    21305124.011
 -15706783.76244 -12239044.35244  21736898.8904   21736898.2724
 -20404729.36444 -15899782.80844  21168373.7794   21168373.6104
  16263176.72944  12672603.78944  23563751.7254   23563752.2224
   -876627.30244   -683085.58344  24689756.9634   24689759.3394
 -24371774.82844 -18990953.28144  20618023.7334   20618023.8584
 -20696945.443 4 -16127482.882 4  20698222.121    20698220.964
 -23681781.57244 -18453288.88444  20717731.2874   20717730.1604
 94  4 14  0 32 30.0000000  0  8G13G 5G 9G 7G20G24G12G 4
 -15729278.106 4 -12256557.007 4  21315318.043    21315317.273
 -15778341.90844 -12294803.92944  21723281.8654   21723281.5314
 -20369402.34944 -15872255.28044  21175096.3304   21175096.3484
  16337109.55144  12730213.74144  23577820.4354   23577821.1094
   -974236.51144   -759144.57344  24671183.8724   24671185.0414
 -24408849.17944 -19019842.36444  20610968.8394   20610968.7484
 -20704129.200 4 -16133080.614 4  20696855.059    20696854.020
 -23651225.83344 -18429479.21844  20723545.9154   20723544.9094
 94  4 14  0 33  0.0000000  0  8G13G 5G 9G 7G20G24G12G 4
 -15675458.993 4 -12214620.045 4  21325559.462    21325558.764
 -15849667.15144 -12350382.02844  21709709.1744   21709708.9074
 -20333502.57644 -15844281.44944  21181927.8464   21181927.7344
  16411119.66544  12787883.91844  23591904.6164   23591903.7104
  -1071830.40744   -835191.83744  24652611.1634   24652615.2954
 -24445334.78444 -19048272.68344  20604025.7374   20604025.6744
 -20710680.291 4 -16138185.363 4  20695608.475    20695607.284
 -23620097.48644 -18405223.35744  20729469.6384   20729468.4084
 94  4 14  0 33 30.0000000  0  7G13G 5G 9G 7G24G12G 4
 -15621421.712 4 -12172513.074 4  21335842.349    21335841.644
 -15920786.39144 -12405799.59544  21696175.5444   21696175.3324
 -20297079.28444 -15815899.67344  21188858.8934   21188858.6494
  16485178.57844  12845592.13644  23605997.4234   23605998.6654
 -24481262.26144 -19076268.08344  20597189.1304   20597189.1054
 -20716631.069 4 -16142822.326 4  20694476.041    20694475.000
 -23588451.79444 -18380564.36544  20735491.3264   20735490.2064
 94  4 14  0 34  0.0000000  0  7G13G 5G 9G 7G24G12G 4
 -15567170.517 4 -12130239.434 4  21346166.134    21346165.394
 -15991695.66744 -12461053.56144  21682681.8364   21682682.0684
 -20260143.19244 -15787118.31644  21195887.7414   21195887.4434
  16559282.36144  12903335.28844  23620098.2524   23620103.6364
 -24516646.84644 -19103840.45644  20590455.7974   20590456.2174
 -20721983.041 4 -16146992.701 4  20693457.554    20693456.490
 -23556302.29644 -18355512.80444  20741609.0664   20741608.4024
 94  4 14  0 34 30.0000000  0  8G13G 5G 9G 7G20G24G12G 4
 -15512641.544 4 -12087749.333 4  21356542.556    21356541.918
 -16062332.69644 -12516095.38844  21669240.1064   21669240.2964
 -20222614.82044 -15757875.43944  21203029.0074   21203029.0544
  16633478.13444  12961150.13844  23634218.2454   23634217.2754
        -1.17854        -0.77054  24596890.6754   24596896.4074
 -24551429.00444 -19130943.41244  20583836.6964   20583836.7494
 -20726669.336 4 -16150644.358 4  20692565.788    20692564.716
 -23523570.56544 -18330007.55544  20747838.2744   20747837.0414
 94  4 14  0 35  0.0000000  0  8G13G 5G 9G 7G20G24G12G 4
 -15457938.562 4 -12045123.635 4  21366952.187    21366951.545
 -16132802.16144 -12571006.65144  21655830.0524   21655830.0724
 -20184588.77344 -15728244.77544  21210265.2964   21210265.5744
  16707645.61744  13018942.93544  23648331.6854   23648334.8274
    -97629.11544    -76074.39844  24578312.5494   24578308.6804
 -24585708.82844 -19157654.94044  20577313.4694   20577313.4614
 -20730790.639 4 -16153855.758 4  20691781.565    20691780.485
 -23490346.48444 -18304118.66144  20754160.2054   20754158.9904
 94  4 14  0 35 30.0000000  0  8G13G 5G 9G 7G20G24G12G 4
 -15403119.177 4 -12002407.252 4  21377383.996    21377383.313
 -16203144.44044 -12625818.80444  21642444.2244   21642443.6284
 -20146105.15944 -15698257.56944  21217588.4924   21217588.4004
  16781729.42544  13076670.57444  23662429.7694   23662431.1144
   -195361.55944   -152229.49344  24559714.9274   24559711.5404
 -24619541.40044 -19184017.96444  20570875.3234   20570875.1614
 -20734401.867 4 -16156669.716 4  20691094.337    20691093.295
 -23456679.67144 -18277884.78244  20760566.6124   20760565.5284
 94  4 14  0 36  0.0000000  0  8G13G 5G 9G 7G20G24G12G 4
 -15348099.110 4 -11959534.475 4  21387853.971    21387853.217
 -16273271.19644 -12680463.01444  21629099.8104   21629099.0734
 -20107072.36244 -15667842.41644  21225015.9474   21225015.8144
  16855812.59144  13134397.67344  23676527.2414   23676526.7714
   -293110.73544   -228397.71144  24541113.9734   24541110.7614
 -24652842.20444 -19209966.61344  20564538.4484   20564538.3814
 -20737415.983 4 -16159018.377 4  20690520.775    20690519.752
 -23422465.83644 -18251224.64544  20767077.5714   20767076.2304
 94  4 14  0 36 30.0000000  0  8G13G 5G 9G 7G20G24G12G 4
 -15293216.376 4 -11916768.716 4  21398297.775    21398297.080
 -16343528.93344 -12735209.28144  21615730.3084   21615730.3094
 -20067816.01844 -15637253.07044  21232486.2404   21232485.9284
  16929561.94644  13191864.65644  23690560.3414   23690560.5694
   -391211.33244   -304839.68244  24522445.7434   24522445.7294
 -24685946.00144 -19235761.75644  20558238.8764   20558239.0934
 -20740167.937 4 -16161162.761 4  20689997.074    20689996.032
 -23388037.16544 -18224397.11344  20773629.0234   20773627.9334
 94  4 14  0 37  0.0000000  0  8G13G 5G 9G 7G20G24G12G 4
 -15238368.730 4 -11874030.308 4  21408734.972    21408734.260
 -16413809.62344 -12789973.44644  21602356.2014   21602355.6554
 -20028231.94044 -15606408.35144  21240018.9414   21240018.7764
  17003092.53944  13249161.18844  23704553.8614   23704555.0224
   -489557.54044   -381473.05744  24503729.8064   24503730.0684
 -24718763.20244 -19261333.58744  20551993.9664   20551993.8284
 -20742552.921 4 -16163021.202 4  20689543.299    20689542.197
 -23353300.10344 -18197329.28044  20780239.2824   20780238.2474
 94  4 14  0 37 30.0000000  0  8G13G 5G 9G 7G20G24G12G 4
 -15182710.944 4 -11830660.600 4  21419326.220    21419325.588
 -16483271.09344 -12844099.25044  21589138.1454   21589138.0374
 -19987483.48944 -15574656.32244  21247773.2154   21247773.2174
  17077262.14844  13306955.65844  23718667.4844   23718668.6814
   -587300.46044   -457636.39144  24485131.2814   24485130.0124
 -24750456.30344 -19286029.48444  20545962.8074   20545963.1084
 -20743722.719 4 -16163932.725 4  20689320.636    20689319.599
 -23317418.62144 -18169369.68144  20787067.2824   20787065.8644
 94  4 14  0 38  0.0000000  0  8G13G 5G 9G 7G20G24G12G 4
 -15126765.924 4 -11787067.105 4  21429972.246    21429971.582
 -16552449.48944 -12898004.48844  21575973.6504   21575973.9224
 -19946104.68744 -15542413.12844  21255647.2524   21255647.1044
  17151546.19044  13364839.27044  23732803.6254   23732804.1274
   -684982.74844   -533752.45044  24466546.6664   24466542.4714
 -24781543.49844 -19310253.24744  20540047.1014   20540047.4864
 -20744197.854 4 -16164302.978 4  20689230.233    20689229.118
 -23280913.71444 -18140924.31144  20794014.0214   20794012.7124
 94  4 14  0 38 30.0000000  0  8G13G 5G 9G 7G20G24G12G 4
 -15070643.170 4 -11743335.098 4  21440652.095    21440651.417
 -16621458.13644 -12951777.45644  21562841.9204   21562841.5934
 -19904204.56144 -15509763.69644  21263620.5774   21263620.2304
  17225850.38144  13422738.62144  23746942.9664   23746942.9204
   -782664.30944   -609867.91344  24447957.8634   24447957.9784
 -24812126.40744 -19334084.06544  20534227.5064   20534227.5204
 -20744084.944 4 -16164215.009 4  20689251.731    20689250.689
 -23243900.10644 -18112082.54044  20801057.4944   20801056.4124
 94  4 14  0 39  0.0000000  0  7G13G 5G 9G 7G24G12G 4
 -15014368.353 4 -11699484.598 4  21451360.842    21451360.169
 -16690309.75644 -13005428.05444  21549739.8384   21549739.0654
 -19861826.38244 -15476741.75144  21271685.1254   21271684.9904
  17300154.89344  13480638.20244  23761082.0364   23761083.4664
 -24842206.02744 -19357522.71744  20528503.7254   20528503.6924
 -20743406.983 4 -16163686.731 4  20689380.735    20689379.646
 -23206407.48344 -18082867.50844  20808191.9334   20808190.7864
 94  4 14  0 39 30.0000000  0  8G13G 5G 9G 7G20G24G12G 4
 -14957938.611 4 -11655513.385 4  21462099.152    21462098.392
 -16758995.34344 -13058949.27744  21536669.5714   21536668.8164
 -19818982.56444 -15443356.97544  21279838.0024   21279838.0084
  17374464.39544  13538541.67344  23775223.5814   23775224.9434
        -0.21954         0.30154  24410757.0714   24410753.9474
 -24871759.32944 -19380551.24744  20522879.8054   20522879.7494
 -20742158.611 4 -16162713.988 4  20689618.383    20689617.279
 -23168432.20744 -18053276.39244  20815418.4214   20815417.1074
 94  4 14  0 40  0.0000000  0  7G13G 5G 9G20G24G12G 4
 -14901364.177 4 -11611429.421 4  21472864.895    21472864.168
 -16827514.98944 -13112341.20644  21523630.8524   21523630.5224
 -19775673.12644 -15409609.38644  21288079.4034   21288079.1294
    -97808.97844    -76214.23344  24392145.1864   24392148.5524
 -24900781.24944 -19403165.70244  20517356.9094   20517357.0444
 -20740347.348 4 -16161302.628 4  20689963.001    20689961.964
 -23129982.18044 -18023315.33944  20822735.2324   20822734.2514
 94  4 14  0 40 30.0000000  0  7G13G 5G 9G20G24G12G 4
 -14844666.759 4 -11567249.627 4  21483654.032    21483653.407
 -16895879.71644 -13165612.41444  21510621.3284   21510620.6834
 -19731917.64844 -15375514.22444  21296405.7874   21296405.6784
   -195680.85344   -152478.01344  24373521.0974   24373524.3484
 -24929287.82044 -19425378.59144  20511932.3194   20511932.0554
 -20737992.424 4 -16159467.628 4  20690411.088    20690410.129
 -23091089.38844 -17993009.27044  20830136.3344   20830135.1374
 94  4 14  0 41  0.0000000  0  7G13G 5G 9G20G24G12G 4
 -14787781.625 4 -11522923.559 4  21494478.952    21494478.270
 -16964011.83744 -13218702.36944  21497655.9124   21497655.5774
 -19687654.37244 -15341023.37944  21304828.9974   21304828.7144
   -293547.60744   -228737.82144  24354897.6104   24354898.0414
 -24957224.53944 -19447147.45444  20506616.0084   20506615.8454
 -20735026.591 4 -16157156.593 4  20690975.560    20690974.495
 -23051687.61344 -17962306.59344  20837634.1084   20837632.9764
 94  4 14  0 41 30.0000000  0  7G13G 5G 9G20G24G12G 4
 -14730717.564 4 -11478458.069 4  21505337.923    21505337.167
 -17031926.11144 -13271622.57144  21484732.2534   21484732.0294
 -19642876.37544 -15306131.45344  21313349.9904   21313349.7344
   -391414.54244   -304997.66144  24336273.4544   24336276.6794
 -24984623.94644 -19468497.62344  20501402.1094   20501402.2744
 -20731456.292 4 -16154374.551 4  20691655.006    20691653.990
 -23011775.55744 -17931206.29144  20845229.5524   20845228.2884
 94  4 14  0 42  0.0000000  0  6G13G 5G 9G24G12G 4
 -14673497.193 4 -11433870.783 4  21516226.646    21516225.828
 -17099650.21244 -13324394.58544  21471845.0014   21471844.7774
 -19597602.81144 -15270853.37244  21321965.1004   21321965.1204
 -25011508.28544 -19489446.43244  20496286.1994   20496286.3514
 -20727301.503 4 -16151137.058 4  20692445.536    20692444.588
 -22971371.10644 -17899722.30544  20852917.7614   20852916.9774
 94  4 14  0 42 30.0000000  0  6G13G 5G 9G24G12G 4
 -14616124.289 4 -11389164.620 4  21527144.160    21527143.514
 -17167180.36244 -13377015.46544  21458994.3534   21458994.5264
 -19551854.20544 -15235205.12244  21330670.7164   21330670.6414
 -25037887.26544 -19510001.45744  20491266.5574   20491266.4844
 -20722563.531 4 -16147445.120 4  20693347.145    20693346.101
 -22930476.66244 -17867856.50444  20860699.9904   20860698.9694
 94  4 14  0 43  0.0000000  0  7G13G 5G 9G20G24G12G 4
 -14558557.526 4 -11344307.427 4  21538098.885    21538098.156
 -17234465.53644 -13429445.47044  21446190.4414   21446189.9284
 -19505587.64344 -15199153.29344  21339475.0084   21339475.1664
        -0.39954         0.38854  24280388.7184   24280392.5924
 -25063718.44444 -19530129.64944  20486351.1854   20486350.9164
 -20717198.791 4 -16143264.821 4  20694368.116    20694367.127
 -22889046.38544 -17835573.18444  20868583.9244   20868582.9394
 94  4 14  0 43 30.0000000  0  7G13G 5G 9G20G24G12G 4
 -14500813.826 4 -11299312.352 4  21549087.219    21549086.393
 -17301518.00644 -13481694.13944  21433430.8474   21433430.4764
 -19458812.35744 -15162705.03544  21348376.1474   21348376.1914
    -97869.20544    -76261.03744  24261766.0034   24261768.2134
 -25089006.16244 -19549834.35044  20481538.7524   20481538.8714
 -20711221.922 4 -16138607.525 4  20695505.424    20695504.387
 -22847101.82644 -17802889.11244  20876565.6514   20876564.6384
 94  4 14  0 44  0.0000000  0  7G13G 5G 9G20G24G12G 4
 -14442935.477 4 -11254212.355 4  21560101.127    21560100.325
 -17368365.91544 -13533783.40344  21420710.0954   21420709.5674
 -19411572.95744 -15125895.13144  21357365.6014   21357365.4534
   -195764.96244   -152543.40444  24243137.8604   24243140.1354
 -25113778.68244 -19569137.58644  20476824.6054   20476824.6464
 -20704672.838 4 -16133504.352 4  20696751.701    20696750.695
 -22804688.22944 -17769839.56444  20884636.5394   20884635.4224
 94  4 14  0 44 30.0000000  0  7G13G 5G 9G20G24G12G 4
 -14384917.175 4 -11209003.307 4  21571141.602    21571140.910
 -17435001.15244 -13585706.95744  21408029.7424   21408029.4244
 -19363852.39444 -15088710.30344  21366446.2764   21366446.2264
   -293679.07844   -228840.11444  24224504.9164   24224507.6294
 -25138028.39144 -19588033.44944  20472210.3614   20472210.0684
 -20697543.981 4 -16127949.408 4  20698108.270    20698107.282
 -22761799.95644 -17736420.13644  20892797.9604   20892797.0524
 94  4 14  0 45  0.0000000  0  7G13G 5G 9G20G24G12G 4
 -14326726.958 4 -11163660.294 4  21582214.876    21582214.173
 -17501402.89944 -13637448.56544  21395393.9584   21395393.4424
 -19315598.02144 -15051109.51844  21375628.8704   21375628.9444
   -391575.93944   -305123.30644  24205875.8674   24205878.3154
 -25161725.30844 -19606498.57244  20467701.0104   20467700.8064
 -20689801.097 4 -16121915.999 4  20699581.728    20699580.685
 -22718399.67944 -17702601.74244  20901056.7454   20901055.7524
 94  4 14  0 45 30.0000000  0  7G13G 5G 9G20G24G12G 4
 -14268381.859 4 -11118196.594 4  21593317.579    21593316.863
 -17567596.06644 -13689027.64544  21382798.0854   21382797.2294
 -19266827.81144 -15013106.78044  21384909.8654   21384909.5914
   -489468.96644   -381403.54944  24187246.6934   24187248.1144
 -25184888.83544 -19624548.06044  20463292.9094   20463292.7824
 -20681459.041 4 -16115415.706 4  20701169.138    20701168.118
 -22674504.55244 -17668397.74844  20909409.7024   20909408.4324
 94  4 14  0 46  0.0000000  0  7G13G 5G 9G20G24G12G 4
 -14209897.206 4 -11072624.145 4  21604446.774    21604446.135
 -17633603.02444 -13740461.62844  21370236.9854   21370236.4254
 -19217566.84544 -14974721.63544  21394283.5564   21394283.4634
   -587369.97344   -457689.99044  24168616.5044   24168620.9664
 -25207535.92644 -19642195.12644  20458983.4784   20458983.2314
 -20672531.043 4 -16108458.835 4  20702868.064    20702867.065
 -22630128.76844 -17633819.22644  20917854.3474   20917853.0884
 94  4 14  0 46 30.0000000  0  7G13G 5G 9G20G24G12G 4
 -14151288.681 4 -11026955.174 4  21615599.639    21615598.955
 -17699439.93444 -13791763.10244  21357708.6984   21357708.5484
 -19167826.36044 -14935962.83244  21403749.0854   21403749.1494
   -685290.96444   -533992.05444  24149982.4534   24149986.9524
 -25229692.10344 -19659459.67144  20454767.2964   20454767.1254
 -20663030.488 4 -16101055.816 4  20704675.976    20704674.972
 -22585296.10244 -17598884.67544  20926385.3904   20926384.6624
 94  4 14  0 47  0.0000000  0  7G13G 5G 9G20G24G12G 4
 -14092556.200 4 -10981189.618 4  21626776.121    21626775.335
 -17765086.08844 -13842915.94644  21345216.3174   21345216.3324
 -19117612.58144 -14896835.24044  21413304.5624   21413304.5904
   -783228.67044   -610307.05644  24131346.3094   24131345.6974
 -25251354.27544 -19676339.27844  20450644.9334   20450644.9874
 -20652955.156 4 -16093204.928 4  20706593.296    20706592.295
 -22540021.74644 -17563605.96844  20935001.2704   20934999.6264
 94  4 14  0 47 30.0000000  0  7G13G 5G 9G20G24G12G 4
 -14033690.843 4 -10935320.528 4  21637977.765    21637977.111
 -17830509.04444 -13893894.86444  21332767.1354   21332766.6694
 -19066936.76044 -14857347.61644  21422947.8284   21422947.8254
   -881170.81644   -686625.63644  24112708.0474   24112707.2804
 -25272508.53744 -19692823.09844  20446619.4424   20446619.4244
 -20642294.148 4 -16084897.663 4  20708621.949    20708620.997
 -22494305.23744 -17527982.72144  20943700.2164   20943699.1684
 94  4 14  0 48  0.0000000  0  6G13G 5G 9G24G12G 4
 -13974711.543 4 -10889362.629 4  21649201.102    21649200.543
 -17895716.25044 -13944705.66344  21320358.8844   21320358.1384
 -19015813.65144 -14817511.45944  21432675.8004   21432675.9474
 -25293161.24544 -19708916.10644  20442689.2034   20442689.0314
 -20631064.494 4 -16076147.286 4  20710758.920    20710757.997
 -22448164.56044 -17492028.95144  20952481.0764   20952479.6874
 94  4 14  0 48 30.0000000  0  6G13G 5G 9G24G12G 4
 -13915625.017 4 -10843321.205 4  21660444.948    21660444.250
 -17960696.93144 -13995339.95244  21307993.0204   21307992.3054
 -18964245.41044 -14777328.44544  21442489.1434   21442489.1084
 -25313298.88144 -19724607.76544  20438857.1624   20438857.0544
 -20619270.685 4 -16066957.332 4  20713003.298    20713002.311
 -22401608.32444 -17455751.37444  20961340.0304   20961339.0534
 94  4 14  0 49  0.0000000  0  7G13G 5G 9G20G24G12G 4
 -13856421.557 4 -10797188.648 4  21671711.053    21671710.231
 -18025439.54744 -14045788.73644  21295672.6344   21295672.4624
 -18912232.72444 -14736799.10644  21452387.2624   21452387.1664
        -0.32154        -0.02154  24056773.3194   24056773.6834
 -25332895.21844 -19739877.62944  20435128.2224   20435128.0864
 -20606901.073 4 -16057318.691 4  20715357.100    20715356.124
 -22354619.47544 -17419136.69144  20970281.7444   20970280.5344
 94  4 14  0 49 30.0000000  0  7G13G 5G 9G20G24G12G 4
 -13797038.739 4 -10750916.336 4  21683011.214    21683010.496
 -18089898.18344 -14096016.23944  21283406.7014   21283406.3294
 -18859717.53044 -14695878.20444  21462380.3764   21462380.2774
    -97938.05944    -76315.11744  24038136.6604   24038138.1974
 -25351888.92244 -19754677.90544  20431513.7324   20431513.5484
 -20593891.485 4 -16047181.363 4  20717832.808    20717831.836
 -22307112.44444 -17382118.23844  20979322.2744   20979320.9604
 94  4 14  0 50  0.0000000  0  7G 5G13G 4G 9G20G24G12
 -18154057.99844 -14146010.89544  21271198.1174   21271197.5734
 -13737462.067 4 -10704492.968 4  21694348.289    21694347.680
 -22259066.55144 -17344679.88144  20988464.9514   20988464.2524
 -18806673.58244 -14654545.28844  21472474.4344   21472474.3404
   -195801.29044   -152572.15444  24019513.8714   24019519.0664
 -25370257.23144 -19768990.86244  20428018.5314   20428018.1544
 -20580225.527 4 -16036532.580 4  20720433.349    20720432.314
 94  4 14  0 50 30.0000000  0  7G 5G13G 4G 9G20G24G12
 -18217955.23444 -14195800.93944  21259038.6084   21259037.8394
 -13677736.813 4 -10657953.822 4  21705713.549    21705713.031
 -22210531.06644 -17306860.02644  20997701.1244   20997700.1344
 -18753160.76644 -14612847.01344  21482657.2714   21482657.2514
   -293631.86944   -228803.75244  24000897.0344   24000899.6624
 -25388056.83544 -19782860.67444  20424631.4364   20424631.0224
 -20565946.267 4 -16025405.901 4  20723150.620    20723149.602
 94  4 14  0 51  0.0000000  0  7G 5G13G 4G 9G20G24G12
 -18281585.44944 -14245382.91444  21246929.4244   21246929.3474
 -13617857.978 4 -10611295.003 4  21717108.130    21717107.584
 -22161497.86344 -17268652.34544  21007031.6904   21007030.2014
 -18699178.11544 -14570782.63644  21492929.7134   21492929.7244
   -391421.43344   -305003.36344  23982288.6944   23982287.5774
 -25405310.88044 -19796305.37244  20421347.8184   20421347.7064
 -20551047.290 4 -16013796.327 4  20725985.810    20725984.804
 94  4 14  0 51 30.0000000  0  7G 5G13G 4G 9G20G24G12
 -18344955.66944 -14294762.29644  21234870.8474   21234870.2254
 -13557847.432 4 -10564533.548 4  21728527.853    21728527.137
 -22111987.85644 -17230073.12844  21016453.1384   21016452.1734
 -18644747.08544 -14528368.88544  21503287.6474   21503287.4694
   -489188.11644   -381185.15744  23963683.7234   23963685.2764
 -25422046.17244 -19809345.84544  20418163.2504   20418163.1464
 -20535548.404 4 -16001719.287 4  20728935.123    20728934.147
 94  4 14  0 52  0.0000000  0  7G 5G13G 4G 9G20G24G12
 -18408046.30644 -14343923.82644  21222865.5704   21222864.7834
 -13497698.207 4 -10517664.043 4  21739973.920    21739973.139
 -22062001.87844 -17191123.01744  21025965.4374   21025964.2824
 -18589860.11444 -14485599.85144  21513732.7414   21513732.8714
   -586921.42944   -457340.96744  23945086.0584   23945085.8704
 -25438261.35944 -19821981.05244  20415077.6204   20415077.2794
 -20519441.040 4 -15989168.109 4  20732000.303    20731999.256
 94  4 14  0 52 30.0000000  0  7G 5G13G 4G 9G20G24G12
 -18470872.40644 -14392879.21944  21210910.5174   21210909.6894
 -13437417.679 4 -10470692.218 4  21751444.972    21751444.294
 -22011550.21944 -17151810.04944  21035565.8854   21035564.3684
 -18534520.48144 -14442478.08244  21524263.4044   21524263.5734
   -684625.38244   -533473.87944  23926492.6254   23926493.8944
 -25453970.27544 -19834221.75844  20412088.1884   20412088.1734
 -20502730.845 4 -15976147.199 4  20735180.216    20735179.143
 94  4 14  0 53  0.0000000  0  7G 5G13G 4G 9G20G24G12
 -18533418.90744 -14441616.74644  21199007.3994   21199007.2854
 -13376988.274 4 -10423604.384 4  21762944.254    21762943.636
 -21960605.26744 -17112112.69144  21045260.2704   21045259.6304
 -18478693.59244 -14398976.63244  21534886.6824   21534886.6144
   -782278.73244   -609567.36944  23907910.3294   23907911.6794
 -25469148.65444 -19846049.05544  20409199.9474   20409199.9654
 -20485398.518 4 -15962641.508 4  20738478.394    20738477.370
 94  4 14  0 53 30.0000000  0  7G 5G13G 4G 9G20G24G12
 -18595675.54244 -14490128.40944  21187160.0284   21187160.2914
 -13316401.725 4 -10376394.099 4  21774473.546    21774472.796
 -21909164.64544 -17072029.09544  21055049.1144   21055048.0004
 -18422364.92844 -14355084.19944  21545605.3934   21545605.4614
   -879869.69744   -685612.25344  23889338.8324   23889338.5184
 -25483764.82044 -19857438.26444  20406418.6674   20406418.5264
 -20467434.147 4 -15948643.314 4  20741896.871    20741895.828
 94  4 14  0 54  0.0000000  0  7G 5G13G 4G 9G20G24G12
 -18657995.03244 -14538689.04244  21175301.7764   21175301.0954
 -13255998.070 4 -10329326.330 4  21785967.926    21785967.195
 -21857581.22544 -17031834.22944  21064864.8824   21064863.8524
 -18365858.79744 -14311053.49244  21556358.3254   21556358.8614
   -977735.01944   -761870.92544  23870716.0694   23870717.3734
 -25498146.15844 -19868644.49344  20403681.8674   20403681.6864
 -20449176.193 4 -15934416.352 4  20745371.372    20745370.305
 94  4 14  0 54 30.0000000  0  7G 5G13G 4G 9G20G24G12
 -18720294.45444 -14587234.03544  21163447.0014   21163445.8464
 -13195698.186 4 -10282339.424 4  21797442.628    21797441.912
 -21805785.99044 -16991474.31344  21074721.6064   21074720.3274
 -18309087.51444 -14266816.16344  21567161.9954   21567162.1774
  -1075791.91644   -838278.85844  23852056.3014   23852057.1484
 -25512197.43044 -19879593.53144  20401008.0574   20401007.8854
 -20430543.826 4 -15919897.640 4  20748916.985    20748915.876
 94  4 14  0 55  0.0000000  0  8G 5G13G 4G 9G20G 6G24G12
 -18781741.20444 -14635114.60944  21151753.2444   21151752.5494
 -13134675.935 4 -10234789.632 4  21809054.768    21809054.093
 -21752956.27244 -16950308.30644  21084774.4034   21084773.5044
 -18251235.08744 -14221736.37944  21578171.0644   21578170.9144
  -1173210.68044   -914189.51344  23833517.4484   23833519.1444
        -0.73254        -0.61054  25420866.8404   25420869.0844
 -25525086.14844 -19889636.67944  20398555.3654   20398555.1174
 -20410709.627 4 -15904442.434 4  20752691.250    20752690.234
 94  4 14  0 55 30.0000000  0  8G 5G13G 4G 9G20G 6G24G12
 -18842891.94544 -14682764.53044  21140116.6964   21140116.6704
 -13073487.787 4 -10187110.567 4  21820698.591    21820697.895
 -21699655.00244 -16908774.85744  21094917.4934   21094916.4914
 -18192858.77144 -14176248.37144  21589279.5304   21589279.7084
  -1270544.08844   -990033.68244  23814996.5204   23814999.4444
    -75166.67344    -58571.36244  25406563.7894   25406569.0874
 -25537366.70044 -19899205.93144  20396218.5184   20396218.3184
 -20390228.430 4 -15888483.068 4  20756588.738    20756587.669
 94  4 14  0 56  0.0000000  0  8G 5G13G 4G 9G20G 6G24G12
 -18903859.05344 -14730271.36144  21128515.1994   21128514.8274
 -13012256.117 4 -10139397.590 4  21832350.624    21832349.867
 -21645997.49544 -16866963.81944  21105128.1674   21105127.0464
 -18134087.49244 -14130452.60644  21600463.4974   21600463.2834
  -1367911.17244  -1065904.14344  23796467.8134   23796469.8224
   -150366.90644   -117168.74644  25392252.7144   25392256.6294
 -25549173.49844 -19908406.02844  20393971.5734   20393971.3024
 -20369221.170 4 -15872113.791 4  20760586.343    20760585.220
 94  4 14  0 56 30.0000000  0  8G 5G13G 4G 9G20G 6G24G12
 -18964614.94644 -14777613.60644  21116953.9744   21116953.3124
 -12950971.036 4 -10091642.999 4  21844012.787    21844011.977
 -21591961.20344 -16824857.62644  21115410.8634   21115409.5764
 -18074932.88244 -14084358.14444  21611720.3614   21611720.3364
  -1465298.50444  -1141790.31744  23777936.0664   23777936.3304
   -225612.27244   -175801.39044  25377933.8564   25377940.4604
 -25560516.87644 -19917245.01444  20391813.0084   20391812.7954
 -20347676.608 4 -15855325.836 4  20764686.170    20764685.057
 94  4 14  0 57  0.0000000  0  8G 5G13G 4G 9G20G 6G24G12
 -19025212.76844 -14824832.67444  21105422.1274   21105421.5934
 -12889702.503 4 -10043901.300 4  21855671.815    21855671.001
 -21537606.74244 -16782503.50844  21125754.2274   21125753.0204
 -18015470.37844 -14038023.76444  21623035.4674   21623035.6734
  -1562772.40044  -1217743.98244  23759386.9014   23759389.4454
   -300966.92944   -234519.25244  25363593.2534   25363594.4204
 -25571475.97944 -19925784.56844  20389727.6384   20389727.3994
 -20325663.039 4 -15838172.423 4  20768875.172    20768874.081
 94  4 14  0 57 30.0000000  0  8G 5G13G 4G 9G20G 6G24G12
 -19085607.76144 -14871893.70544  21093929.4864   21093929.1074
 -12828417.729 4  -9996146.948 4  21867333.800    21867333.158
 -21482898.12344 -16739873.42244  21136164.8254   21136164.1714
 -17955676.12044 -13991430.86544  21634413.9044   21634413.9784
  -1660296.65244  -1293736.86544  23740829.3384   23740829.5654
   -376387.95644   -293288.76044  25349241.9224   25349241.4204
 -25582016.10244 -19933997.64344  20387721.8904   20387721.5714
 -20303146.488 4 -15820627.070 4  20773159.972    20773158.848
 94  4 14  0 58  0.0000000  0  8G 5G 4G13G 9G20G 6G24G12
 -19145554.80344 -14918605.68444  21082522.0344   21082521.6484
 -21427594.43644 -16696779.64344  21146688.8594   21146687.3914
 -12766878.692 4  -9948194.466 4  21879044.364    21879043.637
 -17895327.82544 -13944406.24844  21645897.6334   21645897.6594
  -1757629.74244  -1369580.78944  23722307.1524   23722308.6854
   -451628.79744   -351917.86744  25334923.7434   25334929.7764
 -25591902.00944 -19941700.93544  20385840.6114   20385840.5094
 -20279887.671 4 -15802503.333 4  20777586.060    20777584.841
 94  4 14  0 58 30.0000000  0  8G 5G 4G13G 9G20G 6G24G12
 -19205194.44744 -14965078.12944  21071172.9594   21071172.5434
 -21371842.48444 -16653336.57544  21157298.1914   21157296.7524
 -12705230.459 4  -9900156.899 4  21890775.585    21890774.975
 -17834565.92644 -13897059.34244  21657460.3134   21657460.3694
  -1854913.03444  -1445385.92544  23703794.5234   23703795.5284
   -526804.55444   -410496.26344  25320618.7854   25320621.7274
 -25601270.07344 -19949000.71644  20384057.9094   20384057.6264
 -20256030.293 4 -15783913.190 4  20782125.926    20782124.842
 94  4 14  0 59  0.0000000  0  8G 5G 4G13G 9G20G 6G24G12
 -19264522.09344 -15011307.45644  21059883.0464   21059882.3734
 -21315643.54644 -16609545.19944  21167992.4434   21167991.3834
 -12643467.184 4  -9852029.686 4  21902528.722    21902528.065
 -17773376.35844 -13849379.19544  21669104.5204   21669104.8134
  -1952137.33444  -1521145.08744  23685293.5064   23685294.4974
   -601888.35044   -469003.14044  25306330.7984   25306334.9544
 -25610104.63644 -19955884.78744  20382376.7874   20382376.4834
 -20231567.359 4 -15764851.182 4  20786781.029    20786779.914
 94  4 14  0 59 30.0000000  0  8G 5G 4G13G 9G20G 6G24G12
 -19323550.94244 -15057303.95444  21048650.2324   21048649.6504
 -21259008.36744 -16565413.89644  21178769.7264   21178768.0994
 -12581593.118 4  -9803816.143 4  21914302.986    21914302.258
 -17711768.70144 -13801373.27444  21680828.1664   21680828.3544
  -2049303.20844  -1596858.71844  23666803.6874   23666804.1984
   -676889.55944   -527445.52044  25292056.9544   25292062.8474
 -25618406.69644 -19962353.91944  20380796.9914   20380796.8994
 -20206501.765 4 -15745319.563 4  20791550.906    20791549.777
 94  4 14  1  0  0.0000000  0  8G 5G 4G13G 9G20G 6G24G12
 -19382291.04444 -15103075.45644  21037472.4444   21037472.0644
 -21201944.62744 -16520948.65944  21189628.6444   21189627.3744
 -12519615.737 4  -9755522.097 4  21926096.946    21926096.175
 -17649736.96744 -13753036.90244  21692632.6934   21692633.0354
  -2146414.81944  -1672530.08044  23648323.8274   23648325.7014
   -751820.72444   -585833.32444  25277799.0574   25277802.7664
 -25626179.21144 -19968410.41644  20379317.8784   20379317.6694
 -20180839.921 4 -15725323.339 4  20796434.275    20796433.111
 94  4 14  1  0 30.0000000  0  7G 5G 4G13G 9G20G24G12
 -19440763.28444 -15148638.22944  21026345.6304   21026345.2274
 -21144475.52844 -16476167.54144  21200564.5504   21200563.8974
 -12457548.516 4  -9707158.034 4  21937907.954    21937907.161
 -17587283.54544 -13704371.93544  21704516.9174   21704517.4994
  -2243482.05044  -1748166.81144  23629852.5324   23629852.8264
 -25633427.86644 -19974058.70644  20377938.4464   20377938.3364
 -20154594.184 4 -15704872.125 4  20801428.595    20801427.465
 94  4 14  1  1  0.0000000  0  7G 5G 4G13G 9G20G24G12
 -19498967.38944 -15193992.07744  21015269.4334   21015269.0774
 -21086593.22244 -16431064.45544  21211579.3024   21211578.2094
 -12395379.471 4  -9658714.650 4  21949738.373    21949737.606
 -17524400.65344 -13655372.31444  21716483.1044   21716483.1754
  -2340489.31744  -1823756.91844  23611392.7704   23611393.9444
 -25640136.57244 -19979286.26644  20376661.6834   20376661.5964
 -20127751.467 4 -15683955.747 4  20806536.619    20806535.534
 94  4 14  1  1 30.0000000  0  7G 5G 4G13G 9G20G24G12
 -19556823.70644 -15239074.91144  21004259.9574   21004259.4224
 -21028217.45144 -16385576.85344  21222687.8514   21222686.3234
 -12333032.636 4  -9610132.718 4  21961602.657    21961601.789
 -17461013.99444 -13605980.14944  21728545.2254   21728545.0064
  -2437357.18944  -1899238.33444  23592958.8374   23592957.6104
 -25646216.34344 -19984023.74544  20375504.6964   20375504.5074
 -20100234.684 4 -15662514.110 4  20811772.872    20811771.784
 94  4 14  1  2  0.0000000  0  8G 5G 4G 9G13G20G 6G24G12
 -19614426.56344 -15283960.24544  20993298.6434   20993298.1014
 -20969439.78544 -16339776.08644  21233872.7094   21233871.6044
 -17397211.14444 -13556263.67544  21740686.2564   21740685.9784
 -12270602.238 4  -9561485.675 4  21973482.762    21973481.981
  -2534176.21944  -1974681.70944  23574535.2384   23574537.7594
        -0.41154         0.10754  25220859.0444   25220860.5284
 -25651763.47744 -19988346.18144  20374449.2054   20374449.0154
 -20072137.005 4 -15640619.839 4  20817119.717    20817118.609
 94  4 14  1  2 30.0000000  0  8G 4G13G 9G20G 6G24G 5G12
 -20910305.45844 -16293697.39644  21245125.7154   21245124.9684
 -12208129.834 4  -9512805.895 4  21985370.907    21985370.099
 -17333035.47044 -13506256.69444  21752898.9094   21752898.8424
  -2630984.53444  -2050116.72144  23556112.4844   23556111.3974
    -74768.56544    -58260.67744  25206631.2404   25206633.4164
 -25656832.61344 -19992296.14644  20373484.6294   20373484.4104
 -19671801.69944 -15328668.14044  20982380.5084   20982380.0404
 -20043499.174 4 -15618304.669 4  20822569.366    20822568.183
 94  4 14  1  3  0.0000000  0  7G 4G13G 9G20G24G 5G12
 -20850828.67444 -16247351.85644  21256443.7504   21256442.7874
 -12145637.413 4  -9464110.516 4  21997262.928    21997262.046
 -17268503.94344 -13455972.42544  21765178.8064   21765178.8334
  -2727800.50544  -2125557.72644  23537689.9734   23537689.9214
 -25661445.48744 -19995890.58844  20372606.8494   20372606.7024
 -19728938.21344 -15373190.09644  20971507.7684   20971507.2924
 -20014342.018 4 -15595584.823 4  20828117.772    20828116.623
 94  4 14  1  3 30.0000000  0  7G 4G13G 9G20G24G 5G12
 -20790930.17744 -16200677.71644  21267842.0864   21267840.8594
 -12083044.338 4  -9415336.707 4  22009173.933    22009173.129
 -17203544.37544 -13405354.62744  21777540.2694   21777540.0404
  -2824539.92244  -2200939.07344  23519280.7834   23519281.3194
 -25665530.03144 -19999073.34544  20371829.5394   20371829.5064
 -19785736.76144 -15417448.70344  20960699.2644   20960698.6454
 -19984584.119 4 -15572396.868 4  20833780.509    20833779.368
 94  4 14  1  4  0.0000000  0  8G 4G13G 9G20G 6G24G 5G12
 -20730585.49244 -16153655.89544  21279325.5374   21279324.3784
 -12020317.641 4  -9366458.780 4  22021110.405    22021109.673
 -17138136.95144 -13354387.84844  21789987.0674   21789987.1314
  -2921166.32244  -2276232.35144  23500893.6114   23500893.9264
        -0.34754        -0.14054  25163960.7074   25163963.8064
 -25669072.34144 -20001833.57644  20371155.4434   20371155.3904
 -19842160.88744 -15461415.54944  20949961.9244   20949961.1374
 -19954191.646 4 -15548714.441 4  20839564.085    20839562.930
 94  4 14  1  4 30.0000000  0  8G 4G13G 9G20G 6G24G 5G12
 -20669848.47044 -16106328.35244  21290882.9864   21290882.2904
 -11957513.394 4  -9317520.419 4  22033061.610    22033060.850
 -17072340.11244 -13303117.62544  21802507.6354   21802507.8604
  -3017732.30044  -2351478.53844  23482517.3694   23482519.1864
    -74638.60444    -58159.72844  25149756.2304   25149757.2074
 -25672116.00244 -20004205.25244  20370576.2364   20370575.9214
 -19898263.38044 -15505131.77644  20939285.9254   20939285.5234
 -19923219.736 4 -15524580.504 4  20845457.890    20845456.714
 94  4 14  1  5  0.0000000  0  7G 4G13G 9G20G24G 5G12
 -20608744.98844 -16058715.26344  21302510.9354   21302509.3054
 -11894656.082 4  -9268540.704 4  22045022.924    22045022.115
 -17006197.92044 -13251578.30244  21815094.2184   21815094.2784
  -3114259.05044  -2426694.17544  23464149.4524   23464150.7824
 -25674674.64744 -20006198.99644  20370089.3904   20370089.1024
 -19954086.83444 -15548630.56644  20928663.4424   20928662.9364
 -19891692.083 4 -15500013.515 4  20851457.350    20851456.205
 94  4 14  1  5 30.0000000  0  7G 4G13G 9G20G24G 5G12
 -20547209.12444 -16010765.24644  21314220.3734   21314219.7484
 -11831678.553 4  -9219467.325 4  22057007.146    22057006.341
 -16939662.63044 -13199732.66544  21827755.3434   21827755.9524
  -3210675.91044  -2501824.15044  23445801.9654   23445800.1114
 -25676676.84644 -20007759.14244  20369708.2894   20369708.0284
 -20009588.49644 -15591878.60644  20918101.7134   20918101.2384
 -19859540.884 4 -15474960.656 4  20857575.528    20857574.373
 94  4 14  1  6  0.0000000  0  7G 4G13G 9G20G24G 5G12
 -20485220.29244 -15962462.26044  21326016.7244   21326016.1154
 -11768566.667 4  -9170289.236 4  22069016.999    22069016.141
 -16872689.75144 -13147546.04844  21840499.3904   21840499.2414
  -3306965.02244  -2576854.59744  23427478.1424   23427478.8524
 -25678095.77344 -20008864.78544  20369438.1904   20369437.8694
 -20064757.43844 -15634867.38544  20907603.2554   20907602.7034
 -19826751.141 4 -15449410.218 4  20863815.226    20863814.128
 94  4 14  1  6 30.0000000  0  7G 4G13G 9G20G24G 5G12
 -20422793.08844 -15913817.70844  21337896.6544   21337895.2034
 -11705339.119 4  -9121021.041 4  22081048.826    22081048.089
 -16805278.94544 -13095018.20944  21853327.2164   21853327.9024
  -3403141.52444  -2651797.34144  23409176.5094   23409176.2744
 -25678926.42144 -20009512.04344  20369280.2284   20369280.0524
 -20119609.58344 -15677609.32244  20897165.2814   20897164.7704
 -19793340.967 4 -15423376.349 4  20870173.029    20870171.935
 94  4 14  1  7  0.0000000  0  8G 4G13G 9G20G 6G24G 5G12
 -20359964.43944 -15864860.33044  21349851.7884   21349850.8894
 -11642030.647 4  -9071689.777 4  22093095.974    22093095.293
 -16737460.54544 -13042172.74044  21866233.0394   21866233.5964
  -3499236.70644  -2726676.68644  23390889.9844   23390889.3814
        -0.28254         0.03154  25078918.1574   25078919.2064
 -25679205.19344 -20009729.25944  20369227.2874   20369226.9844
 -20174167.82244 -15720122.23344  20886783.1734   20886782.6194
 -19759344.298 4 -15396885.458 4  20876642.390    20876641.222
 94  4 14  1  7 30.0000000  0  8G 4G13G 9G20G 6G24G 5G12
 -20296789.42444 -15815633.06044  21361874.0364   21361873.2314
 -11578692.268 4  -9022335.213 4  22105148.879    22105148.330
 -16669255.97344 -12989026.36544  21879212.1634   21879212.3774
  -3595297.93344  -2801529.55844  23372609.4774   23372609.6844
    -74309.87444    -57903.51144  25064778.1134   25064784.3904
 -25678981.81044 -20009555.18644  20369269.6034   20369269.4014
 -20228467.95544 -15762434.02344  20876450.0854   20876449.8644
 -19724811.538 4 -15369976.848 4  20883213.816    20883212.603
 94  4 14  1  8  0.0000000  0  8G 4G13G 9G20G 6G24G 5G12
 -20233274.97844 -15766141.28744  21373960.3414   21373959.0324
 -11515321.294 4  -8972955.240 4  22117208.126    22117207.395
 -16600654.99944 -12935571.10944  21892266.4894   21892266.7814
  -3691319.31944  -2876351.39144  23354336.5914   23354337.1634
   -148590.49944   -115784.38644  25050643.3604   25050649.0384
 -25678264.56344 -20008996.28044  20369406.1264   20369405.7994
 -20282493.14044 -15804531.56544  20866169.6464   20866169.1984
 -19689739.568 4 -15342648.064 4  20889887.783    20889886.661
 94  4 14  1  8 30.0000000  0  8G 4G13G 9G20G 6G24G 5G12
 -20169368.74944 -15716344.24144  21386121.3754   21386120.3644
 -11451855.257 4  -8923501.200 4  22129285.336    22129284.541
 -16531625.28044 -12881781.76144  21905402.5224   21905402.6234
  -3787234.90544  -2951090.78044  23336084.9044   23336084.3964
   -222778.31844   -173593.13744  25036525.6854   25036525.5414
 -25676999.98944 -20008010.88744  20369646.7404   20369646.3914
 -20336178.20444 -15846364.07444  20855953.7064   20855953.0544
 -19654065.301 4 -15314849.955 4  20896676.393    20896675.193
 94  4 14  1  9  0.0000000  0  8G 4G13G 9G20G 6G24G 5G12
 -20106009.48344 -15666973.38844  21398178.0234   21398177.2924
 -11389223.409 4  -8874697.178 4  22141203.748    22141202.953
 -16463112.23144 -12828395.01844  21918439.9944   21918440.2644
  -3883970.10244  -3026468.80044  23317676.4054   23317677.1004
   -297805.50444   -232055.82944  25022248.9854   25022246.9094
 -25676144.29344 -20007344.10144  20369809.5174   20369809.0614
 -20390449.60444 -15888653.46944  20845626.0114   20845625.3844
 -19618717.555 4 -15287306.288 4  20903402.946    20903401.629
 94  4 14  1  9 30.0000000  0  8G 4G13G 9G20G 6G24G 5G12
 -20042249.53044 -15617290.31544  21410311.1654   21410310.0254
 -11326470.128 4  -8825798.531 4  22153145.302    22153144.447
 -16394181.52544 -12774682.82744  21931557.2534   21931557.5844
  -3980565.78244  -3101738.14844  23299294.8904   23299294.3064
   -372716.57944   -290428.06744  25007994.2584   25007997.4774
 -25674744.14444 -20006253.06844  20370076.0494   20370075.6544
 -20444339.90344 -15930645.89944  20835370.9704   20835370.5964
 -19582740.052 4 -15259271.899 4  20910249.266    20910248.103
 94  4 14  1 10  0.0000000  0  8G 4G13G 9G20G 6G24G 5G12
 -19977184.12944 -15566590.01544  21422692.4474   21422691.6304
 -11262698.509 4  -8776106.373 4  22165280.654    22165279.737
 -16323959.48144 -12719964.40144  21944919.9824   21944920.2034
  -4076121.54644  -3176197.16444  23281111.4114   23281112.3364
   -446632.28144   -348024.62144  24993928.1484   24993930.0374
 -25671903.97344 -20004039.93844  20370616.5194   20370616.3294
 -20496939.61344 -15971632.68144  20825361.7734   20825361.4774
 -19545235.519 4 -15230047.605 4  20917386.058    20917384.924
 94  4 14  1 10 30.0000000  0  8G 4G13G 9G20G 6G24G 5G12
 -19911603.82044 -15515488.47944  21435172.2984   21435171.2574
 -11198706.641 4  -8726242.595 4  22177457.898    22177457.006
 -16253238.02744 -12664856.81744  21958378.0704   21958378.1974
  -4171432.18744  -3250465.16344  23262974.9034   23262976.5524
   -520366.22344   -405479.53544  24979896.3124   24979896.5534
 -25668415.73644 -20001321.82444  20371280.2724   20371280.0254
 -20549034.86144 -16012226.37444  20815448.4434   20815447.6824
 -19507001.525 4 -15200254.908 4  20924661.810    20924660.535
 94  4 14  1 11  0.0000000  0  8G 4G13G 9G20G 6G24G 5G12
 -19845655.06544 -15464099.84744  21447721.9874   21447720.5764
 -11134648.826 4  -8676327.432 4  22189647.736    22189646.773
 -16182160.58444 -12609471.83944  21971903.3464   21971903.7594
  -4266648.43544  -3324659.61244  23244856.4474   23244856.7444
   -594070.05544   -462910.97744  24965870.7914   24965872.4714
 -25664423.75044 -19998211.18344  20372039.8074   20372039.4324
 -20600764.66344 -16052535.30144  20805604.5874   20805603.5884
 -19468192.154 4 -15170013.869 4  20932047.072    20932045.859
 94  4 14  1 11 30.0000000  0  8G 4G13G 9G20G 6G24G 5G12
 -19779513.49444 -15412560.97444  21460308.0224   21460307.1264
 -11070721.871 4  -8626514.237 4  22201812.623    22201811.788
 -16110921.70744 -12553961.07144  21985459.8794   21985459.9824
  -4361963.39644  -3398930.98144  23226718.5764   23226719.5384
   -667942.23644   -520473.68944  24951813.4064   24951821.2284
 -25660103.47244 -19994844.72844  20372861.9154   20372861.6384
 -20652315.61244 -16092704.87044  20795794.6894   20795794.2064
 -19429003.872 4 -15139477.571 4  20939504.294    20939503.163
 94  4 14  1 12  0.0000000  0  8G 4G13G 9G20G 6G24G 5G12
 -19713046.95444 -15360768.87244  21472956.9874   21472955.8694
 -11006808.689 4  -8576711.772 4  22213974.879    22213974.060
 -16039389.35744 -12498221.61844  21999072.1224   21999072.5804
  -4457256.62644  -3473185.40344  23208585.1854   23208585.2424
   -741867.86844   -578077.99544  24937746.1464   24937749.1044
 -25655348.65844 -19991139.67244  20373766.6914   20373766.6294
 -20703584.91844 -16132654.98144  20786038.5004   20786038.1604
 -19389319.216 4 -15108554.481 4  20947056.010    20947054.926
 94  4 14  1 12 30.0000000  0  8G 4G13G 9G20G 6G24G 5G12
 -19646025.38844 -15308544.28844  21485710.1414   21485709.2214
 -10942671.340 4  -8526734.641 4  22226179.832    22226178.993
 -15967319.30044 -12442063.18944  22012786.7064   22012787.4834
  -4552286.86544  -3547234.90344  23190501.7744   23190501.7114
   -815599.01944   -635530.90344  24923716.3954   24923709.9934
 -25649917.76444 -19986907.79944  20374800.2464   20374799.9954
 -20754341.34844 -16172205.44344  20776379.7304   20776379.1004
 -19348900.107 4 -15077059.090 4  20954747.646    20954746.315
 94  4 14  1 13  0.0000000  0  8G 4G13G 9G20G 6G24G 5G12
 -19578610.55444 -15256013.26044  21498538.8114   21498537.5304
 -10878470.328 4  -8476707.904 4  22238396.859    22238396.000
 -15894883.59344 -12385619.83844  22026570.6754   22026571.0684
  -4647211.19944  -3621201.88544  23172438.3784   23172439.3434
   -889289.40544   -692951.78944  24909692.5154   24909688.3614
 -25643980.12444 -19982281.06344  20375930.1844   20375929.7194
 -20804753.24944 -16211487.43944  20766786.4634   20766785.6754
 -19307906.656 4 -15045116.175 4  20962548.489    20962547.119
 94  4 14  1 13 30.0000000  0  8G 4G13G 9G20G 6G24G 5G12
 -19510842.69344 -15203207.15144  21511434.8394   21511433.7694
 -10814241.706 4  -8426659.641 4  22250619.265    22250618.403
 -15822120.12844 -12328921.07844  22040417.0824   22040417.5474
  -4742062.12044  -3695111.66644  23154388.6014   23154388.2354
   -962970.71644   -750365.81844  24895671.7894   24895678.7204
 -25637583.27844 -19977296.50244  20377147.3624   20377147.1194
 -20854860.72044 -16250532.21644  20757251.6274   20757250.9814
 -19266374.993 4 -15012753.868 4  20970451.597    20970450.509
 94  4 14  1 14  0.0000000  0  8G 4G13G 9G20G 6G24G 5G12
 -19442733.72644 -15150135.23644  21524395.1784   21524394.6874
 -10749974.751 4  -8376581.512 4  22262848.807    22262847.969
 -15749006.95644 -12271949.82344  22054330.0894   22054330.3864
  -4836825.38944  -3768953.14044  23136355.4464   23136356.3304
  -1036613.09244   -807749.40744  24881657.9134   24881659.0864
 -25630716.19944 -19971945.52044  20378454.0284   20378453.8114
 -20904656.29944 -16289333.96744  20747775.6674   20747775.4124
 -19224294.054 4 -14979963.540 4  20978459.294    20978458.166
 94  4 14  1 14 30.0000000  0  8G12G 4G13G 9G20G 6G24G 5
 -19181669.007 4 -14946749.251 4  20986570.724    20986569.377
 -19374298.22544 -15096808.88144  21537418.1234   21537417.0344
 -10685674.799 4  -8326477.677 4  22275084.687    22275083.912
 -15675556.39644 -12214715.67144  22068307.2224   22068307.4824
  -4931502.74844  -3842727.66544  23118338.0984   23118338.2574
  -1110208.96344   -865096.76344  24867651.6584   24867654.2874
 -25623376.18144 -19966226.02044  20379850.7584   20379850.4864
 -20954140.28344 -16327892.91844  20738359.2224   20738358.4024
 94  4 14  1 15  0.0000000  0  8G12G 4G13G 9G20G 6G24G 5
 -19138496.752 4 -14913108.569 4  20994786.172    20994784.965
 -19305528.37344 -15043222.00144  21550504.5934   21550503.6444
 -10621338.798 4  -8276345.745 4  22287327.487    22287326.672
 -15601773.14444 -12157222.27244  22082347.5944   22082347.9344
  -5026087.79644  -3916430.27344  23100338.9474   23100339.8984
  -1183752.46444   -922403.35144  24853656.2724   24853657.3114
 -25615557.95544 -19960133.89344  20381338.5014   20381338.4354
 -21003306.09444 -16366203.93744  20729003.4064   20729002.3714
 94  4 14  1 15 30.0000000  0  8G12G 4G13G 9G20G 6G24G 5
 -19094797.085 4 -14879056.905 4  21003101.926    21003100.735
 -19236447.60144 -14989392.84144  21563650.5504   21563649.6774
 -10556986.443 4  -8226201.077 4  22299573.255    22299572.526
 -15527680.49444 -12099487.79444  22096446.9064   22096447.2764
  -5120596.78544  -3990073.61144  23082354.2114   23082355.5944
  -1257272.86044   -979691.83644  24839665.9934   24839665.5734
 -25607251.99744 -19953661.71544  20382919.0554   20382918.9234
 -21052171.63644 -16404280.98044  20719704.4134   20719704.0104
 94  4 14  1 16  0.0000000  0  8G12G 4G13G 9G20G 6G24G 5
 -19050571.137 4 -14844595.152 4  21011517.873    21011516.532
 -19167063.16044 -14935327.05344  21576853.5094   21576852.8894
 -10492619.042 4  -8176044.678 4  22311822.096    22311821.279
 -15453284.20444 -12041516.70544  22110604.5374   22110605.0634
  -5215027.41744  -4063655.89544  23064385.0854   23064385.8434
  -1330790.98944  -1036978.61744  24825675.9864   24825679.7534
 -25598455.94144 -19946807.63844  20384592.8504   20384592.7644
 -21100740.33244 -16442126.71544  20710462.2054   20710461.7394
 94  4 14  1 16 30.0000000  0  8G12G 4G13G 9G20G 6G24G 5
 -19005812.795 4 -14809718.549 4  21020035.113    21020033.809
 -19097372.95944 -14881023.01544  21590115.0394   21590113.7224
 -10428230.414 4  -8125871.738 4  22324074.702    22324074.026
 -15378591.68444 -11983314.80844  22124817.9204   22124818.6104
  -5309369.76044  -4137169.37944  23046432.5684   23046431.7884
  -1404321.89144  -1094275.37544  24811683.5624   24811686.8664
 -25589166.98444 -19939569.48344  20386360.6344   20386360.3064
 -21149003.20944 -16479734.14344  20701277.9984   20701277.1274
 94  4 14  1 17  0.0000000  0  8G12G 4G13G 9G20G 6G24G 5
 -18960509.140 4 -14774417.019 4  21028656.120    21028654.850
 -19027368.63044 -14826474.20444  21603436.8414   21603435.3244
 -10363807.571 4  -8075672.138 4  22336334.005    22336333.278
 -15303585.34144 -11924868.36244  22139091.2964   22139091.4224
  -5403607.49844  -4210601.33944  23028499.7494   23028500.4094
  -1477871.10344  -1151586.42944  24797688.5774   24797690.2974
 -25579363.61944 -19931930.49444  20388226.1594   20388225.7554
 -21196929.33444 -16517079.16544  20692157.8524   20692157.3904
 94  4 14  1 17 30.0000000  0  8G12G 4G13G 9G20G 6G24G 5
 -18914639.393 4 -14738674.379 4  21037384.855    21037383.626
 -18957032.73144 -14771667.02444  21616820.9864   21616820.4274
 -10299329.633 4  -8025429.607 4  22348603.862    22348603.018
 -15228244.64244 -11866161.36344  22153428.0014   22153428.0364
  -5497716.30744  -4283932.83344  23010591.1934   23010590.7714
  -1551424.00744  -1208900.26044  24783692.0604   24783696.8814
 -25569036.98444 -19923883.76344  20390191.2654   20390190.8574
 -21244488.51944 -16554138.26544  20683107.7794   20683107.2494
 94  4 14  1 18  0.0000000  0  8G12G 4G13G 9G20G 6G24G 5
 -18868206.971 4 -14702493.300 4  21046220.795    21046219.430
 -18886364.90344 -14716601.19244  21630268.7264   21630267.7184
 -10234799.869 4  -7975146.694 4  22360883.409    22360882.605
 -15152575.14344 -11807198.15444  22167827.5324   22167827.8794
  -5591696.20544  -4357163.89644  22992707.4374   22992707.2434
  -1624960.18444  -1266201.09044  24769699.3344   24769703.0524
 -25558215.71644 -19915451.60044  20392250.4514   20392250.1154
 -21291676.72744 -16590908.29244  20674128.1404   20674127.7714
 94  4 14  1 18 30.0000000  0  8G12G 4G13G 9G20G 6G24G 5
 -18821189.479 4 -14665856.322 4  21055167.902    21055166.493
 -18815331.82444 -14661250.75944  21643785.9784   21643784.8694
 -10170195.704 4  -7924805.805 4  22373177.352    22373176.407
 -15076557.83644 -11747963.93344  22182293.2784   22182293.8114
  -5685520.97044  -4430274.06244  22974852.9884   22974852.8934
  -1698433.23644  -1323452.81444  24755718.1794   24755720.1054
 -25546871.02744 -19906611.58144  20394409.2384   20394409.1014
 -21338464.99944 -16627366.68144  20665224.6004   20665224.1824
 94  4 14  1 19  0.0000000  0  8G12G 4G13G 9G20G 6G24G 5
 -18773589.447 4 -14628765.425 4  21064225.800    21064224.500
 -18743921.54544 -14605606.40044  21657374.6754   21657373.5764
 -10105519.535 4  -7874408.815 4  22385484.867    22385483.897
 -15000202.49844 -11688466.30044  22196822.9344   22196823.5334
  -5779189.48644  -4503262.47544  22957029.1454   22957028.5844
  -1771827.79044  -1380643.33544  24741751.8944   24741753.7594
 -25535014.71644 -19897372.89344  20396665.3514   20396665.0794
 -21384854.49844 -16663514.33644  20656397.0304   20656396.2984
 94  4 14  1 19 30.0000000  0  8G12G 4G13G20G 9G 6G 5G24
 -18725416.895 4 -14591228.391 4  21073392.721    21073391.513
 -18672143.03944 -14549675.11044  21671033.6564   21671033.0124
 -10040781.184 4  -7823963.371 4  22397804.100    22397803.171
  -5872707.98044  -4576134.00444  22939233.0014   22939233.4824
 -14923518.33544 -11628712.43744  22211415.6984   22211416.2944
  -1845120.07344  -1437754.14244  24727803.4784   24727806.9064
 -21430870.10444 -16699370.64844  20647640.4934   20647639.5034
 -25522663.39144 -19887748.48144  20399015.7074   20399015.5144
 94  4 14  1 20  0.0000000  0  8G12G 4G13G20G 9G 6G 5G24
 -18676661.048 4 -14553236.839 4  21082670.767    21082669.437
 -18599991.80244 -14493453.37744  21684764.0644   21684762.7834
  -9975969.519 4  -7773460.799 4  22410137.535    22410136.458
  -5966062.26344  -4648877.55844  22921467.9374   22921468.9634
 -14846481.83344 -11568684.04344  22226075.1814   22226075.6434
  -1918285.96244  -1494766.46244  24713880.5524   24713881.0484
 -21476501.44944 -16734927.53644  20638957.4814   20638957.0314
 -25509797.16044 -19877722.84344  20401463.9784   20401464.0644
 94  4 14  1 20 30.0000000  0  8G12G 4G13G20G 9G 6G 5G24
 -18627368.585 4 -14514827.157 4  21092050.887    21092049.470
 -18527521.36944 -14436982.92544  21698554.3944   21698553.6524
  -9911130.858 4  -7722937.194 4  22422475.828    22422474.834
  -6059295.29744  -4721526.64644  22903725.9864   22903726.3324
 -14769132.49144 -11508411.86944  22240794.5414   22240794.6834
  -1991388.55444  -1551729.44644  24699969.4334   24699970.0984
 -21521785.79144 -16770214.03944  20630339.6874   20630339.4294
 -25496457.71544 -19867328.46444  20404002.4804   20404002.1724
 94  4 14  1 21  0.0000000  0  8G12G 4G13G20G 9G 6G 5G24
 -18577593.688 4 -14476041.552 4  21101522.757    21101521.374
 -18454794.97844 -14380313.02844  21712393.5954   21712392.5394
  -9846319.215 4  -7672434.641 4  22434809.143    22434808.102
  -6152457.50644  -4794120.54544  22885997.7744   22885997.9904
 -14691525.15644 -11447938.67644  22255562.5234   22255563.3684
  -2064490.55444  -1608691.91844  24686058.7254   24686059.2084
 -21566764.23244 -16805262.17344  20621780.8204   20621779.6744
 -25482701.12644 -19856609.04544  20406620.4314   20406619.8954
 94  4 14  1 21 30.0000000  0  8G12G 4G13G20G 9G 6G 5G24
 -18527255.860 4 -14436817.294 4  21111101.666    21111100.388
 -18381739.87244 -14323386.99044  21726295.6364   21726294.6414
  -9781453.594 4  -7621890.028 4  22447152.536    22447151.690
  -6245464.29644  -4866593.34544  22868298.7904   22868300.2474
 -14613570.50944 -11387194.84544  22270396.8754   22270397.1514
  -2137520.33644  -1665598.19644  24672161.5954   24672164.7284
 -21611335.19844 -16839992.79144  20613299.1524   20613298.5244
 -25468444.56644 -19845500.03844  20409333.3084   20409333.1084
 94  4 14  1 22  0.0000000  0  8G12G 4G13G20G 9G 6G 5G24
 -18476474.658 4 -14397247.543 4  21120765.040    21120763.757
 -18308476.32744 -14266298.52744  21740237.2554   21740236.4254
  -9716653.147 4  -7571396.199 4  22459483.732    22459482.842
  -6338431.36344  -4939035.19044  22850607.6064   22850608.6184
 -14535398.43344 -11326281.60844  22285271.9084   22285272.6824
  -2210623.46344  -1722561.58744  24658249.8994   24658251.8884
 -21655600.91444 -16874485.56644  20604875.3314   20604875.4924
 -25453816.75644 -19834101.73544  20412116.8654   20412116.4944
 94  4 14  1 22 30.0000000  0  8G12G 4G13G20G 9G 6G 5G24
 -18425194.371 4 -14357288.906 4  21130523.423    21130522.142
 -18234942.28044 -14208999.28244  21754230.2524   21754228.9704
  -9651861.737 4  -7520909.412 4  22471813.205    22471812.270
  -6431299.19144  -5011399.70344  22832935.3404   22832937.0054
 -14456967.24644 -11265166.44644  22300197.0274   22300197.8574
  -2283755.62444  -1779547.65544  24644333.3824   24644340.6924
 -21699500.17244 -16908692.77544  20596522.1844   20596521.3674
 -25438765.11544 -19822373.18344  20414980.9844   20414980.6944
 94  4 14  1 23  0.0000000  0  8G12G 4G13G20G 9G 6G 5G24
 -18373308.139 4 -14316858.098 4  21140397.040    21140395.757
 -18161034.74044 -14151409.01544  21768294.4974   21768293.1864
  -9586972.211 4  -7470346.176 4  22484161.313    22484160.345
  -6523957.26044  -5083600.76344  22815303.6664   22815303.9254
 -14378165.61644 -11203762.63444  22315192.5874   22315193.4114
  -2356803.31744  -1836467.84144  24630432.5994   24630430.7834
 -21742930.55844 -16942534.61544  20588257.3734   20588256.4084
 -25423178.47944 -19810227.75544  20417946.8704   20417946.6584
 94  4 14  1 23 30.0000000  0  8G12G 4G13G20G 9G 6G 5G24
 -18320864.115 4 -14275992.655 4  21150376.834    21150375.532
 -18086809.12744 -14093570.89144  21782419.8094   21782418.7144
  -9522031.984 4  -7419743.428 4  22496519.061    22496518.076
  -6616449.66344  -5155672.74544  22797702.9464   22797702.7834
 -14299040.03344 -11142106.38144  22330250.2304   22330250.5164
  -2429813.64944  -1893358.96444  24616539.0164   24616537.9434
 -21785939.85644 -16976048.35044  20580072.6354   20580072.5444
 -25407096.71644 -19797696.50544  20421007.1854   20421007.1554
 94  4 14  1 24  0.0000000  0  8G12G 4G13G20G 9G 6G 5G24
 -18267872.304 4 -14234700.365 4  21160460.828    21160459.486
 -18012279.13944 -14035495.59144  21796601.8554   21796600.8754
  -9457050.651 4  -7369108.644 4  22508884.571    22508883.538
  -6708782.48044  -5227620.37444  22780132.6164   22780133.0834
 -14219611.15344 -11080213.79244  22345365.0484   22345365.9294
  -2502800.32044  -1950231.61044  24602650.7564   24602652.7014
 -21828556.81444 -17009256.36644  20571963.4614   20571962.7734
 -25390513.13344 -19784774.22544  20424162.9124   20424162.7284
 94  4 14  1 24 30.0000000  0  8G12G 4G13G20G 9G 6G 5G24
 -18214312.603 4 -14192965.573 4  21170652.912    21170651.644
 -17937425.75044 -13977168.29044  21810845.7024   21810844.9634
  -9392007.384 4  -7318425.601 4  22521261.835    22521260.930
  -6800931.51244  -5299424.78844  22762597.1614   22762596.9524
 -14139855.34544 -11018066.44844  22360542.2604   22360542.9124
  -2575736.62044  -2007065.00644  24588771.7384   24588770.1364
 -21870767.52544 -17042147.82144  20563930.4924   20563930.0444
 -25373378.52344 -19771422.57844  20427423.5474   20427423.3354
 94  4 14  1 25  0.0000000  0  8G12G 4G13G20G 9G 6G 5G24
 -18160277.069 4 -14150859.985 4  21180935.570    21180934.319
 -17862350.11844 -13918667.81744  21825133.0174   21825131.9064
  -9326993.628 4  -7267765.558 4  22533633.580    22533632.635
  -6892984.79944  -5371154.60244  22745080.1024   22745080.7204
 -14059873.39244 -10955742.89744  22375762.3454   22375762.8914
  -2648708.68744  -2063926.27944  24574884.7934   24574889.3344
 -21912662.64244 -17074793.36344  20555958.2294   20555957.6334
 -25355781.52944 -19757710.62544  20430772.0924   20430772.0964
 94  4 14  1 25 30.0000000  0  8G12G 4G13G20G 9G 6G 5G24
 -18106194.789 4 -14108717.967 4  21191227.083    21191225.828
 -17787469.62344 -13860319.39344  21839381.7324   21839381.2714
  -9262438.003 4  -7217462.502 4  22545918.083    22545917.213
  -6985367.43144  -5443141.05244  22727499.9464   22727500.9334
 -13980110.42244 -10893589.98144  22390940.6744   22390940.4764
  -2722143.62944  -2121148.24044  24560909.9654   24560908.4414
 -21954666.36544 -17107523.53244  20547965.2924   20547964.7114
 -25338164.30144 -19743982.91244  20434124.7764   20434124.3554
 94  4 14  1 26  0.0000000  0  8G12G 4G13G20G 9G 6G 5G24
 -18050956.889 4 -14065675.474 4  21201738.550    21201737.228
 -17711657.97144 -13801245.40044  21853807.7894   21853807.2454
  -9197230.928 4  -7166651.820 4  22558326.639    22558325.767
  -7076966.35144  -5514516.81144  22710069.4234   22710070.1184
 -13899448.99744 -10830736.96244  22406289.6134   22406290.1544
  -2794914.58744  -2177852.84144  24547061.6334   24547065.7824
 -21995681.04544 -17139483.01844  20540160.2684   20540159.7034
 -25319438.74744 -19729391.56844  20437688.0494   20437687.7474
 94  4 14  1 26 30.0000000  0  8G12G 4G13G20G 9G 6G 5G24
 -17995059.425 4 -14022119.033 4  21212375.511    21212374.289
 -17635404.26444 -13741826.94544  21868319.2384   21868318.1374
  -9131867.711 4  -7115719.465 4  22570764.875    22570764.001
  -7168273.61644  -5585665.30344  22692694.3994   22692695.4594
 -13818372.83644 -10767560.77244  22421718.4114   22421719.3534
  -2867505.24144  -2234416.86244  24533248.3534   24533249.8864
 -22036188.39644 -17171047.18344  20532452.1404   20532451.5354
 -25300124.96244 -19714341.85244  20441363.1574   20441362.9584
 94  4 14  1 27  0.0000000  0  8G12G 4G13G20G 9G 6G 5G24
 -17938626.345 4 -13978145.235 4  21223114.407    21223113.161
 -17558826.36344 -13682155.87544  21882890.8304   21882890.3114
  -9066471.597 4  -7064761.471 4  22583209.340    22583208.535
  -7259409.11544  -5656679.95544  22675351.3674   22675351.7744
 -13737007.39744 -10704159.16044  22437201.6334   22437202.4104
  -2940022.46044  -2290923.73844  24519449.2604   24519450.1474
 -22076296.58244 -17202300.30944  20524819.9534   20524819.1844
 -25280382.44744 -19698958.06844  20445120.3124   20445119.8364
 94  4 14  1 27 30.0000000  0  8G12G 4G13G20G 9G 6G 5G24
 -17881694.796 4 -13933783.020 4  21233948.186    21233946.814
 -17481955.14444 -13622256.23544  21897518.9364   21897518.4414
  -9001078.882 4  -7013806.127 4  22595653.210    22595652.439
  -7350405.58744  -5727586.26844  22658035.5514   22658035.8484
 -13655372.33644 -10640547.46944  22452736.3664   22452737.0384
  -3012493.30944  -2347394.40844  24505658.2914   24505661.1614
 -22116037.33044 -17233267.12044  20517257.3374   20517256.7174
 -25260248.96444 -19683269.63844  20448951.2714   20448951.1474
 94  4 14  1 28  0.0000000  0  8G12G 4G13G20G 9G 6G 5G24
 -17824283.697 4 -13889047.132 4  21244873.139    21244871.853
 -17404825.13844 -13562154.94444  21912196.5724   21912195.6724
  -8935707.765 4  -6962867.617 4  22608092.974    22608092.105
  -7441278.00244  -5798395.91644  22640743.2784   22640744.9464
 -13573478.38344 -10576734.04644  22468320.0764   22468320.4694
  -3084947.49944  -2403852.14844  24491871.4994   24491871.2234
 -22155417.71644 -17263953.13144  20509763.2214   20509762.9854
 -25239722.62244 -19667275.07644  20452857.4994   20452857.2074
 94  4 14  1 28 30.0000000  0  8G12G 4G13G20G 9G 6G 5G24
 -17766427.269 4 -13843964.232 4  21255882.887    21255881.562
 -17327483.49844 -13501888.75044  21926913.8544   21926913.6474
  -8870391.656 4  -6911971.965 4  22620522.267    22620521.399
  -7532056.27544  -5869132.20144  22623468.1254   22623468.9504
 -13491379.68144 -10512761.06644  22483943.2744   22483944.4784
  -3157440.90344  -2460340.39644  24478075.0874   24478073.5524
 -22194448.25944 -17294366.53844  20502336.3894   20502335.7374
 -25218811.34944 -19650980.58044  20456836.6154   20456836.4574
 94  4 14  1 29  0.0000000  0  8G12G 4G13G20G 9G 6G 5G24
 -17708105.939 4 -13798519.061 4  21266981.085    21266979.754
 -17249929.54444 -13441457.11444  21941671.9824   21941671.6654
  -8805110.015 4  -6861103.172 4  22632944.869    22632944.055
  -7622716.59444  -5939776.58244  22606216.6794   22606217.2394
 -13409062.53544 -10448617.88444  22499607.0944   22499607.6234
  -3229957.44544  -2516846.71844  24464275.3024   24464278.6474
 -22233107.45244 -17324490.57544  20494979.6644   20494978.8594
 -25197464.11544 -19634346.36644  20460898.9244   20460898.7294
 94  4 14  1 29 30.0000000  0  8G12G 4G13G20G 9G 6G 5G24
 -17649305.803 4 -13752700.799 4  21278170.415    21278169.092
 -17172163.26044 -13380860.02344  21956470.6844   21956469.5234
  -8739847.939 4  -6810249.625 4  22645363.912    22645362.943
  -7713240.55744  -6010314.69144  22588990.9294   22588991.4194
 -13326511.93244 -10384292.78444  22515316.5054   22515317.0064
  -3302506.51044  -2573378.37544  24450469.8704   24450469.3984
 -22271379.89444 -17354313.25544  20487696.4654   20487696.0374
 -25175632.26144 -19617334.52544  20465053.5344   20465053.2304
 94  4 14  1 30  0.0000000  0  8G12G 4G13G20G 9G 6G 5G24
 -17590003.321 4 -13706491.100 4  21289455.315    21289454.004
 -17094165.48944 -13320082.56044  21971313.3814   21971312.2784
  -8674581.136 4  -6759392.386 4  22657783.686    22657782.775
  -7803600.45644  -6080724.98844  22571795.3794   22571795.8844
 -13243724.41844 -10319783.07844  22531070.4834   22531071.1204
  -3375066.99344  -2629918.94444  24436662.4714   24436662.7664
 -22309241.74044 -17383815.98944  20480492.2314   20480491.3294
 -25153287.30444 -19599922.87044  20469305.4954   20469305.3174
 94  4 14  1 30 30.0000000  0  8G12G 4G13G20G 9G 6G 5G24
 -17530177.588 4 -13659873.675 4  21300839.850    21300838.419
 -17015911.19244 -13259105.20444  21986204.2454   21986203.7154
  -8609287.797 4  -6708514.472 4  22670208.626    22670207.683
  -7893771.18344  -6150987.86644  22554636.3054   22554637.1554
 -13160687.42144 -10255078.97144  22546871.8454   22546872.8644
  -3447596.12744  -2686435.08844  24422860.8634   24422861.4714
 -22346679.78044 -17412988.48544  20473367.4684   20473366.8354
 -25130421.85744 -19582105.63444  20473656.5984   20473656.2904
 94  4 14  1 31  0.0000000  0  8G12G 4G13G20G 9G 6G 5G24
 -17469805.176 4 -13612830.260 4  21312328.299    21312326.892
 -16937366.15744 -13197901.30044  22001151.0074   22001150.3624
  -8543943.275 4  -6657596.675 4  22682643.150    22682642.336
  -7983724.83744  -6221081.59344  22537518.0144   22537519.0574
 -13077367.35044 -10190154.28844  22562727.1144   22562727.9134
  -3520052.05844  -2742894.23044  24409072.3784   24409074.9264
 -22383673.51744 -17441814.77444  20466327.8254   20466327.0554
 -25107032.68444 -19563880.30144  20478107.4894   20478107.4364
 94  4 14  1 31 30.0000000  0  8G12G 4G13G20G 9G 6G 5G24
 -17408880.645 4 -13565356.623 4  21323921.915    21323920.547
 -16858500.56944 -13136447.60844  22016158.6714   22016157.7164
  -8478541.064 4  -6606633.919 4  22695088.823    22695087.973
  -8073451.62344  -6290998.53844  22520444.2294   22520444.5254
 -12993762.52044 -10125007.70244  22578636.7704   22578637.4904
  -3592420.80544  -2799285.34644  24395301.4174   24395301.0264
 -22420223.25744 -17470295.08744  20459372.9614   20459372.4134
 -25083139.18944 -19545261.98944  20482654.1344   20482653.9424
 94  4 14  1 32  0.0000000  0  8G12G 4G13G20G 9G 6G 5G24
 -17347424.621 4 -13517468.845 4  21335616.636    21335615.292
 -16779319.44844 -13074748.06244  22031226.3764   22031225.3134
  -8413101.049 4  -6555641.705 4  22707541.714    22707540.891
  -8162967.95644  -6360751.49744  22503410.4784   22503410.7554
 -12909899.83844 -10059660.21044  22594595.2504   22594595.9714
  -3664707.32444  -2855612.42844  24381545.7474   24381546.3474
 -22456351.05244 -17498446.61644  20452497.6554   20452497.0464
 -25058786.91344 -19526286.19144  20487288.1504   20487287.7444
 94  4 14  1 32 30.0000000  0  8G12G 4G13G20G 9G 6G 5G24
 -17285430.589 4 -13469161.832 4  21347413.689    21347412.335
 -16699809.07444 -13012791.94844  22046356.6564   22046355.8674
  -8347615.458 4  -6504613.984 4  22720003.355    22720002.344
  -8252262.58044  -6430331.69144  22486417.5394   22486418.5114
 -12825759.41744  -9994096.28244  22610606.8854   22610607.3564
  -3736911.94144  -2911875.70844  24367805.1554   24367809.0784
 -22492034.34944 -17526251.77844  20445707.6094   20445706.6844
 -25033969.65344 -19506948.06544  20492010.6964   20492010.4204
 94  4 14  1 33  0.0000000  0  8G12G 4G13G20G 9G 6G 5G24
 -17222899.982 4 -13420436.714 4  21359312.896    21359311.567
 -16619968.25644 -12950578.34144  22061549.9634   22061549.4894
  -8282084.610 4  -6453550.999 4  22732473.551    22732472.514
  -8341332.47844  -6499736.78844  22469467.9224   22469468.4804
 -12741346.39344  -9928319.94144  22626669.6534   22626670.3974
  -3809044.96744  -2968083.17144  24354079.1114   24354079.6974
 -22527260.14744 -17553700.45244  20439004.3164   20439003.6724
 -25008679.39044 -19487241.36844  20496823.6994   20496823.1754
 94  4 14  1 33 30.0000000  0  8G12G 4G13G20G 9G 6G 5G24
 -17159932.856 4 -13371371.442 4  21371295.189    21371293.862
 -16539915.32444 -12888199.44844  22076783.5464   22076782.7154
  -8216607.326 4  -6402529.752 4  22744933.483    22744932.400
  -8430273.55644  -6569041.50344  22452542.8844   22452543.5514
 -12656770.66244  -9862416.82044  22642764.4584   22642765.7114
  -3881211.57444  -3024316.82744  24340346.3814   24340347.4614
 -22562117.64244 -17580862.13844  20432370.9354   20432370.3084
 -24983017.31844 -19467244.94844  20501706.5664   20501706.5934
 94  4 14  1 34  0.0000000  0  8G12G20G13G 4G 9G 6G 5G24
 -17096531.601 4 -13321967.897 4  21383360.073    21383358.690
  -8519083.88444  -6638244.34244  22435643.1374   22435642.4714
  -8151184.994 4  -6351551.322 4  22757382.946    22757381.828
 -16459667.04144 -12825668.33744  22092054.4044   22092053.4664
 -12572035.37644  -9796389.36944  22658888.8694   22658889.8494
  -3953415.26144  -3080579.38744  24326606.1194   24326609.2234
 -22596585.78344 -17607720.42944  20425812.0324   20425811.2814
 -24956981.41344 -19446957.22444  20506661.4014   20506661.1804
 94  4 14  1 34 30.0000000  0  8G12G20G13G 4G 9G 6G 5G24
 -17032579.455 4 -13272135.084 4  21395529.758    21395528.388
  -8607641.58344  -6707250.32644  22418791.2704   22418791.4124
  -8085699.544 4  -6300523.710 4  22769844.476    22769843.280
 -16379126.78544 -12762909.70744  22107380.5204   22107380.1154
 -12487017.11844  -9730141.42444  22675066.8544   22675067.6354
  -4025535.85444  -3136777.15644  24312881.1084   24312884.4504
 -22630547.81344 -17634184.34844  20419349.4084   20419348.5594
 -24930450.54244 -19426283.82044  20511709.8854   20511709.6714
 94  4 14  1 35  0.0000000  0  8G12G 4G13G20G 9G 6G 5G24
 -16968101.699 4 -13221892.704 4  21407799.515    21407798.188
 -16298329.57644 -12699950.85344  22122755.9444   22122755.5244
  -8020174.883 4  -6249465.546 4  22782313.357    22782312.319
  -8695967.34844  -6776075.58144  22401983.8634   22401983.6534
 -12401749.37044  -9663699.06544  22691293.1394   22691294.0724
  -4097584.68944  -3192919.04044  24299171.4114   24299171.7154
 -22664041.58044 -17660283.38544  20412975.5044   20412974.8754
 -24903458.67444 -19405251.19244  20516846.2924   20516846.1324
 94  4 14  1 35 30.0000000  0  8G12G20G13G 4G 9G 6G 5G24
 -16903142.771 4 -13171275.381 4  21420160.790    21420159.456
  -8784101.17544  -6844751.26644  22385212.5834   22385212.2244
  -7954654.395 4  -6198410.631 4  22794781.467    22794780.462
 -16217323.28144 -12636829.08044  22138171.0684   22138169.2854
 -12316264.48444  -9597087.51144  22707560.3824   22707561.1554
  -4169597.73344  -3249033.00944  24285467.8594   24285470.0194
 -22697116.33544 -17686055.92344  20406681.5954   20406680.8944
 -24876049.37644 -19383893.29944  20522062.3654   20522061.9984
 94  4 14  1 36  0.0000000  0  8G12G20G13G 4G 9G 6G 5G24
 -16837712.983 4 -13120291.158 4  21432611.701    21432610.270
  -8872048.69844  -6913281.78344  22368476.2104   22368476.8924
  -7889146.930 4  -6147365.872 4  22807247.116    22807246.151
 -16136111.70244 -12573547.35244  22153624.6324   22153623.4574
 -12230575.75944  -9530317.12744  22723866.5984   22723868.0254
  -4241580.25044  -3305123.22144  24271769.8054   24271771.5114
 -22729791.46244 -17711517.06544  20400463.9164   20400463.3344
 -24848211.62644 -19362201.54344  20527359.1964   20527359.0964
 94  4 14  1 36 30.0000000  0  8G12G20G13G 4G 9G 6G 5G24
 -16771735.352 4 -13068880.054 4  21445166.863    21445165.400
  -8959728.56044  -6981603.74244  22351791.0164   22351791.9974
  -7823574.296 4  -6096270.328 4  22819725.048    22819724.133
 -16054614.31044 -12510042.89544  22169133.4794   22169132.6784
 -12144611.60444  -9463332.12244  22740225.2004   22740226.3404
  -4313453.96044  -3361128.61544  24258092.5494   24258093.0514
 -22761995.32944 -17736610.97744  20394335.2954   20394334.8434
 -24819864.78244 -19340113.09644  20532753.8104   20532752.9324
 94  4 14  1 37  0.0000000  0  8G12G20G13G 4G 9G 6G 5G24
 -16705227.076 4 -13017055.460 4  21457823.033    21457821.575
  -9047153.14044  -7049726.78044  22335154.6734   22335155.4934
  -7757952.205 4  -6045136.248 4  22832212.431    22832211.600
 -15972832.03644 -12446316.46844  22184695.9734   22184695.1744
 -12058387.54044  -9396144.58144  22756633.0884   22756634.4174
  -4385227.39144  -3417055.89044  24244434.9944   24244436.3464
 -22793729.90244 -17761339.21244  20388296.6944   20388296.0854
 -24791019.85244 -19317636.53144  20538242.8754   20538242.4464
 94  4 14  1 37 30.0000000  0  8G12G20G13G 4G 9G 6G 5G24
 -16638273.937 4 -12964884.206 4  21470563.825    21470562.400
  -9134403.71544  -7117714.22544  22318551.5564   22318552.2274
  -7692365.132 4  -5994029.458 4  22844693.316    22844692.372
 -15890839.67244 -12382426.32444  22200298.8084   22200297.3404
 -11971984.97544  -9328817.95144  22773074.6534   22773074.9384
  -4456994.31844  -3472978.07744  24230777.8214   24230779.3724
 -22825066.18844 -17785757.08744  20382333.5834   20382332.8544
 -24761753.90844 -19294831.89544  20543811.7634   20543811.5814
 94  4 14  1 38  0.0000000  0  8G12G20G13G 4G 9G 6G 5G24
 -16570842.754 4 -12912340.448 4  21483395.560    21483394.124
  -9221442.22744  -7185536.41644  22301988.8214   22301988.6874
  -7626778.428 4  -5942922.958 4  22857174.149    22857173.138
 -15808595.19544 -12318339.73244  22215948.8844   22215947.6704
 -11885369.07844  -9261325.08944  22789557.0754   22789557.5694
  -4528732.28744  -3528877.72844  24217126.0944   24217127.9264
 -22855961.10844 -17809831.04344  20376454.3004   20376453.8334
 -24732050.26344 -19271686.19844  20549464.2964   20549463.5754
 94  4 14  1 38 30.0000000  0  8G12G20G13G 4G 9G 6G 5G24
 -16502907.251 4 -12859403.719 4  21496323.315    21496321.740
  -9308237.68944  -7253169.21544  22285471.9704   22285472.3514
  -7561164.341 4  -5891795.113 4  22869660.087    22869659.103
 -15726055.24244 -12254022.90144  22231655.5604   22231655.1734
 -11798486.70244  -9193624.58644  22806090.5794   22806091.5074
  -4600418.40044  -3584736.95444  24203485.0124   24203486.3264
 -22886380.24244 -17833534.25944  20370665.9354   20370665.1174
 -24701896.30844 -19248189.61644  20555202.2884   20555201.8844
 94  4 14  1 39  0.0000000  0  8G12G20G13G 4G 9G 6G 5G24
 -16434527.149 4 -12806120.558 4  21509335.711    21509334.091
  -9394845.13944  -7320655.51044  22268991.3894   22268991.5014
  -7495581.280 4  -5840691.442 4  22882140.241    22882139.247
 -15643277.17644 -12189520.51944  22247408.5864   22247408.1204
 -11711385.64744  -9125753.67744  22822665.4734   22822666.5964
  -4672116.13644  -3640605.26444  24189841.0354   24189841.4474
 -22916384.70144 -17856914.35044  20364956.3674   20364955.5144
 -24671351.27444 -19224388.28644  20561014.8424   20561014.8154
 94  4 14  1 39 30.0000000  0  8G12G20G13G 4G 9G 6G 5G24
 -16365676.615 4 -12752470.819 4  21522437.543    21522435.973
  -9481233.93844  -7387971.43244  22252551.8974   22252552.6364
  -7430001.647 4  -5789590.443 4  22894619.600    22894618.602
 -15560242.81244 -12124818.42844  22263209.1214   22263207.9824
 -11624037.80544  -9057690.47044  22839287.5434   22839288.0574
  -4743814.11144  -3696473.73244  24176196.3174   24176197.0374
 -22945957.85544 -17879958.36244  20359328.6634   20359328.1344
 -24640385.42044 -19200259.04544  20566907.1814   20566907.0114
 94  4 14  1 40  0.0000000  0  8G12G20G 4G13G 9G 6G 5G24
 -16296395.643 4 -12698485.669 4  21535621.229    21535619.722
  -9567439.57344  -7455144.62544  22236147.1214   22236148.0604
 -15477006.34744 -12059958.85644  22279047.9344   22279047.4524
  -7364464.156 4  -5738522.279 4  22907091.055    22907089.902
 -11536487.07344  -8989469.17544  22855947.6934   22855948.0584
  -4815542.98744  -3752366.27844  24162547.1844   24162549.0864
 -22975141.29344 -17902698.70044  20353775.4094   20353774.6264
 -24609034.75444 -19175829.95444  20572873.4294   20572872.9304
 94  4 14  1 40 30.0000000  0  8G12G20G 4G13G 9G 6G 5G24
 -16226678.667 4 -12644160.775 4  21548887.872    21548886.423
  -9653451.48844  -7522166.86944  22219779.7894   22219779.8364
 -15393567.72644 -11994941.75844  22294926.6724   22294925.9434
  -7298961.584 4  -5687481.326 4  22919555.722    22919554.580
 -11448738.44244  -8921093.66344  22872645.2444   22872646.4174
  -4887280.96244  -3808265.93544  24148896.5894   24148896.9714
 -23003933.84144 -17925134.44344  20348296.2324   20348295.5394
 -24577275.43644 -19151082.43544  20578916.7944   20578916.6504
 94  4 14  1 41  0.0000000  0  8G12G20G 4G13G 9G 6G 5G24
 -16156493.070 4 -12589470.722 4  21562243.750    21562242.412
  -9739232.01344  -7589008.80144  22203456.7144   22203456.6644
 -15309919.57044 -11929761.38844  22310844.5254   22310843.5784
  -7233459.641 4  -5636440.863 4  22932020.366    22932019.310
 -11360785.71244  -8852559.09944  22889382.7134   22889384.3124
  -4958987.08044  -3864140.76444  24135251.0274   24135252.2184
 -23032296.66644 -17947235.33644  20342898.8624   20342898.1844
 -24545067.75144 -19125985.52944  20585045.7504   20585045.7464
 94  4 14  1 41 30.0000000  0  8G12G20G 4G13G 9G 6G 5G24
 -16085910.416 4 -12534471.278 4  21575675.351    21575673.779
  -9824848.04044  -7655722.55744  22187164.3334   22187164.0514
 -15226141.71944 -11864479.95644  22326785.6244   22326785.7994
  -7168028.357 4  -5585455.461 4  22944471.440    22944470.561
 -11272729.59844  -8783943.99944  22906138.6294   22906139.3944
  -5030718.21344  -3920035.07044  24121600.8744   24121602.0644
 -23060288.78344 -17969047.36744  20337572.1374   20337571.5504
 -24512479.40544 -19100592.01244  20591247.3954   20591246.8574
 94  4 14  1 42  0.0000000  0  8G12G20G 4G13G 9G 6G 5G24
 -16014888.458 4 -12479129.526 4  21589190.299    21589188.842
  -9910252.09144  -7722271.13544  22170911.8434   22170912.6834
 -15142186.72344 -11799060.48644  22342762.3044   22342762.3334
  -7102623.793 4  -5534490.878 4  22956917.518    22956916.705
 -11184549.63044  -8715232.37944  22922919.1604   22922919.8564
  -5102419.42844  -3975906.06544  24107957.2784   24107958.0244
 -23087851.33744 -17990524.67444  20332327.1574   20332326.5064
 -24479483.43144 -19074880.86044  20597525.8434   20597525.6154
 94  4 14  1 42 30.0000000  0  8G12G20G 4G13G 9G 6G 5G24
 -15943393.213 4 -12423418.980 4  21602795.476    21602793.977
  -9995405.45944  -7788624.37944  22154707.7524   22154708.5144
 -15058018.28244 -11733474.69144  22358779.5474   22358778.2474
  -7037210.275 4  -5483519.309 4  22969365.371    22969364.328
 -11096224.61944  -8646407.74444  22939726.8804   22939727.4384
  -5174051.82744  -4031723.44344  24094325.4784   24094328.0594
 -23114941.01544 -18011633.50344  20327172.1334   20327171.4714
 -24446053.10544 -19048831.25344  20603887.7094   20603887.1334
 94  4 14  1 43  0.0000000  0  8G12G20G 4G13G 9G 6G 5G24
 -15871429.098 4 -12367343.074 4  21616489.799    21616488.317
 -10080307.65344  -7854781.90344  22138552.1534   22138552.6314
 -14973648.08644 -11667731.68644  22374833.9174   22374833.1174
  -6971790.515 4  -5432542.882 4  22981814.221    22981813.333
 -11007764.14444  -8577477.55644  22956560.0824   22956561.0344
  -5245627.95044  -4087496.98244  24080705.2104   24080705.3784
 -23141539.85644 -18032359.86844  20322110.5974   20322109.9444
 -24412191.18944 -19022445.34144  20610331.4074   20610331.1564
 94  4 14  1 43 30.0000000  0  8G12G20G 4G13G 9G 6G 5G24
 -15798979.073 4 -12310888.535 4  21630276.539    21630275.124
 -10164936.87644  -7920726.72044  22122447.6414   22122448.0564
 -14889045.62544 -11601807.70544  22390933.0654   22390932.6884
  -6906345.847 4  -5381547.039 4  22994268.135    22994266.954
 -10919138.66844  -8508418.78044  22973425.1964   22973426.6884
  -5317134.90844  -4143216.61744  24067097.5384   24067099.3644
 -23167622.18244 -18052683.75844  20317147.3304   20317146.5674
 -24377895.05944 -18995721.07444  20616857.6314   20616857.4294
 94  4 14  1 44  0.0000000  0  8G12G20G 4G13G 9G 6G 5G24
 -15726048.255 4 -12254059.342 4  21644154.844    21644153.339
 -10249293.33044  -7986458.99344  22106394.5014   22106395.7214
 -14804204.78344 -11535697.95744  22407078.1864   22407077.9694
  -6840879.577 4  -5330534.355 4  23006725.730    23006724.750
 -10830318.94644  -8439208.64644  22990327.0024   22990327.9764
  -5388593.41144  -4198898.50044  24053499.1534   24053498.9754
 -23193190.97444 -18072607.48644  20312281.6214   20312280.9304
 -24343168.62244 -18968661.51044  20623466.0454   20623465.5364
 94  4 14  1 44 30.0000000  0  8G12G20G 4G13G 9G 6G 5G24
 -15652642.505 4 -12196860.089 4  21658123.500    21658121.965
 -10333377.69744  -8051979.24744  22090393.9094   22090394.4504
 -14719139.43344 -11469413.27944  22423265.9904   22423265.2464
  -6775395.733 4  -5279507.988 4  23019187.079    23019185.925
 -10741281.81044  -8369829.11744  23007270.6484   23007270.3754
  -5460017.35244  -4254553.45344  24039908.0834   24039908.9554
 -23218256.17944 -18092138.80744  20307511.9864   20307511.1284
 -24307999.38244 -18941256.91044  20630158.4434   20630158.0074
 94  4 14  1 45  0.0000000  0  8G12G20G 4G13G 9G 6G 5G24
 -15578770.344 4 -12139297.394 4  21672180.955    21672179.406
 -10417193.58644  -8117290.30544  22074444.8434   22074444.5984
 -14633846.84544 -11402951.52044  22439495.8644   22439494.4994
  -6709901.121 4  -5228473.220 4  23031650.107    23031649.221
 -10652016.25044  -8300271.57944  23024256.6834   23024258.2074
  -5531418.84244  -4310190.89344  24026320.8574   24026321.0164
 -23242826.56744 -18111284.56244  20302836.3184   20302835.7334
 -24272406.37744 -18913522.09444  20636931.5694   20636931.4174
 94  4 14  1 45 30.0000000  0  8G12G20G 4G13G 9G 6G 5G24
 -15504428.134 4 -12081368.425 4  21686327.893    21686326.287
 -10500732.38044  -8182385.44444  22058547.7444   22058547.9294
 -14548319.48744 -11336306.82944  22455771.6554   22455770.8524
  -6644390.249 4  -5177425.778 4  23044116.431    23044115.443
 -10562519.12644  -8230533.60944  23041287.3044   23041288.2844
  -5602787.14444  -4365802.51444  24012739.4064   24012738.8034
 -23266911.55844 -18130052.08944  20298253.1364   20298252.4554
 -24236397.88644 -18885463.52344  20643783.6444   20643783.4544
 94  4 14  1 46  0.0000000  0  8G12G20G 4G13G 9G 6G 5G24
 -15429627.652 4 -12023082.359 4  21700562.019    21700560.393
 -10584000.71344  -8247269.85144  22042701.7934   22042702.1004
 -14462572.50044 -11269491.00244  22472088.4034   22472087.9454
  -6578872.926 4  -5126373.312 4  23056583.889    23056582.958
 -10472808.24244  -8160629.06444  23058359.2164   23058360.5724
  -5674127.98044  -4421392.68844  23999163.9784   23999164.3134
 -23290529.81144 -18148455.91744  20293758.6994   20293757.9154
 -24199968.15144 -18857076.71644  20650716.0864   20650715.5454
 94  4 14  1 46 30.0000000  0  8G20G12G 4G13G 9G 6G 5G24
 -10666989.73844  -8311936.60544  22026909.4324   22026910.1694
 -15354364.984 4 -11964436.148 4  21714883.911    21714882.378
 -14376606.35844 -11202504.39444  22488447.4194   22488447.1124
  -6513343.451 4  -5075311.384 4  23069053.786    23069052.718
 -10382900.76944  -8090571.33744  23075467.9994   23075468.2324
  -5745416.32344  -4476941.98944  23985598.0204   23985598.8524
 -23313672.00544 -18166488.78944  20289354.7814   20289354.0934
 -24163122.14144 -18828365.53744  20657727.4944   20657727.4824
 94  4 14  1 47  0.0000000  0  8G20G12G 4G13G 9G 6G 5G24
 -10749740.99144  -8376418.08144  22011163.0034   22011163.0054
 -15278686.743 4 -11905466.111 4  21729285.103    21729283.500
 -14290457.25044 -11135375.21744  22504841.5094   22504840.2504
  -6447846.611 4  -5024274.886 4  23081517.591    23081516.414
 -10292872.95144  -8020419.83444  23092599.7054   23092601.5074
  -5816680.12844  -4532472.16044  23972037.2914   23972039.2434
 -23336377.85344 -18184181.65644  20285034.0964   20285033.4424
 -24125910.61644 -18799369.53544  20664808.6364   20664808.5724
 94  4 14  1 47 30.0000000  0  8G20G12G 4G13G 9G 6G 5G24
 -10832548.05644  -8440943.04844  21995404.9404   21995405.7474
 -15202891.640 4 -11846405.017 4  21743708.483    21743706.915
 -14204424.23044 -11068336.50744  22521212.9464   22521212.1434
  -6382678.940 4  -4973494.888 4  23093918.531    23093917.383
 -10203033.45144  -7950415.06744  23109695.9064   23109696.7534
  -5888213.93144  -4588212.72544  23958424.8464   23958426.4794
 -23358936.15344 -18201759.55344  20280741.3764   20280740.6524
 -24088605.97244 -18770300.98044  20671907.4124   20671907.0484
 94  4 14  1 48  0.0000000  0  8G20G12G 4G13G 9G 6G 5G24
 -10915336.03144  -8505453.14144  21979650.4454   21979651.3024
 -15126909.654 4 -11787198.295 4  21758167.380    21758165.776
 -14118431.61544 -11001329.28144  22537576.1424   22537575.5884
  -6317768.525 4  -4922915.339 4  23106270.751    23106269.490
 -10113301.34244  -7880493.97444  23126770.8574   23126771.8934
  -5959952.43644  -4644112.78944  23944773.3344   23944773.5344
 -23381270.02844 -18219162.56644  20276491.5114   20276490.6014
 -24051126.27244 -18741096.01844  20679039.4234   20679039.0914
 94  4 14  1 48 30.0000000  0  8G20G12G 4G13G 9G 6G 5G24
 -10997226.22044  -8569263.66544  21964067.8894   21964068.2054
 -15049867.337 4 -11727165.352 4  21772827.969    21772826.402
 -14031608.96644 -10933675.27344  22554098.4784   22554097.5264
  -6252240.023 4  -4871854.172 4  23118740.122    23118739.135
 -10022809.40444  -7809980.83144  23143991.1504   23143991.9934
  -6031013.37344  -4699484.85644  23931250.4374   23931250.8684
 -23402492.01444 -18235699.17744  20272452.9774   20272452.2904
 -24012605.31544 -18711079.68544  20686369.9864   20686369.5844
 94  4 14  1 49  0.0000000  0  8G20G12G 4G13G 9G 6G 5G24
 -11078753.13844  -8632791.11944  21948553.8354   21948553.7834
 -14972304.347 4 -11666726.686 4  21787587.850    21787586.246
 -13944504.31644 -10865801.52844  22570673.9694   22570673.0124
  -6186630.964 4  -4820730.229 4  23131225.144    23131224.118
  -9932096.72344  -7739295.66844  23161253.3264   23161253.8574
  -6101942.45044  -4754754.21944  23917752.8664   23917753.7094
 -23423139.48644 -18251788.12144  20268524.0794   20268523.1694
 -23973575.90944 -18680667.15544  20693796.8104   20693796.8614
 94  4 14  1 49 30.0000000  0  8G20G12G 4G13G 9G 6G 5G24
 -11160069.63544  -8696154.60744  21933079.6054   21933080.2924
 -14894378.529 4 -11606005.297 4  21802416.668    21802415.074
 -13857291.28644 -10797843.34044  22587269.6664   22587268.8104
  -6121097.377 4  -4769665.097 4  23143695.774    23143694.642
  -9841299.02744  -7668544.25844  23178531.5174   23178532.9694
  -6172913.32244  -4810056.12744  23904247.9994   23904248.5424
 -23443364.93144 -18267548.20044  20264675.1934   20264674.3044
 -23934190.38344 -18649977.13144  20701291.7244   20701291.5334
 94  4 14  1 50  0.0000000  0  8G20G12G 4G13G 9G 6G 5G24
 -11241180.56144  -8759357.90944  21917644.3474   21917644.1754
 -14816100.204 4 -11545009.222 4  21817312.558    21817310.894
 -13769990.43744 -10729816.71144  22603882.5964   22603882.4384
  -6055647.209 4  -4718664.962 4  23156150.587    23156149.371
  -9750420.18344  -7597729.61944  23195824.8914   23195826.2314
  -6243922.15544  -4865387.60544  23890735.3444   23890735.3934
 -23463186.93444 -18282993.91744  20260903.0954   20260902.3564
 -23894473.01744 -18619028.53544  20708849.6094   20708849.2664
 94  4 14  1 50 30.0000000  0  7G12G 4G13G 9G 6G 5G24
 -14737374.981 4 -11483664.919 4  21832293.581    21832291.925
 -13682509.77944 -10661649.97244  22620529.7694   22620529.1644
  -5990184.256 4  -4667654.867 4  23168607.661    23168606.540
  -9659373.73644  -7526784.37044  23213150.6894   23213152.0774
  -6314853.15144  -4920658.44444  23877237.5344   23877237.9524
 -23482501.75344 -18298044.42444  20257227.6884   20257226.8094
 -23854332.51544 -18587750.22044  20716487.6744   20716487.9094
 94  4 14  1 51  0.0000000  0  7G12G 4G13G 9G 6G 5G24
 -14658248.968 4 -11422008.314 4  21847350.700    21847349.006
 -13594882.17944 -10593368.72744  22637204.7814   22637203.7264
  -5924752.340 4  -4616668.957 4  23181059.041    23181057.974
  -9568192.43944  -7455734.05944  23230502.5214   23230504.9574
  -6385753.81044  -4975905.64444  23863745.4344   23863747.2844
 -23501357.28944 -18312737.04744  20253639.4744   20253638.8044
 -23813808.73644 -18556173.24244  20724199.4784   20724199.4814
 94  4 14  1 51 30.0000000  0  7G12G 4G13G 9G 6G 5G24
 -14578708.046 4 -11360028.400 4  21862486.921    21862485.173
 -13507074.12744 -10524946.87944  22653913.4894   22653912.6644
  -5859335.325 4  -4565694.662 4  23193507.362    23193506.327
  -9476854.69144  -7384561.82344  23247882.8794   23247883.9464
  -6456601.21444  -5031111.34244  23850262.8954   23850263.5194
 -23519741.32444 -18327062.26544  20250141.3164   20250140.5154
 -23772891.86544 -18524289.96544  20731985.7124   20731985.4304
 94  4 14  1 52  0.0000000  0  7G12G 4G13G 6G 9G 5G24
 -14498768.566 4 -11297737.925 4  21877698.921    21877697.152
 -13419092.07844 -10456389.44344  22670656.5384   22670655.9654
  -5793947.252 4  -4514742.923 4  23205950.365    23205949.250
  -6527398.10244  -5086277.66544  23836790.9374   23836790.6364
  -9385389.41944  -7313290.21744  23265287.8464   23265289.0254
 -23537671.49744 -18341033.82444  20246729.2104   20246728.4584
 -23731620.61444 -18492130.54744  20739839.2244   20739838.8934
 94  4 14  1 52 30.0000000  0  7G12G 4G13G 6G 9G 5G24
 -14418427.207 4 -11235134.292 4  21892987.380    21892985.684
 -13330923.07944 -10387686.33544  22687435.1644   22687434.0674
  -5728582.647 4  -4463809.472 4  23218388.806    23218387.776
  -6598155.08844  -5141412.92244  23823326.6024   23823326.2534
  -9293801.76944  -7241923.25744  23282716.6524   23282718.4614
 -23555133.87744 -18354640.87244  20243406.2524   20243405.3774
 -23689992.08944 -18459692.73144  20747761.0784   20747760.9044
 94  4 14  1 53  0.0000000  0  7G12G 4G13G 6G 9G 5G24
 -14337708.897 4 -11172236.930 4  21908347.537    21908345.909
 -13242599.75044 -10318862.97044  22704242.3624   22704241.2504
  -5663264.311 4  -4412912.084 4  23230818.651    23230817.544
  -6668915.69544  -5196550.98944  23809861.1094   23809862.5804
  -9202111.36644  -7170476.21744  23300165.6024   23300166.1354
 -23572149.43844 -18367899.74844  20240168.1674   20240167.3744
 -23648031.92944 -18426996.49444  20755745.6674   20755745.4974
 94  4 14  1 53 30.0000000  0  7G12G 4G13G 6G 9G 5G24
 -14256592.857 4 -11109029.647 4  21923783.428    21923781.718
 -13154126.30044 -10249922.62844  22721077.4104   22721076.3044
  -5597969.361 4  -4362032.916 4  23243243.660    23243242.796
  -6739668.26844  -5251682.80144  23796396.8024   23796398.5974
  -9110308.62844  -7098941.66544  23317634.8594   23317636.3134
 -23588685.41844 -18380784.92244  20237021.6304   20237020.6994
 -23605723.22144 -18394028.66844  20763796.7684   20763796.3494
 94  4 14  1 54  0.0000000  0  7G12G 4G13G 6G 9G 5G24
 -14175091.222 4 -11045521.904 4  21939292.713    21939291.086
 -13065526.34944 -10180883.72244  22737938.0824   22737937.0254
  -5532707.429 4  -4311179.487 4  23255662.676    23255661.556
  -6810426.75344  -5306819.20244  23782932.0914   23782933.6154
  -9018418.45044  -7027338.98344  23335120.5534   23335120.8814
 -23604733.96744 -18393290.28144  20233967.5034   20233966.8084
 -23563061.62644 -18360785.86644  20771915.1474   20771914.9424
 94  4 14  1 54 30.0000000  0  7G12G 4G13G 6G 9G 5G24
 -14093209.650 4 -10981718.110 4  21954874.156    21954872.528
 -12976799.27144 -10111745.76144  22754822.1904   22754821.5884
  -5467482.072 4  -4260354.551 4  23268074.499    23268073.569
  -6881190.18244  -5361959.47844  23769466.2814   23769467.8564
  -8926449.34844  -6955674.78244  23352622.3844   23352623.7074
 -23620279.89944 -18405403.99344  20231009.3254   20231008.7154
 -23520026.68144 -18327252.13644  20780104.3504   20780104.3434
 94  4 14  1 55  0.0000000  0  7G12G 4G13G 6G 9G 5G24
 -14010938.324 4 -10917610.602 4  21970529.947    21970528.327
 -12887942.59844 -10042506.79944  22771731.0624   22771730.6964
  -5402281.203 4  -4209548.704 4  23280481.945    23280480.888
  -6951946.58844  -5417094.27744  23756001.8274   23756001.6554
  -8834391.07344  -6883941.11044  23370140.3304   23370141.5934
 -23635303.19144 -18417110.44944  20228150.5664   20228149.6274
 -23476615.63044 -18293425.33944  20788365.1984   20788364.8364
 94  4 14  1 55 30.0000000  0  7G12G 4G13G 6G 9G 5G24
 -13928256.556 4 -10853183.272 4  21986263.830    21986262.162
 -12798925.04444  -9973142.49044  22788670.1624   22788669.5434
  -5337081.711 4  -4158743.937 4  23292889.156    23292888.058
  -7022656.19744  -5472192.61344  23742546.4394   23742546.6254
  -8742229.51844  -6812126.95244  23387677.9964   23387678.8004
 -23649784.10044 -18428394.26844  20225394.6544   20225393.9824
 -23432808.85244 -18259290.18844  20796701.3724   20796700.8784
 94  4 14  1 56  0.0000000  0  7G12G 4G13G 6G 9G 5G24
 -13845164.563 4 -10788436.281 4  22002075.815    22002074.103
 -12709722.32944  -9903633.88544  22805645.2544   22805644.9934
  -5271881.380 4  -4107938.512 4  23305296.260    23305295.159
  -7093303.36844  -5527242.28044  23729102.3444   23729101.7564
  -8649957.50844  -6740226.74044  23405236.8494   23405238.0124
 -23663728.29244 -18439259.87144  20222741.5084   20222740.6544
 -23388611.12144 -18224850.39344  20805111.8524   20805111.8194
 94  4 14  1 56 30.0000000  0  7G12G 4G13G 6G 9G 5G24
 -13761665.780 4 -10723372.313 4  22017965.046    22017963.392
 -12620344.97644  -9833989.21244  22822652.6684   22822651.3204
  -5206681.325 4  -4057133.300 4  23317703.652    23317702.391
  -7163894.21444  -5582248.08544  23715669.8254   23715670.4434
  -8557562.34244  -6668230.56644  23422819.3214   23422819.7884
 -23677153.70644 -18449721.22544  20220186.5414   20220185.6564
 -23344045.50944 -18190123.93744  20813592.4884   20813592.2314
 94  4 14  1 57  0.0000000  0  7G12G 4G13G 6G 9G 5G24
 -13677763.326 4 -10657993.807 4  22033931.148    22033929.465
 -12530808.36344  -9764220.44344  22839691.5864   22839690.0474
  -5141482.387 4  -4006328.959 4  23330110.446    23330109.344
  -7234438.04044  -5637217.25244  23702245.5994   23702245.3474
  -8465032.52144  -6596129.45144  23440426.9524   23440428.9624
 -23690080.46444 -18459794.01844  20217726.7274   20217725.8844
 -23299114.51844 -18155112.77744  20822142.4434   20822142.0314
 94  4 14  1 57 30.0000000  0  7G12G 4G13G 6G 9G 5G24
 -13593467.754 4 -10592308.967 4  22049971.993    22049970.464
 -12441110.96344  -9694326.37444  22856760.6384   22856759.8244
  -5076292.804 4  -3955531.907 4  23342515.647    23342514.548
  -7304931.65644  -5692147.28744  23688830.8704   23688832.4444
  -8372376.08944  -6523929.68144  23458058.6254   23458059.7944
 -23702516.93244 -18469484.77044  20215360.0814   20215359.2024
 -23253802.10044 -18119804.39744  20830765.1324   20830765.0374
 94  4 14  1 58  0.0000000  0  7G12G 4G13G 6G 9G 5G24
 -13508788.207 4 -10526324.928 4  22066086.074    22066084.345
 -12351262.29644  -9624314.43844  22873857.8264   22873858.0534
  -5011118.976 4  -3904747.127 4  23354917.893    23354916.757
  -7375389.68044  -5747049.59244  23675422.8344   23675423.6064
  -8279607.23044  -6451642.30444  23475712.7024   23475712.3134
 -23714464.35244 -18478794.44444  20213086.5724   20213085.7424
 -23208099.63844 -18084192.08544  20839462.2254   20839462.1174
 94  4 14  1 58 30.0000000  0  7G12G 4G13G 6G 9G 5G24
 -13423728.833 4 -10460044.919 4  22082272.410    22082270.671
 -12261277.85644  -9554196.70744  22890980.7274   22890981.3044
  -4945962.812 4  -3853976.119 4  23367316.588    23367315.568
  -7445821.40844  -5801931.39744  23662020.4274   23662020.4024
  -8186736.75844  -6379275.74744  23493385.3624   23493386.0174
 -23725913.05544 -18487715.50644  20210907.9894   20210907.0674
 -23161998.67244 -18048269.25444  20848234.7454   20848234.3954
 94  4 14  1 59  0.0000000  0  7G12G 4G13G 6G 9G 5G24
 -13338294.992 4 -10393473.115 4  22098529.886    22098528.154
 -12171145.90344  -9483964.04644  22908132.9164   22908131.1634
  -4880827.150 4  -3803221.089 4  23379711.625    23379710.458
  -7516225.93544  -5856792.01844  23648622.9934   23648623.5604
  -8093778.55344  -6306840.80944  23511074.6714   23511077.1384
 -23736851.08244 -18496238.64144  20208826.5494   20208825.6994
 -23115492.34844 -18012030.55644  20857084.4754   20857084.1574
 94  4 14  1 59 30.0000000  0  7G12G 4G13G 6G 9G 5G24
 -13252509.385 4 -10326627.214 4  22114854.396    22114852.737
 -12080883.15844  -9413629.45344  22925309.9904   22925307.8034
  -4815732.220 4  -3752497.795 4  23392098.886    23392097.689
  -7586621.99244  -5911646.03244  23635226.8704   23635227.1784
  -8000771.78444  -6234368.06044  23528773.2654   23528773.8264
 -23747280.09944 -18504365.14344  20206842.0384   20206841.1844
 -23068618.40044 -17975505.40044  20866004.6884   20866004.4014
 94  4 14  2  0  0.0000000  0  7G12G 4G13G 6G 9G 5G24
 -13166362.326 4 -10259499.656 4  22131247.497    22131245.945
 -11990487.27144  -9343191.12044  22942510.9644   22942509.4384
  -4750665.827 4  -3701796.733 4  23404480.519    23404479.245
  -7657009.20444  -5966493.15944  23621832.3164   23621833.4234
  -7907703.12444  -6161847.05544  23546482.7094   23546484.4624
 -23757186.38444 -18512084.32044  20204956.6924   20204956.0164
 -23021392.66444 -17938706.11744  20874990.8414   20874991.0334
 94  4 14  2  0 30.0000000  0  7G12G 4G13G 6G 9G 5G24
 -13079841.521 4 -10192080.866 4  22147712.036    22147710.259
 -11899942.79244  -9272636.99644  22959740.8834   22959740.1444
  -4685613.219 4  -3651106.408 4  23416859.549    23416858.513
  -7727368.44644  -6021318.47344  23608443.7754   23608444.6484
  -7814540.68844  -6089253.02244  23564211.0994   23564209.9694
 -23766557.17244 -18519386.22644  20203173.7384   20203172.7654
 -22973825.36644 -17901640.68244  20884042.8774   20884042.4904
 94  4 14  2  1  0.0000000  0  7G12G 4G13G 6G 9G 5G24
 -12992953.654 4 -10124376.048 4  22164246.195    22164244.548
 -11809244.43244  -9201962.96744  22977000.4734   22976999.4874
  -4620578.480 4  -3600430.006 4  23429235.198    23429234.249
  -7797690.92444  -6076115.16044  23595061.4654   23595063.0744
  -7721282.01144  -6016583.96344  23581957.7864   23581960.6664
 -23775396.56044 -18526274.05444  20201491.4934   20201490.7194
 -22925925.74844 -17864316.30644  20893158.3734   20893157.7344
 94  4 14  2  1 30.0000000  0  7G12G13G 6G 4G 9G 5G24
 -12905695.200 4 -10056382.475 4  22180851.003    22180849.365
  -4555555.408 4  -3549762.698 4  23441608.684    23441607.768
  -7867959.31544  -6130869.72144  23581690.3934   23581690.5194
 -11718397.29344  -9131173.00244  22994288.4514   22994287.9524
  -7627922.03244  -5943835.97544  23599724.3734   23599727.0594
 -23783703.46344 -18532746.97044  20199910.7524   20199910.0774
 -22877683.77844 -17826725.16244  20902337.9074   20902337.9734
 94  4 14  2  2  0.0000000  0  7G12G 4G13G 6G 9G 5G24
 -12818069.333 4  -9988102.599 4  22197525.650    22197523.997
 -11627395.90444  -9060262.85544  23011604.7814   23011604.8374
  -4490544.585 4  -3499104.928 4  23453980.098    23453978.858
  -7938166.25244  -6185576.37844  23568330.3684   23568330.8474
  -7534455.45744  -5871004.92644  23617510.7884   23617511.1344
 -23791493.93844 -18538817.46844  20198428.2924   20198427.3704
 -22829095.65144 -17788864.27644  20911584.0364   20911584.0834
 94  4 14  2  2 30.0000000  0  7G12G 4G13G 6G 9G 5G24
 -12730098.645 4  -9919554.036 4  22214265.938    22214264.200
 -11536260.25644  -8989248.07244  23028947.3694   23028946.1284
  -4425566.112 4  -3448472.370 4  23466345.035    23466343.895
  -8008312.97244  -6240236.11444  23554981.7144   23554981.7134
  -7440910.58244  -5798112.86844  23635311.0624   23635311.3674
 -23798793.50244 -18544505.43644  20197039.1514   20197038.4524
 -22780169.06844 -17750739.66444  20920894.7774   20920894.1484
 94  4 14  2  3  0.0000000  0  7G12G 4G13G 6G 9G 5G24
 -12641811.066 4  -9850758.546 4  22231066.436    22231064.822
 -11445022.88644  -8918154.04244  23046310.5434   23046309.3244
  -4360645.314 4  -3397884.764 4  23478699.136    23478697.978
  -8078425.76844  -6294869.41844  23541639.8744   23541640.0784
  -7347328.48744  -5725191.78644  23653119.3454   23653120.6584
 -23805623.58344 -18549827.57844  20195739.5654   20195738.9214
 -22730916.95644 -17712361.39844  20930266.6964   20930266.3934
 94  4 14  2  3 30.0000000  0  7G12G 4G13G 6G 9G 5G24
 -12553201.332 4  -9781712.025 4  22247928.406    22247926.782
 -11353692.24644  -8846987.33144  23063689.5444   23063687.9584
  -4295774.141 4  -3347335.818 4  23491043.597    23491042.519
  -8148508.91544  -6349479.62044  23528303.2074   23528302.5264
  -7253711.37044  -5652243.43144  23670933.6484   23670934.8214
 -23811988.52144 -18554787.27544  20194528.3604   20194527.6114
 -22681341.14144 -17673730.89244  20939700.7874   20939700.8024
 94  4 14  2  4  0.0000000  0  7G12G 4G13G 6G 9G 5G24
 -12464266.911 4  -9712412.510 4  22264852.154    22264850.499
 -11262266.08344  -8775746.18044  23081086.8214   23081085.3624
  -4230947.601 4  -3296821.652 4  23503379.957    23503378.536
  -8218577.42144  -6404078.39544  23514969.1174   23514969.1324
  -7160054.70944  -5579264.25444  23688755.8934   23688757.7674
 -23817877.30944 -18559375.93844  20193407.7204   20193406.8214
 -22631448.10044 -17634853.19244  20949195.2644   20949195.0884
 94  4 14  2  4 30.0000000  0  7G12G 4G13G 6G 9G 5G24
 -12374998.651 4  -9642852.853 4  22281839.419    22281837.705
 -11170749.58244  -8704434.64944  23098501.5394   23098500.5664
  -4166153.586 4  -3246332.825 4  23515709.776    23515708.620
  -8288626.01544  -6458661.66444  23501639.6294   23501639.4304
  -7066351.34144  -5506248.68544  23706587.3444   23706589.1154
 -23823257.09144 -18563567.97644  20192383.9314   20192383.2474
 -22581226.89444 -17595719.78144  20958751.8754   20958751.5614
 94  4 14  2  5  0.0000000  0  7G12G 4G13G 6G 9G 5G24
 -12285396.720 4  -9573033.192 4  22298890.169    22298888.343
 -11079144.53344  -8633054.12244  23115933.3904   23115932.8574
  -4101389.717 4  -3195867.510 4  23528033.917    23528032.732
  -8358673.28544  -6513243.91044  23488309.3254   23488309.7624
  -6972605.13244  -5433199.71744  23724426.8914   23724429.7424
 -23828127.50444 -18567363.10844  20191457.1274   20191456.3874
 -22530682.87944 -17556334.83744  20968370.1184   20968369.9614
 94  4 14  2  5 30.0000000  0  7G12G 4G13G 6G 9G 5G24
 -12195447.844 4  -9502943.182 4  22316006.850    22316005.082
 -10987431.07044  -8561589.11544  23133386.6444   23133386.7444
  -4036640.094 4  -3145413.289 4  23540355.337    23540354.274
  -8428703.78844  -6567813.07544  23474982.7674   23474982.6494
  -6878811.22444  -5360113.58644  23742275.1194   23742276.8764
 -23832469.58344 -18570746.54644  20190630.7264   20190629.9314
 -22479806.88044 -17516691.19944  20978051.5594   20978051.6404
 94  4 14  2  6  0.0000000  0  7G24G12G 4G13G 6G 9G 5
 -22428599.04644 -17476788.98844  20987796.2254   20987795.8494
 -12105156.585 4  -9432586.382 4  22333188.636    22333186.956
 -10895593.21044  -8490027.17344  23150862.9584   23150861.7944
  -3971906.365 4  -3094971.443 4  23552673.854    23552672.792
  -8498712.19944  -6622365.02744  23461661.3034   23461662.2484
  -6784978.14844  -5286996.93644  23760131.9854   23760133.4644
 -23836269.46644 -18573707.49444  20189907.8474   20189907.1024
 94  4 14  2  6 30.0000000  0  7G24G12G 4G13G 6G 9G 5
 -22377053.68144 -17436623.76944  20997604.8864   20997604.3524
 -12014521.981 4  -9361962.041 4  22350435.926    22350434.166
 -10803625.17844  -8418363.78544  23168363.9824   23168363.4674
  -3907184.973 4  -3044539.200 4  23564989.853    23564988.871
  -8568681.37844  -6676886.43544  23448346.0764   23448345.9544
  -6691111.47644  -5213854.13644  23777993.7434   23777997.0974
 -23839525.28544 -18576244.49344  20189288.1864   20189287.3644
 94  4 14  2  7  0.0000000  0  7G24G12G13G 6G 4G 9G 5
 -22325186.06544 -17396207.44444  21007474.8374   21007474.6604
 -11923567.971 4  -9291088.812 4  22367743.855    22367742.077
  -3842496.940 4  -2994132.950 4  23577299.685    23577298.355
  -8638627.96144  -6731390.28644  23435035.9614   23435035.6174
 -10711539.74044  -8346608.93144  23185887.1734   23185885.3094
  -6597233.71844  -5140702.67744  23795857.6434   23795858.5614
 -23842263.69544 -18578378.32244  20188767.0394   20188766.2724
 94  4 14  2  7 30.0000000  0  7G24G12G13G 6G 4G 9G 5
 -22272980.28244 -17355527.61144  21017409.5684   21017409.3844
 -11832278.645 4  -9219954.301 4  22385115.696    22385113.903
  -3777823.524 4  -2943738.112 4  23589606.630    23589605.347
  -8708528.44444  -6785858.03344  23421734.9664   23421737.8364
 -10619318.73344  -8274748.41544  23203435.7584   23203434.4484
  -6503316.76544  -5067520.68044  23813729.7734   23813730.6604
 -23844443.63644 -18580076.97944  20188352.3434   20188351.5244
 94  4 14  2  8  0.0000000  0  7G24G12G13G 6G 4G 9G 5
 -22220448.14844 -17314593.48244  21027406.1644   21027405.7264
 -11740665.057 4  -9148567.118 4  22402549.280    22402547.401
  -3713173.250 4  -2893361.291 4  23601909.246    23601907.886
  -8778394.29444  -6840298.94944  23408439.1134   23408440.3094
 -10526992.06644  -8202805.59444  23221004.6714   23221004.1134
  -6409356.50444  -4994304.94444  23831610.0024   23831612.5594
 -23846076.55744 -18581349.38344  20188041.5594   20188040.7914
 94  4 14  2  8 30.0000000  0  7G24G12G13G 6G 4G 9G 5
 -22167594.31244 -17273408.67544  21037463.6534   21037463.2814
 -11648728.643 4  -9076928.375 4  22420044.148    22420042.245
  -3648544.525 4  -2843001.263 4  23614207.624    23614206.416
  -8848236.04444  -6894721.05644  23395149.0914   23395149.9864
 -10434577.99444  -8130794.64844  23238591.1654   23238589.7954
  -6315338.53844  -4921044.24144  23849500.4164   23849500.4354
 -23847165.62444 -18582198.00844  20187834.3294   20187833.5124
 94  4 14  2  9  0.0000000  0  7G24G12G13G 6G 4G 9G 5
 -22114419.98844 -17231974.13444  21047582.5594   21047582.0414
 -11556464.878 4  -9005034.563 4  22437601.329    22437599.515
  -3583930.001 4  -2792652.304 4  23626503.290    23626502.345
  -8918053.03244  -6949123.85644  23381862.6884   23381861.6384
 -10342068.90744  -8058709.68344  23256195.4444   23256195.0634
  -6221255.11544  -4847732.55144  23867404.6204   23867405.3894
 -23847708.83844 -18582621.29744  20187730.9744   20187730.2954
 94  4 14  2  9 30.0000000  0  7G24G12G13G 6G 4G 9G 5
 -22060947.08244 -17190306.93444  21057757.9764   21057757.8144
 -11463887.402 4  -8932896.290 4  22455218.179    22455216.438
  -3519340.339 4  -2742322.722 4  23638794.422    23638793.372
  -8987855.69144  -7003515.49344  23368579.5704   23368580.5044
 -10249476.32744  -7986559.62544  23273814.3334   23273814.2384
  -6127127.25844  -4774386.20644  23885316.1014   23885317.7624
 -23847723.87944 -18582633.01844  20187728.1434   20187727.2244
 94  4 14  2 10  0.0000000  0  7G24G12G13G 6G 4G 9G 5
 -22007154.97044 -17148391.00244  21067994.1774   21067993.7184
 -11370986.653 4  -8860506.120 4  22472896.731    22472894.876
  -3454763.387 4  -2692003.031 4  23651082.960    23651082.061
  -9057614.00544  -7057872.59144  23355305.4014   23355305.8624
 -10156781.93844  -7914330.27744  23291452.7164   23291451.6314
  -6032958.32644  -4701007.83344  23903236.3494   23903236.5454
 -23847222.60944 -18582242.41744  20187823.4704   20187822.5684
 94  4 14  2 10 30.0000000  0  7G24G12G13G 6G 4G 9G 5
 -21953048.89444 -17106230.42444  21078290.4394   21078289.7134
 -11277776.284 4  -8787874.690 4  22490634.135    22490632.364
  -3390209.719 4  -2641701.495 4  23663367.010    23663366.113
  -9127326.38544  -7112193.88044  23342039.8704   23342040.5284
 -10063976.98244  -7842014.73944  23309113.9134   23309112.3724
  -5938768.11644  -4627612.94444  23921159.1964   23921162.9834
 -23846210.16044 -18581453.49944  20188016.0874   20188015.3194
 94  4 14  2 11  0.0000000  0  7G24G12G13G 6G 4G 9G 5
 -21898624.80444 -17063822.04544  21088646.8564   21088646.5164
 -11184268.014 4  -8715011.129 4  22508428.096    22508426.365
  -3325688.236 4  -2591425.037 4  23675644.961    23675644.100
  -9196981.02144  -7166470.17744  23328784.5624   23328784.9034
  -9971060.46744  -7769612.30244  23326795.9294   23326793.4914
  -5844588.16244  -4554225.97244  23939081.0854   23939082.3274
 -23844695.48544 -18580273.23544  20188304.4404   20188303.5794
 94  4 14  2 11 30.0000000  0  7G24G12G13G 6G 4G 9G 5
 -21843884.37344 -17021167.16044  21099063.4574   21099063.6014
 -11090467.509 4  -8641919.856 4  22526277.883    22526275.990
  -3261201.555 4  -2541175.700 4  23687916.606    23687915.484
  -9266568.39544  -7220694.06044  23315543.0144   23315543.5584
  -9878043.24644  -7697131.37244  23344496.6344   23344495.7094
  -5750422.01244  -4480849.79244  23957001.0484   23957000.9414
 -23842673.89444 -18578697.97044  20188688.9614   20188688.1054
 94  4 14  2 12  0.0000000  0  7G24G12G 6G13G 4G 9G 5
 -21788835.57844 -16978271.99544  21109539.3314   21109538.4374
 -10996378.276 4  -8568603.597 4  22544182.461    22544180.645
  -9336101.77144  -7274875.86944  23302310.5194   23302311.5054
  -3196750.364 4  -2490954.014 4  23700181.102    23700180.133
  -9784935.65044  -7624580.02444  23362214.2214   23362214.4764
  -5656251.76544  -4407470.47244  23974920.8634   23974923.6194
 -23840138.54644 -18576722.37544  20189171.6164   20189170.8634
 94  4 14  2 12 30.0000000  0  7G24G12G 6G13G 4G 9G 5
 -21733495.21344 -16935149.63744  21120070.0214   21120069.4614
 -10902002.502 4  -8495064.060 4  22562141.611    22562139.772
  -9405600.59844  -7329030.75044  23289085.3644   23289086.2434
  -3132333.827 4  -2440759.339 4  23712439.428    23712438.172
  -9691754.42944  -7551971.29944  23379945.5044   23379946.6424
  -5562078.20044  -4334088.46444  23992841.8284   23992844.7764
 -23837072.97044 -18574333.61544  20189754.8444   20189754.0514
 94  4 14  2 13  0.0000000  0  7G24G12G 6G13G 4G 9G 5
 -21677868.34944 -16891804.03044  21130655.0184   21130655.2314
 -10807344.670 4  -8421304.740 4  22580154.323    22580152.500
  -9475073.32744  -7383165.31444  23275865.8834   23275865.8394
  -3067953.505 4  -2390592.877 4  23724690.518    23724689.315
  -9598513.36144  -7479315.94944  23397688.7874   23397688.4004
  -5467910.67044  -4260711.24544  24010761.8034   24010763.1124
 -23833474.08844 -18571529.29944  20190439.7244   20190438.9094
 94  4 14  2 13 30.0000000  0  7G24G12G 6G13G 4G 9G 5
 -21621964.86444 -16848242.87144  21141293.5184   21141293.2734
 -10712410.554 4  -8347330.125 4  22598219.774    22598217.863
  -9544529.07444  -7437286.64444  23262648.7594   23262648.8474
  -3003612.162 4  -2340456.787 4  23736934.281    23736933.054
  -9505226.66844  -7406625.06344  23415441.7054   23415441.1344
  -5373732.01744  -4187325.31744  24028683.0364   24028683.1984
 -23829338.97544 -18568307.13344  20191226.7234   20191225.9644
 94  4 14  2 14  0.0000000  0  7G24G12G 6G13G 4G 9G 5
 -21565762.63644 -16804448.93044  21151988.3294   21151987.6964
 -10617192.014 4  -8273133.882 4  22616339.325    22616337.482
  -9613959.88844  -7491388.54244  23249435.9764   23249435.7344
  -2939298.825 4  -2290342.520 4  23749172.742    23749171.525
  -9411879.00044  -7333886.65144  23433205.2384   23433204.4204
  -5279535.74844  -4113925.68944  24046607.7884   24046609.1744
 -23824652.44444 -18564655.29344  20192118.4514   20192117.7204
 94  4 14  2 14 30.0000000  0  7G24G12G 6G13G 4G 9G 5
 -21509253.27344 -16760415.66044  21162741.5414   21162741.0474
 -10521698.414 4  -8198723.302 4  22634511.160    22634509.235
  -9683350.72144  -7545459.28944  23236231.6074   23236230.0284
  -2875019.622 4  -2240254.828 4  23761404.704    23761403.459
  -9318472.40144  -7261102.32444  23450978.4814   23450977.0474
  -5185347.89144  -4040532.57444  24064530.7884   24064535.3574
 -23819417.61644 -18560576.20544  20193114.5764   20193114.0264
 94  4 14  2 15  0.0000000  0  7G24G12G 6G 4G13G 9G 5
 -21452419.49444 -16716129.60744  21173556.6174   21173556.2524
 -10425920.903 4  -8124091.517 4  22652737.004    22652735.145
  -9752683.73944  -7599484.97444  23223037.8684   23223037.7384
  -9224984.18744  -7188254.39544  23468769.0564   23468770.3444
  -2810762.734 4  -2190184.557 4  23773632.508    23773631.054
  -5091141.83144  -3967125.29644  24082457.6784   24082461.1324
 -23813623.73344 -18556061.50344  20194217.0974   20194216.4874
 94  4 14  2 15 30.0000000  0  7G24G12G 6G 4G13G 9G 5
 -21395281.07544 -16671606.16444  21184429.9904   21184429.8444
 -10329868.725 4  -8049245.686 4  22671015.137    22671013.369
  -9821969.66644  -7653473.98344  23209853.0984   23209852.8844
  -9131415.51444  -7115343.77044  23486575.2374   23486574.7184
  -2746534.401 4  -2140136.521 4  23785854.726    23785853.341
  -4996924.88544  -3893709.55644  24100386.9214   24100387.1254
 -23807285.96544 -18551122.98744  20195423.1664   20195422.2794
 94  4 14  2 16  0.0000000  0  7G24G12G 6G13G 4G 9G 5
 -21337859.58944 -16626862.15144  21195356.5804   21195356.3174
 -10233553.157 4  -7974194.618 4  22689343.483    22689341.533
  -9891231.38144  -7707444.10344  23196673.2754   23196672.6584
  -2682342.756 4  -2090117.077 4  23798069.817    23798068.702
  -9037785.94844  -7042385.69744  23504392.3004   23504392.0404
  -4902726.08444  -3820307.92144  24118312.1654   24118313.9604
 -23800412.96244 -18545767.40244  20196730.9664   20196730.0434
 94  4 14  2 16 30.0000000  0  6G24G 6G 4G13G 9G 5
 -21280172.38944 -16581911.08844  21206334.2224   21206333.9064
  -9960467.25844  -7761394.11244  23183497.8014   23183497.2514
  -8944100.95144  -6969384.40444  23522219.6584   23522218.6844
  -2618187.033 4  -2040125.617 4  23810278.360    23810277.104
  -4808549.35944  -3746923.51244  24136233.5064   24136232.8394
 -23793011.24444 -18539999.83744  20198139.6434   20198138.7514
 94  4 14  2 17  0.0000000  0  7G24G 6G 4G13G 9G17G 5
 -21222198.37644 -16536736.54244  21217366.3494   21217365.5954
 -10029658.43644  -7815309.26844  23170331.1544   23170331.8894
  -8850327.90144  -6896314.53044  23540064.0764   23540062.4974
  -2554037.567 4  -1990139.042 4  23822485.528    23822484.445
  -4714372.81844  -3673539.22744  24154155.3354   24154158.5634
        -1.15654        -0.21854  25466869.4304   25466874.4614
 -23785059.38344 -18533803.58744  20199652.9254   20199651.9694
 94  4 14  2 17 30.0000000  0  7G24G 6G 4G13G 9G17G 5
 -21163949.80044 -16491348.04544  21228450.8874   21228450.3944
 -10098807.98444  -7869192.01444  23157172.8834   23157172.8524
  -8756485.00344  -6823190.21344  23557922.1824   23557920.7184
  -2489906.553 4  -1940166.822 4  23834689.197    23834688.200
  -4620233.72544  -3600184.16444  24172069.2174   24172070.3184
   -102679.03644    -80008.75244  25447330.4794   25447330.8864
 -23776578.25544 -18527194.91844  20201266.7234   20201265.6554
 94  4 14  2 18  0.0000000  0  7G24G 6G 4G13G 9G17G 5
 -21105431.28544 -16445749.20744  21239586.3014   21239586.2914
 -10167917.01944  -7923043.17244  23144021.1944   23144022.0224
  -8662585.28344  -6750021.60644  23575790.8634   23575790.6024
  -2425805.414 4  -1890217.888 4  23846887.214    23846886.243
  -4526139.80044  -3526864.22744  24189974.3044   24189975.1144
   -205234.62944   -159922.01344  25427814.4734   25427819.8914
 -23767578.90844 -18520182.44144  20202979.3504   20202978.3064
 94  4 14  2 18 30.0000000  0  7G24G 6G 4G13G 9G17G 5
 -21046904.52244 -16400143.93844  21250723.5424   21250723.5554
 -10237245.90044  -7977065.63944  23130828.8604   23130828.2784
  -8568864.79144  -6676992.68244  23593624.8604   23593625.1054
  -2362001.292 4  -1840500.402 4  23859028.873    23859027.687
  -4432351.75244  -3453782.67844  24207821.2594   24207821.2854
   -307920.88344   -239937.08744  25408274.4444   25408277.5224
 -23758338.61444 -18512982.21844  20204737.6204   20204736.8484
 94  4 14  2 19  0.0000000  0  7G24G 6G 4G13G 9G17G 5
 -20988379.97244 -16354540.39744  21261860.9134   21261860.6904
 -10306818.87844  -8031278.31944  23117589.2824   23117588.5084
  -8475335.47744  -6604112.71744  23611423.0874   23611423.5414
  -2298505.600 4  -1791023.236 4  23871111.742    23871110.511
  -4338879.38344  -3380947.11644  24225608.8554   24225610.6574
   -410746.39644   -320060.65044  25388706.5574   25388707.8954
 -23748859.61844 -18505595.99544  20206541.4514   20206540.5624
 94  4 14  2 19 30.0000000  0  7G24G 6G 4G13G 9G17G 5
 -20928917.68844 -16308206.15844  21273176.0214   21273175.4874
 -10375691.46444  -8084945.23844  23104483.0294   23104483.2224
  -8381069.47944  -6530658.72244  23629361.8414   23629361.2634
  -2234376.600 4  -1741052.589 4  23883315.053    23883313.879
  -4244767.70944  -3307613.41244  24243517.7784   24243520.0784
   -512812.30344   -399592.40844  25369284.2624   25369287.3524
 -23738191.43544 -18497283.12444  20208571.4964   20208570.6084
 94  4 14  2 20  0.0000000  0  7G24G 6G 4G13G 9G17G 5
 -20869121.73744 -16261611.91544  21284554.5384   21284554.0384
 -10444479.54144  -8138546.28744  23091393.2944   23091394.0894
  -8286671.94744  -6457102.20544  23647325.3324   23647325.1844
  -2170220.380 4  -1691060.728 4  23895523.639    23895522.215
  -4150607.75944  -3234242.05344  24261435.7414   24261436.3814
   -614746.75344   -479021.68244  25349885.7704   25349889.5834
 -23726927.45944 -18488506.00344  20210714.9134   20210714.1414
 94  4 14  2 20 30.0000000  0  7G24G 6G13G 4G 9G17G 5
 -20809098.26144 -16214840.38144  21295976.9214   21295976.7784
 -10513276.26144  -8192154.10744  23078301.5194   23078301.7864
  -2106133.959 4  -1641123.264 4  23907718.873    23907717.566
  -8192258.84944  -6383533.56444  23665291.6044   23665291.5204
  -4056501.58144  -3160912.63244  24279343.0714   24279344.9024
   -716648.44844   -558425.38144  25330494.5384   25330496.0264
 -23715154.34644 -18479332.15244  20212955.2224   20212954.3064
 94  4 14  2 21  0.0000000  0  7G24G 6G13G 4G 9G17G 5
 -20748842.53844 -16167887.87244  21307443.1214   21307443.1364
 -10582066.69844  -8245757.02144  23065211.7114   23065211.7014
  -2042112.046 4  -1591236.057 4  23919901.946    23919900.601
  -8097864.95144  -6309979.88044  23683254.1684   23683252.8624
  -3962444.38544  -3087621.42844  24297242.4194   24297244.5154
   -818508.78244   -637796.94244  25311110.6334   25311109.8944
 -23702848.75144 -18469743.38144  20215296.9614   20215296.1604
 94  4 14  2 21 30.0000000  0  7G24G 6G 4G13G 9G17G 5
 -20688377.02944 -16120771.89644  21318949.4234   21318949.1194
 -10650856.41944  -8299359.37444  23052120.5434   23052120.6004
  -8003509.85444  -6236456.44244  23701208.1904   23701208.5634
  -1978168.397 4  -1541409.844 4  23932069.850    23932068.724
  -3868456.05844  -3014383.72544  24315128.3674   24315129.7534
   -920327.05844   -717135.68444  25291735.0534   25291740.4944
 -23690020.28144 -18459747.17644  20217738.0564   20217737.2514
 94  4 14  2 22  0.0000000  0  7G24G 6G13G 4G 9G17G 5
 -20627676.59344 -16073472.86644  21330500.3584   21330499.8824
 -10719614.78444  -8352937.28944  23039036.6944   23039036.8674
  -1914269.123 4  -1491618.189 4  23944229.553    23944228.316
  -7909154.33044  -6162932.67244  23719162.3344   23719161.6284
  -3774520.27944  -2941187.09144  24333003.2684   24333006.6374
  -1022040.40544   -796392.58744  25272380.0534   25272380.4954
 -23676639.40444 -18449320.52244  20220284.4484   20220283.5644
 94  4 14  2 22 30.0000000  0  7G24G 6G13G 4G 9G17G 5
 -20566735.21844 -16025986.08544  21342096.9814   21342096.7304
 -10788344.87844  -8406493.17844  23025958.0694   23025958.4804
  -1850408.656 4  -1441856.797 4  23956381.901    23956380.632
  -7814800.62544  -6089410.30944  23737117.0864   23737116.3924
  -3680639.03044  -2868032.88744  24350868.6794   24350871.9534
  -1123646.03444   -875565.72044  25253045.2984   25253050.2124
 -23662701.73744 -18438460.00744  20222936.6894   20222935.8974
 94  4 14  2 23  0.0000000  0  7G24G 6G13G 4G 9G17G 5
 -20505529.08344 -15978292.99344  21353743.8014   21353744.1444
 -10857060.56244  -8460037.84544  23012880.8194   23012881.4904
  -1786579.424 4  -1392119.720 4  23968527.981    23968526.912
  -7720418.96144  -6015866.17344  23755077.7414   23755078.0564
  -3586817.77444  -2794925.45844  24368722.1454   24368724.7704
  -1225133.45644   -954646.65444  25233733.0864   25233737.7794
 -23648202.12344 -18427161.61244  20225696.0204   20225695.0484
 94  4 14  2 23 30.0000000  0  7G24G 6G13G 4G 9G17G 5
 -20444033.86144 -15930374.64344  21365446.2634   21365446.1604
 -10925740.61644  -8513554.73744  22999812.2244   22999812.8804
  -1722760.755 4  -1342390.880 4  23980672.423    23980671.177
  -7625961.40244  -5942262.88444  23773053.4514   23773052.9994
  -3493042.24044  -2721853.61644  24386567.0424   24386571.6814
  -1326483.09444  -1033620.22244  25214447.9354   25214451.7474
 -23633135.86644 -18415421.67944  20228562.8784   20228562.0094
 94  4 14  2 24  0.0000000  0  7G24G 6G13G 4G 9G17G 5
 -20382234.36344 -15882219.20044  21377206.7414   21377206.1254
 -10994383.21244  -8567042.45444  22986750.4144   22986749.7054
  -1658953.592 4  -1292671.012 4  23992814.501    23992813.391
  -7531418.28444  -5868592.90644  23791044.3174   23791044.3664
  -3399304.40944  -2648811.15844  24404404.5034   24404403.2274
  -1427702.76444  -1112492.56744  25195185.7674   25195191.6054
 -23617526.00944 -18403258.15844  20231533.4284   20231532.4974
 94  4 14  2 24 30.0000000  0  7G24G 6G13G 4G 9G17G 5
 -20320153.39944 -15833844.42644  21389019.7344   21389019.9794
 -11063013.01744  -8620520.19644  22973689.5324   22973691.4814
  -1595183.537 4  -1242980.040 4  24004949.523    24004948.237
  -7436816.75744  -5794877.43644  23809046.4614   23809045.9294
  -3305616.83244  -2575807.91044  24422232.6784   24422234.7794
  -1528820.27344  -1191285.25544  25175943.4014   25175946.8754
 -23601398.84244 -18390691.53344  20234602.2524   20234601.4544
 94  4 14  2 25  0.0000000  0  7G24G 6G13G 4G 9G17G 5
 -20257818.31444 -15785271.63544  21400881.6334   21400881.8864
 -11131619.63344  -8673979.85544  22960634.9794   22960633.9194
  -1531459.298 4  -1193324.789 4  24017075.842    24017074.522
  -7342153.84744  -5721114.12044  23827060.6204   23827059.8604
  -3211997.58344  -2502857.92944  24440047.6694   24440048.6244
  -1629835.17044  -1269998.06444  25156720.8184   25156722.2624
 -23584767.41444 -18377731.99144  20237767.0434   20237766.1984
 94  4 14  2 25 30.0000000  0  6G24G 6G13G 4G 9G 5
 -20195250.26544 -15736517.30544  21412788.3864   21412788.4544
 -11200189.92144  -8727411.21844  22947586.4784   22947585.6014
  -1467776.866 4  -1143702.092 4  24029193.797    24029192.844
  -7247440.19144  -5647311.26344  23845084.0704   23845088.7644
  -3118442.92144  -2429958.22444  24457850.4504   24457853.8514
 -23567629.67844 -18364377.90544  20241028.3224   20241027.6804
 94  4 14  2 26  0.0000000  0  6G24G 6G13G 4G 9G 5
 -20132490.28744 -15687613.43344  21424731.3644   21424730.9194
 -11268764.70544  -8780846.08744  22934536.5524   22934536.9094
  -1404162.030 4  -1094132.081 4  24041299.773    24041298.215
  -7152723.01244  -5573505.68944  23863107.9934   23863107.8834
  -3024991.22744  -2357138.82444  24475634.3124   24475634.8694
 -23549995.76044 -18350637.19344  20244383.9754   20244383.0714
 94  4 14  2 26 30.0000000  0  6G24G 6G13G 4G 9G 5
 -20069517.72944 -15638543.91044  21436714.0754   21436714.3194
 -11337306.18644  -8834255.00944  22921493.4734   22921494.0054
  -1340573.602 4  -1044582.659 4  24053400.279    24053398.588
  -7057969.66944  -5499671.88344  23881138.8494   23881138.1584
  -2931636.60944  -2284394.99644  24493400.0034   24493404.5684
 -23531800.00544 -18336458.68544  20247846.3674   20247845.7554
 94  4 14  2 27  0.0000000  0  7G24G 6G13G 4G 9G17G 5
 -20006326.59844 -15589304.07944  21448739.0094   21448739.2444
 -11405808.10844  -8887633.09144  22908458.3994   22908458.3294
  -1277001.350 4   -995045.843 4  24065497.619    24065496.067
  -6963179.23444  -5425809.26644  23899176.5274   23899175.5584
  -2838391.66744  -2211736.60144  24511143.5984   24511148.1944
         0.24554         0.80954  25080010.6714   25080013.1144
 -23513026.30144 -18321829.83344  20251418.9794   20251418.3094
 94  4 14  2 27 30.0000000  0  6G24G 6G13G 4G 9G 5
 -19942903.25644 -15539883.28744  21460808.6764   21460808.2644
 -11474272.33044  -8940981.80744  22895430.0624   22895429.3814
  -1213439.396 4   -945517.036 4  24077592.861    24077591.535
  -6868363.68244  -5351926.98644  23917219.0064   23917221.4644
  -2745247.99444  -2139157.18044  24528867.8094   24528869.8154
 -23493661.88344 -18306740.68244  20255104.0434   20255103.2794
 94  4 14  2 28  0.0000000  0  6G24G 6G13G 4G 9G 5
 -19879225.63944 -15490264.36644  21472925.8114   21472925.6364
 -11542683.53144  -8994289.21044  22882411.1874   22882411.0574
  -1149875.823 4   -895986.963 4  24089688.655    24089687.261
  -6773507.37844  -5278012.99044  23935269.0934   23935269.7484
  -2652186.82544  -2066642.00844  24546576.3454   24546576.1424
 -23473701.32844 -18291187.00244  20258902.4234   20258901.9294
 94  4 14  2 28 30.0000000  0  6G24G 6G13G 4G 9G 5
 -19815299.00344 -15440451.41444  21485090.3034   21485089.9204
 -11611041.31844  -9047554.98844  22869403.7054   22869403.1334
  -1086326.322 4   -846467.897 4  24101781.850    24101780.357
  -6678617.46344  -5204072.80344  23953326.0144   23953325.5594
  -2559209.69644  -1994192.44844  24564269.4164   24564269.4084
 -23453174.71744 -18275192.25544  20262808.3944   20262807.7884
 94  4 14  2 29  0.0000000  0  7G24G 6G13G 4G 9G17G 5
 -19751101.51144 -15390427.39444  21497306.8984   21497306.5364
 -11679328.90944  -9100766.07544  22856408.5654   22856407.5534
  -1022777.419 4   -796949.256 4  24113874.564    24113873.379
  -6583687.32144  -5130101.26744  23971391.3174   23971390.7234
  -2466271.16644  -1921772.78744  24581955.7794   24581957.0074
        -0.98754        -0.08854  25003688.1014   25003693.3084
 -23432078.18444 -18258753.40744  20266823.0194   20266822.1664
 94  4 14  2 29 30.0000000  0  7G24G 6G13G 4G 9G17G 5
 -19686677.58644 -15340226.93244  21509566.6124   21509566.4444
 -11747574.92144  -9153944.75544  22843421.8594   22843422.3624
   -959272.722 4   -747465.085 4  24125959.222    24125957.902
  -6488757.43244  -5056129.95644  23989456.4354   23989455.9074
  -2373395.40744  -1849402.12744  24599629.2344   24599632.0994
    -99878.36744    -77826.47444  24984684.4704   24984687.5144
 -23410467.38744 -18241913.82644  20270935.3574   20270934.5264
 94  4 14  2 30  0.0000000  0  7G24G 6G13G 4G17G 9G 5
 -19622022.36644 -15289846.23744  21521869.6774   21521869.4734
 -11815772.73944  -9207085.87944  22830444.7424   22830445.1174
   -895808.151 4   -698012.165 4  24138036.099    24138034.808
  -6393819.49244  -4982152.37344  24007522.3404   24007522.9654
   -199627.94244   -155553.26944  24965702.8924   24965703.2524
  -2280581.81144  -1777079.86844  24617290.6554   24617292.6724
 -23388350.89644 -18224680.20344  20275144.0074   20275143.0464
 94  4 14  2 30 30.0000000  0  6G24G 6G13G 4G 9G 5
 -19557130.86444 -15239281.42744  21534217.9574   21534217.7564
 -11883905.11344  -9260176.02344  22817479.2094   22817478.8154
   -832374.516 4   -648583.373 4  24150107.303    24150105.793
  -6298875.10644  -4908169.72544  24025589.9364   24025588.2074
  -2187827.92144  -1704804.15644  24634940.8644   24634944.8894
 -23365707.65344 -18207036.12244  20279452.9924   20279452.1174
 94  4 14  2 31  0.0000000  0  6G24G 6G13G 4G 9G 5
 -19492012.97444 -15188540.21444  21546610.1354   21546609.7404
 -11951961.69544  -9313207.08144  22804527.9014   22804528.4604
   -768966.669 4   -599174.663 4  24162173.065    24162171.799
  -6203930.37844  -4834186.84244  24043658.0744   24043657.6124
  -2095140.64044  -1632580.35444  24652579.5834   24652579.9374
 -23342534.08744 -18188978.80644  20283862.7284   20283861.7854
 94  4 14  2 31 30.0000000  0  7G24G 6G13G 4G17G 9G 5
 -19426670.82344 -15137624.25044  21559044.3034   21559043.8104
 -12019930.36544  -9366169.64044  22791593.8734   22791594.5504
   -705579.623 4   -549782.174 4  24174235.643    24174234.198
  -6108971.37644  -4760192.83844  24061728.5714   24061727.7994
        -1.20454        -0.34054  24908892.7264   24908897.9724
  -2002529.91244  -1560416.21344  24670201.9894   24670201.2664
 -23318829.61444 -18170507.78944  20288373.6064   20288372.4794
 94  4 14  2 32  0.0000000  0  7G24G 6G13G 4G17G 9G 5
 -19361139.91744 -15086561.20244  21571513.7974   21571513.7494
 -12087849.42244  -9419093.54944  22778670.0434   22778670.1074
   -642239.901 4   -500426.543 4  24186288.533    24186287.272
  -6014020.99644  -4686205.56344  24079795.8724   24079796.1374
    -99306.62744    -77381.14644  24889996.4854   24889999.5494
  -1910045.01844  -1488350.10344  24687800.9774   24687804.3554
 -23294608.44844 -18151634.16244  20292982.5634   20292981.7434
 94  4 14  2 32 30.0000000  0  7G24G 6G13G17G 4G 9G 5
 -19295424.09244 -15035354.05644  21584019.2924   21584019.2634
 -12155718.12744  -9471978.23044  22765754.3044   22765753.7584
   -578940.848 4   -451102.613 4  24198334.109    24198332.742
   -198506.26644   -154679.42644  24871119.7394   24871117.0624
  -5919076.38044  -4612222.77544  24097862.9004   24097862.8534
  -1817684.09844  -1416380.59244  24705377.5864   24705380.2634
 -23269848.89944 -18132341.01744  20297694.1534   20297693.3154
 94  4 14  2 33  0.0000000  0  7G24G 6G13G17G 4G 9G 5
 -19229504.60744 -14983988.21644  21596563.6474   21596563.6224
 -12223540.12744  -9524826.51444  22752848.4074   22752848.7074
   -515662.867 4   -401795.115 4  24210375.262    24210374.152
   -297572.01744   -231873.49344  24852266.2824   24852269.3884
  -5824103.15644  -4538217.67044  24115936.0564   24115936.9274
  -1725434.26744  -1344497.63844  24722931.1334   24722933.9504
 -23244535.37044 -18112616.18944  20302511.3744   20302510.2874
 94  4 14  2 33 30.0000000  0  7G24G 6G13G17G 4G 9G 5
 -19163377.58044 -14932460.65844  21609147.2534   21609146.9314
 -12291347.22744  -9577663.16744  22739945.2544   22739945.9904
   -452414.603 4   -352510.746 4  24222411.308    24222409.815
   -396511.55244   -308969.05244  24833439.9554   24833445.5784
  -5729100.99344  -4464190.04044  24134014.4724   24134014.7284
  -1633304.94444  -1272708.61344  24740464.6124   24740469.2774
 -23218660.14544 -18092453.68444  20307434.9184   20307434.3734
 94  4 14  2 34  0.0000000  0  7G24G 6G13G17G 4G 9G 5
 -19097026.29644 -14880758.35444  21621773.0784   21621772.7694
 -12359137.63144  -9630486.83244  22727045.0264   22727044.5524
   -389179.235 4   -303236.466 4  24234444.484    24234443.105
   -495290.82744   -385939.92444  24814641.6034   24814647.8634
  -5634061.28644  -4390133.16844  24152099.7184   24152098.4264
  -1541277.87144  -1200999.25844  24757976.2734   24757979.2094
 -23192204.13444 -18071838.62444  20312469.5134   20312468.5384
 94  4 14  2 34 30.0000000  0  7G24G 6G13G 4G17G 9G 5
 -19030456.81444 -14828886.02144  21634440.6114   21634440.6504
 -12426916.98744  -9683301.88944  22714147.6664   22714147.5354
   -325965.366 4   -253978.912 4  24246473.926    24246472.239
  -5539002.57444  -4316061.46644  24170189.0734   24170189.5044
   -593917.51444   -462791.80344  24795873.7764   24795878.5024
  -1449347.98344  -1129365.61144  24775469.7184   24775471.8834
 -23165185.29244 -18050784.98444  20317611.0344   20317610.1684
 94  4 14  2 35  0.0000000  0  6G24G 6G13G 4G 9G 5
 -18963667.53744 -14776842.41844  21647150.3404   21647150.4434
 -12494673.40644  -9736099.06744  22701253.6194   22701253.6264
   -262776.571 4   -204740.899 4  24258498.022    24258496.695
  -5443926.99844  -4241976.61444  24188281.6004   24188281.3044
  -1357513.95044  -1057806.68344  24792945.0784   24792943.3834
 -23137620.43844 -18029305.87644  20322856.4044   20322855.8464
 94  4 14  2 35 30.0000000  0  6G24G 6G13G 4G 9G 5
 -18896677.07744 -14724642.05544  21659898.6454   21659897.9254
 -12562392.89644  -9788867.45344  22688366.5964   22688366.9824
   -199621.384 4   -155529.091 4  24270516.293    24270514.908
  -5348859.04544  -4167897.75544  24206372.4804   24206369.8164
  -1265778.18144   -986324.29344  24810401.8804   24810401.6824
 -23109533.21944 -18007419.74844  20328201.2654   20328200.3454
 94  4 14  2 36  0.0000000  0  7G24G 6G13G17G 4G 9G 5
 -18829496.27244 -14672293.36744  21672682.6864   21672682.0124
 -12630059.24744  -9841594.44944  22675490.8114   22675489.8734
   -136493.549 4   -106338.598 4  24282529.125    24282527.818
         0.14054         0.91754  24739749.3864   24739752.0394
  -5253800.42544  -4093826.13144  24224461.3794   24224459.6644
  -1174146.26644   -914922.86544  24827838.5724   24827841.4674
 -23080937.55144 -17985137.42244  20333642.7634   20333641.9624
 94  4 14  2 36 30.0000000  0  7G24G 6G13G17G 4G 9G 5
 -18762125.77244 -14619796.86444  21685502.9614   21685502.8504
 -12697673.99744  -9894281.22944  22662623.9704   22662623.4144
    -73400.099 4    -57174.892 4  24294535.327    24294534.047
    -98009.35344    -76369.96644  24721096.9254   24721097.5144
  -5158763.28844  -4019771.27644  24242545.6114   24242545.2394
  -1082641.36144   -843620.39244  24845251.9454   24845254.9784
 -23051838.71944 -17962463.01444  20339180.2694   20339179.2604
 94  4 14  2 37  0.0000000  0  7G24G 6G13G17G 4G 9G 5
 -18694564.45744 -14567151.67844  21698359.0744   21698359.2944
 -12765244.86144  -9946933.81144  22649764.5994   22649765.3074
    -10345.472 4     -8041.433 4  24306534.323    24306533.104
   -195889.31744   -152640.01644  24702472.3574   24702473.9604
  -5063743.39544  -3945729.83744  24260627.2504   24260625.9164
   -991282.97344   -772432.09344  24862636.7124   24862640.1734
 -23022231.26144 -17939392.26644  20344814.3944   20344813.4244
 94  4 14  2 37 30.0000000  0  6G24G 6G13G 4G 9G 5
 -18626814.94044 -14514359.83244  21711251.1824   21711251.2944
 -12832787.02944  -9999564.03944  22636912.7464   22636913.1194
     52672.133 4     41063.160 4  24318526.245    24318524.866
  -4968744.29844  -3871704.62544  24278705.4644   24278702.5094
   -900087.99844   -701371.10044  24879990.9974   24879990.2644
 -22992106.41244 -17915918.36844  20350546.8384   20350546.3244
 94  4 14  2 38  0.0000000  0  6G24G 6G13G 4G 9G 5
 -18558843.20744 -14461394.84044  21724185.5844   21724185.4814
 -12900281.37144 -10052157.00344  22624069.2244   22624068.6694
    115677.003 4     90157.835 4  24330515.750    24330514.218
  -4873744.43544  -3797678.79944  24296782.8944   24296782.1754
   -809040.40944   -630425.00244  24897316.4504   24897316.7704
 -22961418.23944 -17892005.52644  20356386.6034   20356385.8294
 94  4 14  2 38 30.0000000  0  7G24G 6G13G17G 4G 9G 5
 -18490634.99144 -14408245.57244  21737165.7414   21737164.8604
 -12967716.88444 -10104704.12644  22611236.0084   22611236.2914
    178669.310 4    139242.732 4  24342502.707    24342501.406
        -0.46654        -0.06454  24646737.9524   24646743.6744
  -4778748.31244  -3723655.88544  24314859.2564   24314858.5704
   -718130.84044   -559586.44344  24914615.8824   24914619.7664
 -22930149.52444 -17867640.29544  20362337.0144   20362335.8764
 94  4 14  2 39  0.0000000  0  7G24G 6G13G17G 4G 9G 5
 -18422201.73944 -14354920.95344  21750188.4054   21750187.7764
 -13035085.80344 -10157199.33844  22598415.6254   22598416.1324
    241651.827 4    188319.984 4  24354487.939    24354486.451
    -97362.89244    -75866.72644  24628211.0244   24628218.3404
  -4683755.31444  -3649635.40544  24332936.5934   24332937.1754
   -627343.19644   -488842.94144  24931892.6794   24931893.6044
 -22898299.64144 -17842822.20344  20368397.5904   20368396.9304
 94  4 14  2 39 30.0000000  0  7G24G 6G13G17G 4G 9G 5
 -18353544.76644 -14301422.00544  21763252.9324   21763252.9064
 -13102381.99344 -10209637.89044  22585610.1544   22585610.0164
    304630.850 4    237394.519 4  24366472.406    24366471.183
   -194564.09244   -151607.84344  24609713.4474   24609719.2494
  -4588780.15044  -3575628.84944  24351009.7504   24351010.5954
   -536663.46444   -418183.40644  24949147.5734   24949149.9844
 -22865868.73844 -17817551.38144  20374569.1234   20374568.3894
 94  4 14  2 40  0.0000000  0  7G24G 6G13G17G 4G 9G 5
 -18284692.10744 -14247770.57544  21776354.5384   21776354.9444
 -13169625.74444 -10262035.58344  22572813.9304   22572813.6134
    367581.128 4    286446.651 4  24378451.457    24378450.055
   -291620.02644   -227235.69544  24591244.7884   24591245.5944
  -4493845.17444  -3501653.57644  24369075.6344   24369075.8344
   -446111.93144   -347623.86444  24966378.6364   24966380.5994
 -22832887.07144 -17791851.38744  20380845.2684   20380844.4804
 94  4 14  2 40 30.0000000  0  7G24G 6G13G17G 4G 9G 5
 -18215648.43744 -14193970.30444  21789493.0304   21789493.0424
 -13236805.13444 -10314383.12244  22560030.0694   22560029.2864
    430514.759 4    335485.816 4  24390427.475    24390426.058
   -388497.59344   -302724.64944  24572809.2414   24572811.5924
  -4398922.00044  -3427687.51144  24387139.9904   24387139.9174
   -355682.97144   -277159.77644  24983587.4084   24983585.8674
 -22799361.11944 -17765727.26744  20387225.2354   20387224.3204
 94  4 14  2 41  0.0000000  0  7G24G 6G13G17G 4G 9G 5
 -18146431.58544 -14140035.08544  21802665.1374   21802664.2664
 -13303935.46944 -10366692.43244  22547255.7244   22547255.6964
    493432.071 4    384512.259 4  24402400.207    24402398.868
   -485181.76344   -378062.86944  24554411.0034   24554413.9444
  -4304003.99744  -3353725.47544  24405202.5804   24405202.6964
   -265389.07544   -206800.97144  25000769.4454   25000771.6704
 -22765305.34544 -17739190.30144  20393705.6944   20393704.9104
 94  4 14  2 41 30.0000000  0  7G24G 6G13G17G 4G 9G 5
 -18077035.70644 -14085960.37044  21815871.0634   21815870.1614
 -13371007.94644 -10418956.68244  22534492.2484   22534491.8034
    556337.597 4    433529.513 4  24414370.811    24414369.342
   -581673.47044   -453251.12744  24536049.4564   24536050.5754
  -4209079.72444  -3279758.54244  24423266.1054   24423264.8034
   -175240.11044   -136555.14144  25017923.9234   25017933.9024
 -22730719.23644 -17712240.09244  20400287.2584   20400286.4034
 94  4 14  2 42  0.0000000  0  7G24G 6G13G17G 4G 9G 5
 -18007459.23844 -14031744.93744  21829110.8844   21829110.2564
 -13438001.21344 -10471159.21044  22521744.1884   22521743.5264
    619238.416 4    482543.104 4  24426340.322    24426338.953
   -677992.33444   -528304.71944  24517720.0704   24517719.0224
  -4114122.95344  -3205766.30544  24441335.5784   24441334.8614
    -85236.92544    -66422.88644  25035051.3664   25035050.4064
 -22695599.07144 -17684873.73144  20406970.4214   20406969.3884
 94  4 14  2 42 30.0000000  0  6G24G 6G13G17G 4G 5
 -17937714.79244 -13977398.61544  21842382.5024   21842382.0994
 -13504926.74644 -10523308.93944  22509008.6174   22509007.8914
    682122.548 4    531543.698 4  24438306.964    24438305.412
   -774156.87044   -603238.05244  24499420.7734   24499420.5514
  -4019158.64144  -3131768.20444  24459405.6864   24459405.6704
 -22659942.66544 -17657089.52144  20413755.5474   20413754.6524
 94  4 14  2 43  0.0000000  0  6G24G 6G13G17G 4G 5
 -17867831.93644 -13922944.43344  21855680.8084   21855681.0134
 -13571825.12444 -10575437.52544  22496278.0814   22496278.4104
    744951.127 4    580500.988 4  24450262.887    24450261.365
   -870211.95244   -678086.09944  24481141.6804   24481142.5244
  -3924249.59944  -3057813.13544  24477466.2324   24477466.5174
 -22623781.15944 -17628911.73144  20420636.9414   20420636.1694
 94  4 14  2 43 30.0000000  0  7G24G 6G13G17G 4G 5G20
 -17797769.34444 -13868350.19944  21869013.3694   21869013.3094
 -13638656.82844 -10627514.15144  22483560.0634   22483560.1104
    807761.666 4    629444.224 4  24462215.252    24462213.800
   -966136.21744   -752832.16244  24462887.6044   24462889.8814
  -3829362.24544  -2983874.97144  24495522.6344   24495522.8204
 -22587074.52844 -17600309.17144  20427621.9494   20427621.1534
        -1.00754        -0.95254  20668746.7884   20668746.8214
 94  4 14  2 44  0.0000000  0  7G24G 6G13G17G 4G 5G20
 -17727530.12444 -13813618.33844  21882379.8374   21882379.2994
 -13705435.12144 -10679549.15844  22470853.3464   22470852.6764
    870558.113 4    678376.491 4  24474165.005    24474163.739
  -1061909.71444   -827460.81444  24444662.4364   24444663.3034
  -3734503.85744  -2909959.42244  24513573.2794   24513573.7814
 -22549814.04744 -17571275.03844  20434712.4104   20434711.5234
    -36895.88644    -28750.20244  20661726.4584   20661726.0964
 94  4 14  2 44 30.0000000  0  7G24G 6G13G17G 4G 5G20
 -17657114.16244 -13758748.75344  21895779.5534   21895778.6274
 -13772178.90144 -10731557.27744  22458152.2944   22458151.4184
    933341.475 4    727298.565 4  24486112.382    24486110.919
  -1157504.56544   -901950.19044  24426471.6604   24426472.7274
  -3639679.19444  -2836070.08444  24531617.8124   24531617.3964
 -22512007.34544 -17541815.26944  20441906.6614   20441905.8364
    -73256.31844    -57082.99244  20654807.0424   20654806.8574
 94  4 14  2 45  0.0000000  0  7G24G 6G13G17G 4G 5G20
 -17586518.93644 -13703739.49044  21909213.2614   21909212.9434
 -13838880.10844 -10783532.23144  22445458.3214   22445458.0324
    996117.001 4    776214.519 4  24498058.186    24498056.986
  -1252916.48544   -976297.11744  24408315.7874   24408322.9034
  -3544868.25744  -2762191.48044  24549660.0164   24549661.4194
 -22473671.34644 -17511943.06544  20449202.0084   20449201.0794
   -109075.36744    -84993.92944  20647990.9304   20647990.7514
 94  4 14  2 45 30.0000000  0  7G24G 6G13G17G 4G 5G20
 -17515749.32844 -13648594.33944  21922680.0834   21922679.6104
 -13905531.76444 -10835468.56144  22432775.3074   22432775.3564
   1058888.383 4    825127.261 4  24510003.037    24510001.855
  -1348138.66344  -1050496.14044  24390196.4854   24390199.7534
  -3450045.50344  -2688303.65544  24567704.1264   24567703.1244
 -22434804.05044 -17481656.86944  20456598.1434   20456597.2474
   -144348.37744   -112479.38144  20641278.8104   20641278.6174
 94  4 14  2 46  0.0000000  0  7G24G 6G13G17G 4G 5G20
 -17444814.56244 -13593320.49344  21936178.4554   21936178.4624
 -13972133.90544 -10887366.30144  22420101.6694   22420101.2034
   1121643.329 4    874027.192 4  24521945.225    24521943.669
  -1443166.27644  -1124543.53844  24372112.0174   24372115.3324
  -3355220.82444  -2614414.32244  24585747.6834   24585750.0924
 -22395409.40944 -17450959.75944  20464094.6474   20464093.8874
   -179086.40944   -139547.97344  20634668.1424   20634668.1394
 94  4 14  2 46 30.0000000  0  7G24G 6G13G17G 4G 5G20
 -17373718.80344 -13537921.20444  21949707.6594   21949707.6374
 -14038682.70044 -10939222.48744  22407437.9244   22407437.6264
   1184364.383 4    922900.708 4  24533880.386    24533879.303
  -1538033.95344  -1198466.35344  24354059.1584   24354062.2594
  -3260411.66844  -2540537.09944  24603789.9344   24603790.8184
 -22355503.99644 -17419864.64044  20471688.3134   20471687.4824
   -213305.54344   -166212.22144  20628156.7314   20628156.3674
 94  4 14  2 47  0.0000000  0  7G24G 6G13G17G 4G 5G20
 -17302469.67044 -13482402.40244  21963266.3524   21963265.8074
 -14105162.66144 -10991025.02544  22394786.5084   22394786.6664
   1247051.460 4    971747.761 4  24545809.753    24545808.086
  -1632754.74644  -1272274.67244  24336034.5364   24336036.0614
  -3165634.33144  -2466684.64144  24621824.8194   24621823.9094
 -22315076.84444 -17388362.97044  20479381.4904   20479380.6114
   -247004.56944   -192471.19244  20621743.9104   20621743.6814
 94  4 14  2 47 30.0000000  0  7G24G 6G17G13G 4G 5G20
 -17231085.16644 -13426778.11644  21976850.1214   21976849.6134
 -14171585.53144 -11042783.08144  22382146.7694   22382146.7684
  -1727335.66544  -1345973.97144  24318035.4354   24318034.3594
   1309691.718 4   1020558.303 4  24557729.762    24557728.278
  -3070929.77144  -2392888.94444  24639846.8134   24639846.1974
 -22274135.77144 -17356460.84144  20487172.0944   20487171.4914
   -280194.95644   -218333.82744  20615427.8694   20615427.7734
 94  4 14  2 48  0.0000000  0  7G24G 6G17G13G 4G 5G20
 -17159559.66544 -13371043.96344  21990460.7924   21990460.2924
 -14237942.63344 -11094489.88744  22369520.0374   22369519.3774
  -1821771.22744  -1419560.06444  24300066.1244   24300069.5774
   1372293.918 4   1069339.226 4  24569642.317    24569641.101
  -2976327.97944  -2319173.28344  24657848.5084   24657849.6234
 -22232677.32244 -17324155.56644  20495061.4034   20495060.5554
   -312866.93844   -243792.50544  20609210.7294   20609210.3734
 94  4 14  2 48 30.0000000  0  7G24G 6G17G13G 4G 5G20
 -17087889.26444 -13315196.90444  22004099.5224   22004098.7494
 -14304217.67444 -11146132.76244  22356908.2934   22356907.6894
  -1916048.14644  -1493022.51044  24282126.2114   24282128.2324
   1434883.425 4   1118110.238 4  24581553.167    24581551.534
  -2881818.43944  -2245529.49944  24675833.5444   24675833.0344
 -22190692.35644 -17291440.01644  20503051.1414   20503050.3344
   -344993.90144   -268826.49344  20603097.2784   20603097.0334
 94  4 14  2 49  0.0000000  0  7G24G 6G17G13G 4G 5G20
 -17016074.64844 -13259237.46844  22017765.2224   22017764.8034
 -14370417.03644 -11197716.66844  22344311.0164   22344310.6644
  -2010135.03944  -1566336.88844  24264221.4314   24264224.2094
   1497475.651 4   1166883.364 4  24593463.747    24593462.472
  -2787387.19844  -2171946.74344  24693803.5234   24693803.8264
 -22148175.48244 -17258309.99644  20511141.6664   20511140.8294
   -376559.13244   -293422.76944  20597090.3484   20597090.1704
 94  4 14  2 49 30.0000000  0  7G24G 6G17G13G 4G 5G20
 -16944084.44044 -13203141.20244  22031464.0674   22031463.9944
 -14436534.12444 -11249236.46844  22331729.3284   22331728.8784
  -2104006.24644  -1639483.14844  24246358.1504   24246357.8484
   1560085.225 4   1215670.030 4  24605378.336    24605376.753
  -2693000.40844  -2098398.58644  24711766.0254   24711769.1904
 -22105114.06044 -17224755.65044  20519335.9784   20519335.4164
   -407546.80744   -317568.99644  20591193.8014   20591193.4694
 94  4 14  2 50  0.0000000  0  7G 6G24G17G13G 4G 5G20
 -14502580.61744 -11300701.24844  22319160.8394   22319161.1404
 -16871916.30444 -13146906.29444  22045197.5434   22045197.6774
  -2197670.83744  -1712468.47044  24228534.1124   24228537.7254
   1622708.455 4   1264467.314 4  24617294.576    24617293.528
  -2598628.41944  -2024861.97344  24729723.7394   24729724.2384
 -22061505.01644 -17190774.58844  20527634.6864   20527633.7864
   -437959.47444   -341267.17644  20585406.2094   20585406.1264
 94  4 14  2 50 30.0000000  0  7G 6G24G17G13G 4G 5G20
 -14568569.30744 -11352120.97844  22306603.5094   22306603.5864
 -16799559.63144 -13090524.48044  22058966.4764   22058966.4254
  -2291127.72244  -1785291.96544  24210749.5204   24210752.5124
   1685345.723 4   1313275.569 4  24629214.531    24629212.841
  -2504237.65144  -1951310.74744  24747685.6364   24747686.6674
 -22017339.26144 -17156359.72644  20536039.1104   20536038.2894
   -467795.71444   -364516.18744  20579728.7334   20579728.2214
 94  4 14  2 51  0.0000000  0  7G 6G24G17G13G 4G 5G20
 -14634514.02544 -11403506.46044  22294054.4934   22294054.5124
 -16727013.85044 -13033995.30644  22072771.4064   22072771.3704
  -2384390.77544  -1857964.36544  24193001.8764   24193004.9224
   1747980.768 4   1362082.047 4  24641133.460    24641132.153
  -2409831.91444  -1877747.82444  24765651.6454   24765652.2524
 -21972619.03944 -17121512.81044  20544549.0584   20544548.3424
   -497070.56444   -387327.74844  20574157.8134   20574157.6794
 94  4 14  2 51 30.0000000  0  7G 6G24G17G13G 4G 5G20
 -14700428.32944 -11454868.24044  22281511.8694   22281510.9854
 -16654307.17644 -12977340.76244  22086606.8804   22086606.1964
  -2477504.18544  -1930520.20244  24175283.3284   24175287.6434
   1810584.082 4   1410863.859 4  24653046.630    24653044.814
  -2315437.78544  -1804193.97244  24783613.8024   24783611.9814
 -21927362.97244 -17086248.35344  20553161.0664   20553160.3534
   -525812.26044   -409723.86944  20568688.4624   20568688.2454
 94  4 14  2 52  0.0000000  0  7G 6G24G17G13G 4G 5G20
 -14766309.95644 -11506204.55544  22268974.9314   22268974.0514
 -16581470.66144 -12920585.04944  22100467.3184   22100466.7014
  -2570484.76944  -2002972.51644  24157589.4794   24157592.3504
   1873152.220 4   1459618.206 4  24664953.014    24664951.387
  -2221077.90044  -1730666.79144  24801570.4434   24801570.4604
 -21881586.98544 -17050578.76344  20561871.8374   20561871.1764
   -554023.61144   -431706.73144  20563320.1334   20563319.6904
 94  4 14  2 52 30.0000000  0  7G 6G24G17G13G 4G 5G20
 -14832132.51344 -11557494.83844  22256448.8054   22256449.1134
 -16508509.32544 -12863732.06644  22114351.7484   22114351.0834
  -2663319.11744  -2075310.88244  24139923.7924   24139925.3794
   1935697.131 4   1508354.487 4  24676854.818    24676853.229
  -2126763.80444  -1657175.28744  24819518.5054   24819519.6634
 -21835297.23844 -17014508.84344  20570680.4884   20570679.7744
   -581691.77644   -453266.33544  20558054.9844   20558054.6864
 94  4 14  2 53  0.0000000  0  7G 6G24G17G13G 4G 5G20
 -14897868.45744 -11608717.62344  22243939.6434   22243939.7414
 -16435431.82944 -12806788.57844  22128258.2024   22128257.5924
  -2756003.02844  -2147532.05044  24122286.6554   24122288.2264
   1998217.036 4   1557071.264 4  24688752.269    24688750.685
  -2032507.42344  -1583728.76844  24837454.5044   24837453.0234
 -21788506.76044 -16978048.74744  20579584.4594   20579583.7344
   -608817.48444   -474403.24744  20552893.1434   20552892.9574
 94  4 14  2 53 30.0000000  0  7G 6G24G17G13G 4G 5G20
 -14963497.57844 -11659857.17244  22231451.2554   22231450.9554
 -16362224.64644 -12749744.02944  22142188.9244   22142188.7734
  -2848504.81544  -2219611.26844  24104684.1274   24104684.6184
   2060732.807 4   1605784.829 4  24700648.167    24700646.871
  -1938292.82944  -1510314.78444  24855382.6354   24855381.7674
 -21741207.07844 -16941191.86544  20588585.1634   20588584.4654
   -635378.81744   -495100.38344  20547838.7214   20547838.1574
 94  4 14  2 54  0.0000000  0  7G 6G24G17G13G 4G 5G20
 -15029025.71944 -11710918.04544  22218982.1764   22218981.0284
 -16288893.71944 -12692603.05644  22156143.0154   22156143.4214
  -2940809.82444  -2291537.18544  24087119.3694   24087121.5094
   2123242.793 4   1654493.906 4  24712543.853    24712542.451
  -1844129.82344  -1436941.01144  24873301.8174   24873302.4234
 -21693408.53144 -16903946.25544  20597681.1654   20597680.2124
   -661376.37544   -515358.21644  20542891.4464   20542891.1964
 94  4 14  2 54 30.0000000  0  7G 6G24G17G13G 4G 5G20
 -15094455.03944 -11761901.92744  22206530.8874   22206529.7344
 -16215415.77244 -12635347.52444  22170125.4244   22170125.2374
  -3032890.92644  -2363288.60444  24069596.1814   24069598.2914
   2185752.703 4   1703202.882 4  24724439.057    24724437.677
  -1750006.21644  -1363597.98944  24891211.7024   24891212.0184
 -21645084.97944 -16866291.54844  20606876.9254   20606875.9234
   -686803.72344   -535171.73144  20538052.7954   20538052.4574
 94  4 14  2 55  0.0000000  0  7G 6G24G17G13G 4G 5G20
 -15159816.01844 -11812832.54144  22194092.6404   22194092.6304
 -16141804.36844 -12577987.99644  22184132.8924   22184133.0814
  -3124761.63144  -2434876.10344  24052113.9724   24052116.4354
   2248245.920 4   1751898.923 4  24736330.832    24736329.554
  -1655935.73344  -1290296.29344  24909111.8514   24909115.1334
 -21596241.51944 -16828231.72044  20616171.4564   20616170.4284
   -711676.42044   -554553.05344  20533319.6974   20533319.4154
 94  4 14  2 55 30.0000000  0  7G 6G24G17G13G 4G 5G20
 -15225136.15444 -11863731.33144  22181662.6814   22181662.4404
 -16068065.18844 -12520528.90344  22198164.7004   22198164.9224
  -3216440.57544  -2506314.13644  24034668.6154   24034670.0944
   2310721.509 4   1800581.150 4  24748219.893    24748218.589
  -1561932.66544  -1217047.18144  24927000.1824   24927002.0874
 -21546871.87844 -16789761.88444  20625566.1184   20625565.2224
   -735994.87644   -573502.49744  20528691.9534   20528691.7614
 94  4 14  2 56  0.0000000  0  7G 6G24G17G13G 4G 5G20
 -15290412.88744 -11914596.30044  22169241.1744   22169241.6144
 -15994195.22244 -12462967.90144  22212221.9624   22212222.0594
  -3307937.09844  -2577610.06644  24017256.6644   24017257.9334
   2373180.057 4   1849250.172 4  24760104.970    24760103.644
  -1468000.18144  -1143853.04644  24944875.3014   24944878.5724
 -21496973.61644 -16750880.14244  20635061.5774   20635060.5474
   -759757.47444   -592018.80244  20524170.1574   20524169.9524
 94  4 14  2 56 30.0000000  0  7G 6G24G17G13G 4G 5G20
 -15355646.84444 -11965427.93244  22156827.8174   22156827.4584
 -15920193.78244 -12405304.44544  22226304.5394   22226303.9814
  -3399264.06444  -2648773.85444  23999878.2854   23999880.9414
   2435618.283 4   1897903.312 4  24771987.148    24771985.367
  -1374139.16444  -1070714.63144  24962735.2764   24962734.6904
 -21446561.85344 -16711598.26344  20644654.5484   20644653.6364
   -782966.68044   -610103.89744  20519753.5314   20519753.3934
 94  4 14  2 57  0.0000000  0  7G 6G24G17G13G 4G 5G20
 -15420822.66144 -12016214.27244  22144424.9994   22144424.5884
 -15846052.56844 -12347532.08844  22240413.4684   22240412.3904
  -3490433.65944  -2719815.01544  23982528.8134   23982529.8314
   2498048.686 4   1946550.378 4  24783866.754    24783865.142
  -1280342.07744   -997626.01444  24980583.4224   24980584.8234
 -21395651.09544 -16671927.55244  20654342.4314   20654341.5694
   -805609.40344   -627747.57544  20515444.8334   20515444.4794
 94  4 14  2 57 30.0000000  0  7G 6G24G17G13G 4G 5G20
 -15485908.92844 -12066930.82844  22132039.6894   22132039.7864
 -15771753.42144 -12289636.65744  22254552.0634   22254551.2734
  -3581411.89044  -2790707.05244  23965216.0634   23965219.6044
   2560491.604 4   1995207.198 4  24795749.491    24795747.785
  -1186588.91044   -924571.58544  24998425.0294   24998429.2464
 -21344227.89744 -16631857.54344  20664128.0204   20664127.0314
   -827664.38844   -644933.27244  20511248.0264   20511247.6924
 94  4 14  2 58  0.0000000  0  7G 6G24G17G13G 4G 5G20
 -15550894.31744 -12117568.76544  22119673.2324   22119672.6314
 -15697313.84344 -12231631.80444  22268717.4694   22268716.6754
  -3672183.33944  -2861437.97744  23947942.9374   23947945.2354
   2622944.418 4   2043871.719 4  24807633.969    24807631.542
  -1092878.44044   -851550.41044  25016257.8334   25016260.7684
 -21292304.55544 -16591397.81144  20674008.6694   20674007.8204
   -849133.58044   -661662.51344  20507162.5054   20507162.0714
 94  4 14  2 58 30.0000000  0  7G 6G24G17G13G 4G 5G20
 -15615799.98844 -12168144.58444  22107322.2744   22107321.9424
 -15622770.89244 -12173546.40144  22282902.3304   22282901.4694
  -3762771.48644  -2932026.08044  23930704.8134   23930707.2324
   2685387.993 4   2092529.047 4  24819516.236    24819514.540
   -999232.68944   -778579.81744  25034078.4504   25034082.1174
 -21239902.82144 -16550565.30544  20683980.4814   20683979.4494
   -870035.19444   -677949.48244  20503184.9974   20503184.8824
 94  4 14  2 59  0.0000000  0  7G 6G24G17G13G 4G 5G20
 -15680617.31844 -12218651.58244  22094987.6684   22094987.4394
 -15548126.40044 -12115381.87344  22297106.5614   22297106.0664
  -3853155.94644  -3002455.42144  23913505.0724   23913507.9974
   2747841.229 4   2141193.876 4  24831401.095    24831398.724
   -905631.06344   -705643.47844  25051889.5104   25051890.9114
 -21186991.83444 -16509335.97644  20694049.0854   20694048.1684
   -890349.44644   -693778.76844  20499319.4704   20499318.9524
 94  4 14  2 59 30.0000000  0  7G 6G24G17G13G 4G 5G20
 -15745338.44544 -12269083.60844  22082671.5374   22082670.8904
 -15473390.62744 -12057146.22044  22311328.2374   22311327.9094
  -3943312.59544  -3072707.29444  23896348.7004   23896350.4584
   2810309.397 4   2189870.365 4  24843288.018    24843286.241
   -812069.14144   -632738.05644  25069695.1554   25069694.5704
 -21133548.15544 -16467691.57344  20704219.0534   20704218.5514
   -910070.79044   -709146.05044  20495566.3914   20495566.1894
 94  4 14  3  0  0.0000000  0  7G 6G24G17G13G 4G 5G20
 -15809996.53244 -12319466.51944  22070367.6144   22070367.1344
 -15398574.38644 -11998847.86044  22325564.9514   22325565.3284
  -4033277.13344  -3142809.44144  23879228.4954   23879230.2564
   2872774.263 4   2238544.262 4  24855175.099    24855172.595
   -718559.85444   -559873.77244  25087489.9474   25087492.5054
 -21079596.17244 -16425651.08644  20714485.8124   20714485.1264
   -929216.72044   -724064.95744  20491923.1424   20491922.9194
 94  4 14  3  0 30.0000000  0  7G 6G24G17G13G 4G20G 5
 -15874606.20744 -12369811.69244  22058073.0144   22058072.8774
 -15323667.97044 -11940479.23344  22339819.2664   22339819.7944
  -4123057.12044  -3212767.81844  23862144.0884   23862145.7644
   2935228.562 4   2287209.922 4  24867059.397    24867057.619
   -625097.43744   -487045.93944  25105274.9304   25105272.8714
   -947794.06544   -738540.81244  20488387.9244   20488387.6394
 -21025147.09444 -16383223.24644  20724847.1154   20724846.3974
 94  4 14  3  1  0.0000000  0  6G 6G24G17G13G20G 5
 -15939152.48744 -12420107.47744  22045789.8534   22045789.8504
 -15248634.90644 -11882011.91944  22354097.7624   22354098.1324
  -4212621.74544  -3282558.34944  23845099.8084   23845102.2464
   2997686.202 4   2335878.206 4  24878944.853    24878943.015
   -965788.36044   -752562.33944  20484963.8714   20484963.3714
 -20970177.49944 -16340389.80944  20735307.5654   20735306.5944
 94  4 14  3  1 30.0000000  0  6G 6G24G17G13G20G 5
 -16003637.16444 -12470355.26244  22033518.6904   22033518.5734
 -15173475.57944 -11823446.22244  22368400.5094   22368400.7754
  -4301995.28044  -3352200.02444  23828092.6414   23828092.9514
   3060125.231 4   2384531.966 4  24890826.709    24890824.984
   -983220.82344   -766146.08044  20481646.4434   20481646.4324
 -20914712.86344 -16297170.63344  20745862.0744   20745861.4324
 94  4 14  3  2  0.0000000  0  7G16G 6G24G17G13G20G 5
        -0.12054         0.68754  21206509.0594   21206508.8254
 -16068020.59144 -12520524.14644  22021267.1364   22021267.0354
 -15098140.49544 -11764743.56744  22382736.7124   22382736.1834
  -4391145.20244  -3421667.40044  23811128.3164   23811129.8084
   3122581.566 4   2433199.199 4  24902711.550    24902710.095
  -1000055.07144   -779263.68044  20478443.1094   20478442.6034
 -20858727.95844 -16253546.05344  20756515.6114   20756514.9254
 94  4 14  3  2 30.0000000  0  7G16G 6G24G17G13G20G 5
    -27902.47644    -21741.39444  21201199.2134   21201199.0284
 -16132314.11744 -12570622.98344  22009032.4804   22009032.2454
 -15022671.63744 -11705936.67444  22397097.9034   22397097.2634
  -4480094.36244  -3490978.38844  23794201.5254   23794203.2284
   3185026.131 4   2481857.316 4  24914594.396    24914592.991
  -1016319.74944   -791937.45344  20475348.1724   20475347.7044
 -20802246.24944 -16209534.35044  20767264.0254   20767263.0514
 94  4 14  3  3  0.0000000  0  7G16G 6G24G17G13G20G 5
    -55261.80744    -43060.33644  21195992.8304   21195992.4974
 -16196513.92744 -12620648.79844  21996815.8824   21996815.2704
 -14947085.96344 -11647038.75444  22411481.2594   22411481.0144
  -4568863.16944  -3560148.81944  23777309.6244   23777311.7154
   3247450.388 4   2530499.531 4  24926473.529    24926471.759
  -1032022.91444   -804173.68344  20472359.8324   20472359.5144
 -20745273.93044 -16165140.34644  20778105.3134   20778104.5404
 94  4 14  3  3 30.0000000  0  7G16G 6G24G17G13G20G 5
    -82107.49244    -63979.04044  21190884.2544   21190883.6884
 -16260634.95244 -12670613.21444  21984613.7404   21984612.8154
 -14871427.19544 -11588083.88844  22425878.5224   22425877.6954
  -4657476.47844  -3629198.08644  23760447.2244   23760448.6014
   3309833.582 4   2579109.810 4  24938344.251    24938343.146
  -1047184.85144   -815988.17944  20469474.6594   20469474.3294
 -20687855.21044 -16120398.50044  20789031.5914   20789030.9904
 94  4 14  3  4  0.0000000  0  7G16G 6G24G17G13G20G 5
   -108408.02444    -84472.94444  21185879.4754   21185879.0484
 -16324671.33944 -12720511.68444  21972428.0154   21972427.1744
 -14795683.01244 -11529062.45444  22440291.4674   22440291.2134
  -4745910.21944  -3698107.42044  23743619.1254   23743619.7984
   3372197.898 4   2627705.338 4  24950212.080    24950210.326
  -1061782.94244   -827363.30544  20466696.6154   20466696.1434
 -20629977.65644 -16075299.12844  20800045.3694   20800044.7954
 94  4 14  3  4 30.0000000  0  7G16G 6G24G17G13G20G 5
   -134134.53044   -104519.56144  21180983.9704   21180983.4074
 -16388605.76544 -12770330.71144  21960261.7644   21960261.2704
 -14719850.66644 -11469972.32844  22454722.1514   22454722.4154
  -4834148.19844  -3766864.24244  23726827.3504   23726828.4094
   3434563.365 4   2676301.785 4  24962079.407    24962078.523
  -1075796.72144   -838283.13744  20464029.9444   20464029.4404
 -20571622.24744 -16029827.40244  20811150.0904   20811149.0584
 94  4 14  3  5  0.0000000  0  7G16G 6G24G17G13G20G 5
   -159308.53944   -124135.65644  21176193.5414   21176193.1864
 -16452451.17944 -12820080.37744  21948112.4084   21948112.3904
 -14643926.29244 -11410810.48544  22469170.1194   22469170.1424
  -4922186.31144  -3835465.31944  23710074.0874   23710074.0694
   3496931.399 4   2724900.204 4  24973948.255    24973946.456
  -1089224.62544   -848746.44544  20461474.6804   20461474.3264
 -20512793.27744 -15983986.66944  20822345.0174   20822344.1664
 94  4 14  3  5 30.0000000  0  7G16G 6G24G17G13G20G 5
   -183939.65644   -143328.72144  21171506.1614   21171506.0024
 -16516224.42544 -12869773.80444  21935976.6624   21935976.4034
 -14567914.36344 -11351580.42144  22483634.6554   22483634.0674
  -5010025.31144  -3903911.24244  23693358.9284   23693360.2884
   3559297.530 4   2773497.156 4  24985815.827    24985814.633
  -1102070.71844   -858756.38744  20459030.2434   20459029.9174
 -20453492.63744 -15937778.39144  20833629.4994   20833628.5794
 94  4 14  3  6  0.0000000  0  7G16G 6G24G17G13G20G 5
   -208011.64644   -162086.09944  21166925.4334   21166925.0194
 -16579915.69944 -12919403.35844  21923856.5314   21923856.5724
 -14491791.18844 -11292263.66344  22498120.7924   22498120.1574
  -5097648.37944  -3972188.88644  23676684.5504   23676686.7644
   3621684.168 4   2822110.088 4  24997687.558    24997686.176
  -1114312.14044   -868295.15944  20456700.6254   20456700.4044
 -20393671.92344 -15891164.86144  20845013.1104   20845012.2204
 94  4 14  3  6 30.0000000  0  7G16G 6G24G17G13G20G 5
   -231538.69944   -180418.85444  21162448.4674   21162448.1024
 -16643526.87044 -12968970.49444  21911752.0694   21911752.0524
 -14415572.12244 -11232872.19544  22512625.0264   22512625.1524
  -5185062.34344  -4040303.62744  23660051.0704   23660053.4274
   3684083.832 4   2870733.180 4  25009562.064    25009560.658
  -1125956.01744   -877368.31344  20454484.9664   20454484.5704
 -20333334.36144 -15844148.59144  20856495.0104   20856494.3644
 94  4 14  3  7  0.0000000  0  7G16G 6G24G17G13G20G 5
   -254509.63044   -198318.27444  21158077.2984   21158076.5394
 -16707051.34644 -13018470.07644  21899663.6014   21899662.9474
 -14339246.74044 -11173397.87844  22527149.1524   22527149.0684
  -5272261.78944  -4108251.19444  23643457.0634   23643458.9054
   3746500.772 4   2919369.722 4  25021439.487    25021438.239
  -1136998.22244   -885972.63244  20452383.5444   20452383.2934
 -20272474.27044 -15796725.17044  20868076.0264   20868075.6284
 94  4 14  3  7 30.0000000  0  7G16G 6G24G17G13G20G 5
   -276900.20544   -215765.46944  21153816.4364   21153815.8414
 -16770486.53544 -13067900.08344  21887592.0864   21887591.2764
 -14262826.43444 -11113849.59444  22541691.1024   22541691.0634
  -5359255.92444  -4176038.78244  23626902.6354   23626904.3634
   3808930.799 4   2968016.480 4  25033319.825    25033318.396
  -1147442.33344   -894110.90644  20450396.3074   20450395.7384
 -20211093.20244 -15748895.79244  20879756.6084   20879755.9504
 94  4 14  3  8  0.0000000  0  7G16G 6G24G17G13G20G 5
   -298690.78744   -232745.12444  21149669.6014   21149669.2004
 -16833814.71144 -13117246.70644  21875541.0894   21875540.1164
 -14186316.17344 -11054231.20744  22556250.6174   22556250.7114
  -5446027.06544  -4243652.60544  23610389.9934   23610391.8044
   3871385.237 4   3016682.209 4  25045204.382    25045202.970
  -1157276.90444   -901774.20844  20448524.7614   20448524.3834
 -20149204.38244 -15700670.76444  20891533.7214   20891532.8244
 94  4 14  3  8 30.0000000  0  7G16G 6G24G17G13G20G 5
   -319864.60944   -249244.18944  21145640.5594   21145640.0154
 -16897022.99044 -13166499.90744  21863513.1834   21863512.2454
 -14109706.16744 -10994535.10544  22570829.2484   22570829.3304
  -5532564.70844  -4311084.50444  23593923.0564   23593923.5564
   3933866.232 4   3065368.678 4  25057094.134    25057092.868
  -1166499.64844   -908960.76744  20446769.6994   20446769.3354
 -20086832.41444 -15652069.25044  20903402.6844   20903402.0774
 94  4 14  3  9  0.0000000  0  7G16G 6G24G17G13G20G 5
   -340437.22344   -265274.79644  21141725.9574   21141725.0314
 -16960137.23944 -13215679.83544  21851502.9074   21851502.2954
 -14033008.75644 -10934770.90144  22585424.1424   22585424.1154
  -5618893.84044  -4378353.91144  23577494.7744   23577495.8884
   3996353.107 4   3114059.710 4  25068985.580    25068983.611
  -1175131.26044   -915686.70644  20445127.4054   20445126.9054
 -20023998.08944 -15603107.45544  20915359.6954   20915358.9104
 94  4 14  3  9 30.0000000  0  7G16G 6G24G17G13G20G 5
   -360399.20044   -280829.57744  21137927.0364   21137926.4404
 -17023146.24844 -13264777.75344  21839512.6274   21839512.6204
 -13956215.85544 -10874932.27644  22600037.1594   22600037.3664
  -5705001.37744  -4445450.65144  23561108.8524   23561110.6504
   4058859.448 4   3162765.902 4  25080879.932    25080878.520
  -1183158.08144   -921941.37544  20443599.6854   20443599.2144
 -19960698.37444 -15553783.02644  20927405.2524   20927404.7304
 94  4 14  3 10  0.0000000  0  7G16G 6G24G17G13G20G 5
   -379761.58944   -295917.12844  21134242.5334   21134242.0824
 -17086044.92144 -13313789.69844  21827543.5884   21827543.5774
 -13879324.89944 -10815017.25344  22614668.7184   22614669.0304
  -5790872.30744  -4512363.02344  23544768.3084   23544769.1144
   4121385.852 4   3211487.725 4  25092778.500    25092776.284
  -1190579.27144   -927724.12344  20442187.6044   20442187.1634
 -19896938.28844 -15504099.86044  20939538.2844   20939537.7154
 94  4 14  3 10 30.0000000  0  7G16G 6G24G17G13G20G 5
   -398533.27344   -310544.40444  21130670.5184   21130669.9214
 -17148840.44644 -13362721.26444  21815593.9834   21815593.5464
 -13802320.07444 -10755013.49744  22629322.3004   22629321.6634
  -5876504.12444  -4579089.07544  23528473.2474   23528474.8474
   4183930.867 4   3260224.039 4  25104680.211    25104678.813
  -1197396.18044   -933036.00644  20440890.3644   20440890.2854
 -19832685.42444 -15454032.71544  20951765.2054   20951764.5234
 94  4 14  3 11  0.0000000  0  7G16G 6G24G17G13G20G 5
   -416742.83944   -324733.67044  21127205.1884   21127204.6554
 -17211554.02044 -13411588.96244  21803659.9314   21803659.3994
 -13725236.04444 -10694948.03144  22643990.9574   22643990.5004
  -5961926.73744  -4645652.11944  23512217.7174   23512220.0164
   4246474.599 4   3308959.370 4  25116581.709    25116580.180
  -1203628.90844   -937892.68144  20439704.2284   20439703.9644
 -19767953.38644 -15403592.18344  20964083.4624   20964082.8784
 94  4 14  3 11 30.0000000  0  7G16G 6G24G17G13G20G 5
   -434390.13944   -338484.80344  21123847.0364   21123846.6104
 -17274178.83844 -13460387.50844  21791742.9604   21791742.3324
 -13648081.64944 -10634827.72544  22658672.9834   22658672.5794
  -6047124.45044  -4712039.89944  23496005.2994   23496007.2944
   4309016.611 4   3357693.380 4  25128483.485    25128481.896
  -1209277.86544   -942294.46544  20438629.3714   20438629.0064
 -19702751.01344 -15352785.16144  20976490.9334   20976490.0854
 94  4 14  3 12  0.0000000  0  7G 5G16G 6G24G17G13G20
 -19637074.49244 -15301608.66944  20988988.9714   20988988.1144
   -451466.35744   -351790.93544  21120597.7034   21120597.0694
 -17336719.64644 -13509120.59044  21779841.4304   21779840.8714
 -13570853.03744 -10574649.59344  22673369.4884   22673368.7694
  -6132097.78944  -4778252.86144  23479835.3294   23479836.3014
   4371555.451 4   3406424.862 4  25140384.138    25140382.150
  -1214344.29244   -946242.33744  20437665.1024   20437664.9374
 94  4 14  3 12 30.0000000  0  7G 5G16G 6G24G17G13G20
 -19570949.90544 -15250083.03544  21001571.9454   21001571.1444
   -467977.07444   -364656.41544  21117455.6024   21117455.1384
 -17399194.08844 -13557801.96244  21767953.0764   21767952.3724
 -13493568.53144 -10514427.90644  22688076.6324   22688076.1614
  -6216884.73144  -4844320.58444  23463700.4904   23463702.3654
   4434075.401 4   3455141.671 4  25152280.874    25152279.943
  -1218843.98644   -949748.59544  20436809.0954   20436808.9284
 94  4 14  3 13  0.0000000  0  7G 5G16G 6G24G17G13G20
 -19504408.06944 -15198232.28044  21014234.5634   21014233.4364
   -483913.68244   -377074.53644  21114422.9644   21114422.5514
 -17461589.40844 -13606421.67844  21756079.4304   21756079.0814
 -13416245.94244 -10454176.54544  22702790.2534   22702790.5574
  -6301498.29244  -4910253.18244  23447599.5204   23447602.3354
   4496577.421 4   3503844.520 4  25164175.144    25164173.508
  -1222776.10144   -952812.58544  20436060.6374   20436060.3984
 94  4 14  3 13 30.0000000  0  7G 5G16G 6G24G17G13G20
 -19437411.50044 -15146027.18144  21026983.5354   21026983.0004
   -499234.58044   -389012.89044  21111507.5514   21111506.9774
 -17523869.40244 -13654951.53144  21744227.9224   21744227.1064
 -13338841.75444 -10393861.60644  22717519.8854   22717519.8044
  -6385890.58944  -4976013.39344  23431540.3604   23431541.0134
   4559099.746 4   3552563.164 4  25176072.270    25176071.030
  -1226102.44744   -955404.54644  20435427.8524   20435427.2484
 94  4 14  3 14  0.0000000  0  7G 5G16G 6G24G17G13G20
 -19369960.18844 -15093467.74144  21039818.8874   21039818.1864
   -513950.12044   -400479.53444  21108707.1144   21108706.6124
 -17586032.37844 -13703390.19944  21732398.8584   21732398.0444
 -13261362.52944 -10333488.18544  22732263.9994   22732264.2774
  -6470079.79844  -5041615.32544  23415519.6044   23415521.2914
   4621643.763 4   3601298.738 4  25187973.947    25187972.797
  -1228821.78744   -957523.51444  20434910.2724   20434910.0954
 94  4 14  3 14 30.0000000  0  7G 5G16G 6G24G17G13G20
 -19302074.87544 -15040570.11844  21052737.1804   21052736.4954
   -528099.21044   -411504.78844  21106014.6734   21106014.2164
 -17648087.82044 -13751745.06944  21720589.9324   21720589.1404
 -13183833.21444 -10273075.74344  22747016.9244   22747016.3414
  -6554085.14644  -5107074.00244  23399533.6884   23399534.7434
   4684190.600 4   3650036.513 4  25199875.843    25199875.006
  -1230952.95544   -959184.17444  20434504.6944   20434504.3904
 94  4 14  3 15  0.0000000  0  7G 5G16G 6G24G17G13G20
 -19233731.74244 -14987315.75344  21065742.7034   21065742.0384
   -541674.35644   -422082.80544  21103431.3864   21103431.0724
 -17710023.87844 -13800006.92244  21708804.1244   21708803.2044
 -13106231.33644 -10212606.75044  22761783.9924   22761784.2524
  -6637874.91144  -5172364.68744  23383588.5854   23383590.2794
   4746759.006 4   3698791.073 4  25211783.184    25211781.623
  -1232477.74144   -960372.32444  20434214.7314   20434214.2684
 94  4 14  3 15 30.0000000  0  7G 5G16G 6G24G17G13G20
 -19164904.48944 -14933684.15044  21078840.0714   21078839.6754
   -554664.36344   -432204.87344  21100959.4234   21100958.9874
 -17771827.69344 -13848165.72644  21697043.4944   21697042.5074
 -13028524.23244 -10152055.76144  22776570.9124   22776571.3464
  -6721409.26844  -5237456.36944  23367692.8364   23367693.6464
   4809369.784 4   3747578.663 4  25223697.189    25223695.971
  -1233375.30344   -961071.72844  20434043.6004   20434042.9954
 94  4 14  3 16  0.0000000  0  7G 5G 6G16G24G17G13G20
 -19095586.69944 -14879670.31044  21092030.8064   21092030.1604
 -17833497.99844 -13896220.49244  21685308.0494   21685306.8644
   -567059.86244   -441863.69944  21098600.6924   21098600.1534
 -12950711.76044 -10091422.67944  22791378.0364   22791378.2414
  -6804678.81444  -5302341.68944  23351847.5094   23351849.3434
   4872026.441 4   3796402.013 4  25235620.708    25235619.605
  -1233642.43744   -961279.89244  20433992.9444   20433992.7144
 94  4 14  3 16 30.0000000  0  7G 5G16G 6G24G17G13G20
 -19025798.23544 -14825289.71444  21105311.0454   21105310.3744
   -578867.52244   -451064.45844  21096353.7444   21096353.1634
 -17895058.40444 -13944189.62644  21673593.3904   21673592.6114
 -12872811.53244 -10030721.20144  22806202.0754   22806202.3294
  -6887694.44344  -5367029.15344  23336050.1514   23336051.6484
   4934705.073 4   3845242.484 4  25247548.272    25247546.749
  -1233303.12944   -961015.51044  20434057.3914   20434057.2074
 94  4 14  3 17  0.0000000  0  7G 5G 6G16G24G17G13G20
 -18955563.77944 -14770561.58244  21118676.5234   21118675.6944
 -17956528.70844 -13992088.54744  21661895.9284   21661894.9094
   -590094.08244   -459812.41144  21094217.4924   21094216.8514
 -12794844.01044  -9969967.29844  22821038.3574   22821038.7984
  -6970470.77244  -5431530.15744  23320298.4134   23320300.0004
   4997385.127 4   3894084.032 4  25259475.568    25259474.401
  -1232378.39444   -960294.94044  20434233.6344   20434233.0894
 94  4 14  3 17 30.0000000  0  6G 5G 6G16G24G17G20
 -18884886.85744 -14715488.67944  21132125.9244   21132125.0804
 -18017908.82244 -14039917.19244  21650215.9274   21650215.1964
   -600746.17244   -468112.73144  21092190.3714   21092189.7914
 -12716827.39744  -9909175.14244  22835884.3254   22835885.4254
  -7053025.03844  -5495858.14044  23304588.8664   23304590.5754
  -1230879.06044   -959126.63144  20434518.6964   20434518.4424
 94  4 14  3 18  0.0000000  0  6G 5G 6G16G24G17G20
 -18813774.04844 -14660076.11844  21145658.2424   21145657.4464
 -18079204.17444 -14087679.79044  21638551.6104   21638550.8044
   -610827.20744   -475968.07244  21090271.9544   21090271.4084
 -12638781.38644  -9848360.08844  22850736.4604   22850736.6154
  -7135395.17344  -5560042.62744  23288914.1544   23288915.5314
  -1228814.60844   -957517.97944  20434911.7884   20434911.4754
 94  4 14  3 18 30.0000000  0  7G 5G 6G16G24G17G25G20
 -18742227.18244 -14604325.33144  21159273.1804   21159272.4334
 -18140400.42744 -14135365.16444  21626906.3354   21626905.5294
   -620343.67044   -483383.48444  21088461.1904   21088460.6624
 -12560696.38044  -9787514.63044  22865596.2834   22865595.2754
  -7217589.47844  -5624090.10044  23273272.6494   23273274.6634
        -0.47654        -0.45254  24790181.6214   24790187.2134
  -1226176.84144   -955462.57844  20435413.6044   20435413.2884
 94  4 14  3 19  0.0000000  0  7G 5G 6G16G24G17G25G20
 -18670235.86344 -14548228.21844  21172972.4794   21172971.9964
 -18201487.47044 -14182965.44644  21615281.5444   21615281.2824
   -629289.00544   -490353.86044  21086758.7904   21086758.3664
 -12482564.11144  -9726632.35244  22880464.3744   22880463.6164
  -7299592.86244  -5687988.79244  23257667.9714   23257669.1804
      1049.90144       818.04944  24790380.7644   24790381.3704
  -1222948.75944   -952947.19544  20436027.9054   20436027.6904
 94  4 14  3 19 30.0000000  0  7G 5G 6G16G24G17G25G20
 -18597766.23944 -14491758.40844  21186762.8114   21186762.3764
 -18262439.37444 -14230460.41744  21603682.9584   21603682.1404
   -637627.31844   -496851.23044  21085172.1124   21085171.6974
 -12404353.74444  -9665689.22244  22895346.9534   22895346.5004
  -7381380.08344  -5751719.05944  23242104.5094   23242105.6184
      2640.68144      2057.61244  24790682.6004   24790678.7034
  -1219096.09544   -949945.12444  20436761.1454   20436760.8544
 94  4 14  3 20  0.0000000  0  7G 5G 6G16G24G17G25G20
 -18524819.89344 -14434917.12344  21200644.2834   21200643.4434
 -18323251.35844 -14277846.36044  21592110.7014   21592110.2804
   -645343.80844   -502864.06944  21083703.6304   21083703.3424
 -12326062.58744  -9604683.13444  22910244.4154   22910244.2964
  -7462924.13744  -5815259.85144  23226587.0164   23226587.9254
      4777.35544      3722.53344  24791088.9304   24791099.4984
  -1214608.70444   -946448.46244  20437614.7644   20437614.5984
 94  4 14  3 20 30.0000000  0  7G 5G 6G16G24G17G25G20
 -18451444.89344 -14377741.81344  21214606.9104   21214606.6574
 -18383956.36844 -14325148.94644  21580558.5714   21580558.5084
   -652477.33944   -508422.64744  21082346.1794   21082345.7364
 -12247724.44544  -9543640.44044  22925151.8614   22925151.7914
  -7544243.18044  -5878625.28744  23211112.6164   23211113.2834
      7410.33544      5774.21544  24791589.7824   24791584.0344
  -1209523.70944   -942486.13544  20438582.7254   20438582.3754
 94  4 14  3 21  0.0000000  0  7G 5G 6G16G24G17G25G20
 -18377642.53544 -14320233.50944  21228651.0514   21228650.5544
 -18444551.92944 -14372366.24544  21569027.7434   21569027.3254
   -659008.88044   -513512.14644  21081103.0974   21081102.5964
 -12169346.95544  -9482567.08344  22940067.0174   22940066.5524
  -7625325.00844  -5941805.87844  23195683.2614   23195683.4724
     10532.09744      8206.82044  24792188.3774   24792189.1794
  -1203838.11944   -938055.80844  20439664.5254   20439664.1044
 94  4 14  3 21 30.0000000  0  7G 5G 6G16G24G17G25G20
 -18303431.60244 -14262406.82544  21242773.0724   21242772.2964
 -18505047.40244 -14419505.55944  21557515.8794   21557515.4534
   -664948.84144   -518140.67044  21079972.8894   21079972.3634
 -12090939.80444  -9421470.61044  22954986.7744   22954987.1714
  -7706174.90044  -6004805.75944  23180297.8644   23180298.5934
     14113.59744     10997.50044  24792868.1684   24792866.5084
  -1197561.71344   -933165.10944  20440858.9924   20440858.6994
 94  4 14  3 22  0.0000000  0  7G 5G 6G16G24G17G25G20
 -18228830.32544 -14204275.98144  21256969.0224   21256968.3934
 -18565441.99244 -14466566.26044  21546023.0834   21546022.7824
   -670307.15144   -522315.97044  21078953.3224   21078952.8054
 -12012510.65444  -9360357.00344  22969910.9624   22969910.7984
  -7786788.91744  -6067621.83744  23164957.4204   23164958.7124
     18124.49644     14122.97444  24793629.5614   24793630.0764
  -1190696.18344   -927815.35244  20442165.3734   20442165.1614
 94  4 14  3 22 30.0000000  0  7G 6G 5G16G24G17G25G20
 -18625729.03644 -14513543.15644  21534550.7944   21534550.3374
 -18153835.90044 -14145838.79144  21271240.0014   21271239.3534
   -675086.32244   -526039.99144  21078043.6164   21078043.3554
 -11934046.35644  -9299216.00944  22984842.9604   22984842.6094
  -7867171.63644  -6130257.68644  23149661.2304   23149661.9584
     22574.47744     17590.23444  24794476.6204   24794466.9404
  -1183235.89444   -922002.14844  20443585.0674   20443584.7754
 94  4 14  3 23  0.0000000  0  7G 6G 5G16G24G17G25G20
 -18685884.50144 -14560417.52344  21523103.6484   21523103.1454
 -18078419.62444 -14087072.88844  21285591.4724   21285591.0144
   -679257.79444   -529290.46944  21077250.0644   21077249.4544
 -11855519.94944  -9238026.60944  22999786.6964   22999786.8184
  -7947285.59544  -6192684.10644  23134415.7134   23134415.7404
     27496.00444     21425.41244  24795410.2454   24795415.0464
  -1175152.72644   -915703.58044  20445123.2764   20445122.9884
 94  4 14  3 23 30.0000000  0  7G 5G 6G16G24G17G25G20
 -18002585.93144 -14027981.72144  21300022.0424   21300021.5214
 -18745902.28244 -14607184.61144  21511682.7224   21511682.3174
   -682835.65744   -532078.40744  21076569.1494   21076568.5424
 -11776919.15244  -9176779.24544  23014743.6584   23014744.0964
  -8027136.76544  -6254905.74044  23119220.9044   23119221.6184
     32905.16344     25640.36044  24796440.1234   24796439.8774
  -1166449.90544   -908922.16644  20446779.3394   20446779.1564
 94  4 14  3 24  0.0000000  0  7G 6G 5G16G24G17G25G20
 -18805769.31544 -14653834.23244  21500290.3204   21500289.9914
 -17926331.91544 -13968563.02844  21314532.5934   21314532.4444
   -685821.76944   -534405.23744  21076000.7004   21076000.3144
 -11698246.24744  -9115475.69744  23029714.7524   23029714.9264
  -8106740.74744  -6316934.76444  23104072.5744   23104074.2954
     38808.98944     30240.77744  24797565.9684   24797566.9384
  -1157134.60544   -901663.50144  20448552.2174   20448551.8514
 94  4 14  3 24 30.0000000  0  7G16G 6G 5G24G17G25G20
   -688218.86644   -536273.09144  21075544.8974   21075544.2434
 -18865486.88944 -14700367.39144  21488926.1644   21488925.9894
 -17849649.82644 -13908810.77244  21329125.1504   21329124.1074
 -11619503.00544  -9054117.34244  23044698.0744   23044698.3734
  -8186104.47044  -6378776.57644  23088969.7804   23088970.3354
     45218.76344     35235.42244  24798787.6004   24798796.3114
  -1147217.18244   -893935.64344  20450439.2484   20450438.9254
 94  4 14  3 25  0.0000000  0  6G16G 6G 5G24G17G20
   -690029.33244   -537683.83144  21075200.1474   21075199.7634
 -18925050.24244 -14746780.37744  21477591.5974   21477591.5164
 -17772546.21944 -13848730.05244  21343797.2144   21343796.8024
 -11540698.23644  -8992711.04044  23059694.0174   23059695.2184
  -8265241.86444  -6440442.05944  23073910.8314   23073910.3354
  -1136705.34544   -885744.60244  20452439.5114   20452439.4424
 94  4 14  3 25 30.0000000  0  7G16G 6G 5G24G17G12G20
   -691276.95444   -538655.99444  21074962.7834   21074962.1374
 -18984482.29544 -14793091.05844  21466282.1934   21466281.8994
 -17695042.88944 -13788337.87044  21358545.5664   21358544.9554
 -11461859.72344  -8931278.44744  23074696.7274   23074697.4364
  -8344193.96644  -6501963.12744  23058886.5714   23058887.1424
        -0.52714        -0.19914  25467769.249    25467764.969
  -1125622.70244   -877108.78544  20454548.5494   20454548.2524
 94  4 14  3 26  0.0000000  0  7G16G 6G 5G24G17G12G20
   -691944.18244   -539175.90444  21074835.8494   21074835.5054
 -19043779.42344 -14839296.59944  21454998.3234   21454997.7684
 -17617123.67844 -13727621.62044  21373373.1054   21373372.4654
 -11382981.79444  -8869815.12144  23089707.1144   23089707.6154
  -8422946.80444  -6563328.92444  23043900.6874   23043902.0054
    103645.253 4     80762.693 4  25487492.566    25487488.614
  -1113954.45644   -868016.65344  20456768.6774   20456768.4744
 94  4 14  3 26 30.0000000  0  7G16G 6G 5G24G17G12G20
   -692018.74744   -539233.99444  21074821.4964   21074820.9754
 -19102937.03844 -14885393.43244  21443741.1194   21443740.8364
 -17538784.29744 -13666577.96144  21388280.5634   21388280.2134
 -11304055.54444  -8808314.17244  23104726.6204   23104727.7534
  -8501487.69244  -6624529.56744  23028955.0534   23028956.9594
    207137.706 4    161406.039 4  25507186.280    25507183.003
  -1101683.39144   -858454.79244  20459104.0894   20459103.7074
 94  4 14  3 27  0.0000000  0  7G16G 6G 5G24G17G12G20
   -691526.36644   -538850.30944  21074915.2964   21074914.6764
 -19161988.43944 -14931407.50244  21432503.8884   21432503.2684
 -17460055.28544 -13605230.69844  21403262.4674   21403262.0094
 -11225103.49544  -8746793.00744  23119749.7954   23119748.2334
  -8579843.78944  -6685586.21444  23014044.4044   23014045.2164
    310455.908 4    241913.562 4  25526846.543    25526843.652
  -1088827.90644   -848437.53644  20461550.2254   20461550.0204
 94  4 14  3 27 30.0000000  0  6G16G 6G 5G24G17G20
   -690439.74644   -538003.58144  21075122.0444   21075121.6254
 -19220934.36144 -14977339.37944  21421286.7524   21421286.5004
 -17380912.86644 -13543561.29644  21418323.0134   21418322.0654
 -11146117.42044  -8685245.52244  23134780.6344   23134781.5154
  -8657988.69044  -6746478.29644  22999173.3174   22999174.7654
  -1075369.30744   -837950.32544  20464111.4144   20464111.1024
 94  4 14  3 28  0.0000000  0  6G16G 6G 5G24G17G20
   -688785.78744   -536714.77644  21075436.9424   21075436.1384
 -19279794.37044 -15023204.31144  21410086.1974   21410085.9844
 -17301383.78744 -13481590.59844  21433456.5004   21433456.1854
 -11067132.12444  -8623698.54944  23149810.9464   23149811.4494
  -8735937.11344  -6807217.28444  22984340.5404   22984341.0594
  -1061332.51744   -827012.57544  20466782.5244   20466782.1554
 94  4 14  3 28 30.0000000  0  6G16G 6G 5G24G17G20
   -686518.74944   -534948.24344  21075868.0804   21075867.6354
 -19338516.97844 -15068962.17144  21398911.6604   21398911.4874
 -17221432.19144 -13419290.68544  21448670.5584   21448670.4644
 -10988113.89444  -8562125.90744  23164848.5124   23164848.4814
  -8813637.15844  -6867762.72044  22969553.7244   22969555.3144
  -1046677.36944   -815592.98844  20469571.3244   20469571.0524
 94  4 14  3 29  0.0000000  0  6G16G 6G 5G24G17G20
   -683602.31444   -532675.68144  21076423.2064   21076422.5664
 -19397081.88944 -15114597.15644  21387767.1954   21387766.7534
 -17141041.10644 -13356648.30344  21463969.2484   21463968.0554
 -10909048.91444  -8500516.84244  23179893.6754   23179893.8654
  -8891050.01244  -6928084.38044  22954822.7214   22954824.3964
  -1031384.29344   -803676.31044  20472481.6524   20472481.3234
 94  4 14  3 29 30.0000000  0  6G16G 6G 5G17G24G20
   -680063.09544   -529917.84144  21077096.6084   21077096.1474
 -19455503.63344 -15160120.58044  21376649.9714   21376649.4174
 -17060247.27944 -13293692.08044  21479343.3344   21479342.2954
  -8968198.14144  -6988199.74944  22940141.5694   22940142.3384
 -10829980.82544  -8438905.36544  23194939.9484   23194940.6034
  -1015487.16444   -791288.94144  20475506.6474   20475506.3684
 94  4 14  3 30  0.0000000  0  7G16G 6G 5G17G24G25G20
   -675911.03944   -526682.46344  21077886.6054   21077886.2404
 -19513752.90744 -15205509.61344  21365565.5474   21365564.9964
 -16979059.82644 -13230429.15644  21494792.6094   21494792.4164
  -9045068.10144  -7048098.38444  22925514.1084   22925514.8664
 -10750889.14644  -8377275.48544  23209991.1934   23209991.3844
         0.11854         1.02654  24818111.7074   24818111.7094
   -998978.40844   -778424.98644  20478648.5134   20478648.1144
 94  4 14  3 30 30.0000000  0  7G16G 6G 5G17G24G25G20
   -671137.95744   -522963.16944  21078795.0414   21078794.4804
 -19571837.41944 -15250770.25844  21354512.3344   21354511.7864
 -16897473.92544 -13166855.74844  21510318.1014   21510317.8584
  -9121658.72844  -7107779.33544  22910939.2564   22910940.0244
 -10671759.97944  -8315616.41144  23225048.3164   23225048.3144
     12017.80444      9365.49844  24820398.4584   24820394.3434
   -981856.28944   -765083.08044  20481906.3304   20481905.9254
 94  4 14  3 31  0.0000000  0  7G16G 6G 5G17G24G25G20
   -665773.54044   -518783.08844  21079815.6264   21079815.0804
 -19629775.49644 -15295916.79144  21343487.0794   21343486.4384
 -16815498.47044 -13102978.78544  21525917.6254   21525916.8774
  -9197999.48144  -7167265.59544  22896412.9204   22896414.1844
 -10592597.77944  -8253931.58544  23240112.4564   23240111.4384
     24471.65144     19069.74744  24822767.1714   24822763.5684
   -964135.42344   -751274.62044  20485278.7414   20485278.3544
 94  4 14  3 31 30.0000000  0  7G 6G 5G16G17G24G25G20
 -19687564.57444 -15340947.22644  21332490.2544   21332489.4064
 -16733134.53344 -13038799.10644  21541590.6314   21541590.2034
   -659846.71644   -514164.77944  21080943.6704   21080942.9064
  -9274111.96844  -7226573.98944  22881929.3384   22881930.2574
 -10513389.58444  -8192210.93444  23255185.0874   23255185.9044
     37363.34344     29115.30144  24825219.9094   24825215.1514
   -945821.07444   -737003.70344  20488763.5824   20488763.2524
 94  4 14  3 32  0.0000000  0  7G 6G 5G16G17G24G25G20
 -19745195.75744 -15385854.62944  21321523.3774   21321522.4974
 -16650363.01044 -12974301.83644  21557342.0274   21557341.6374
   -653336.85044   -509092.14744  21082182.4434   21082181.8814
  -9349976.66544  -7285689.30344  22867492.7824   22867494.4624
 -10434099.86344  -8130426.74944  23270272.7934   23270273.7984
     50719.79944     39522.90944  24827761.3164   24827761.9154
   -926894.58444   -722255.79644  20492365.2704   20492365.1044
 94  4 14  3 32 30.0000000  0  7G 6G 5G16G17G24G25G20
 -19802680.36844 -15430647.81544  21310584.5654   21310583.6024
 -16567191.31544 -12909492.74444  21573168.7794   21573168.8014
   -646242.99944   -503564.46044  21083532.4274   21083531.6164
  -9425613.09344  -7344626.73644  22853099.4574   22853100.0164
 -10354749.31244  -8068595.16644  23285373.1494   23285372.3834
     64549.58844     50299.23644  24830393.8064   24830389.0864
   -907365.64544   -707038.44644  20496081.4774   20496081.2504
 94  4 14  3 33  0.0000000  0  7G 6G 5G16G17G24G25G20
 -19860008.97844 -15475319.43944  21299675.3834   21299674.4384
 -16483652.79844 -12844397.81544  21589065.5894   21589065.2124
   -638582.16844   -497594.97544  21084990.1434   21084989.5524
  -9501039.16444  -7403400.25444  22838745.9984   22838747.1814
 -10275359.68744  -8006733.13744  23300480.3134   23300480.6134
     78843.01444     61437.12644  24833114.6434   24833126.4464
   -887249.09544   -691363.21344  20499909.7004   20499909.2604
 94  4 14  3 33 30.0000000  0  7G 6G 5G16G17G24G25G20
 -19917189.37144 -15519875.57244  21288794.1694   21288793.3534
 -16399764.55744 -12779030.36544  21605028.9904   21605028.3834
   -630340.71844   -491173.05644  21086558.6624   21086557.9634
  -9576254.66044  -7462009.68144  22824432.5444   22824433.7044
 -10195956.12144  -7944860.23944  23315590.1914   23315590.7144
     93598.09444     72934.54744  24835922.6094   24835921.6224
   -866553.37144   -675236.67744  20503847.8614   20503847.4944
 94  4 14  3 34  0.0000000  0  7G 6G 5G16G17G24G25G20
 -19974207.77544 -15564305.47844  21277943.7434   21277942.9884
 -16315511.51544 -12713378.66544  21621061.9554   21621061.5574
   -621487.26244   -484274.24744  21088243.1014   21088242.5024
  -9651240.16244  -7520439.89244  22810163.4764   22810164.0804
 -10116547.19044  -7882983.16844  23330701.6034   23330702.2044
    108830.97944     84804.28244  24838821.7184   24838821.0224
   -845261.35444   -658645.50444  20507899.6884   20507899.5284
 94  4 14  3 34 30.0000000  0  7G 6G 5G16G17G24G25G20
 -20031072.99444 -15608616.02144  21267122.8174   21267122.1584
 -16230923.12544 -12647465.65544  21637158.5254   21637158.0904
   -612045.51444   -476917.02944  21090039.8884   21090039.2174
  -9726020.89444  -7578710.54344  22795932.7144   22795933.4694
 -10037167.87244  -7821129.15244  23345807.9144   23345806.1824
    124517.87244     97027.80244  24841806.3144   24841809.6654
   -823394.58244   -641606.46844  20512060.7894   20512060.4954
 94  4 14  3 35  0.0000000  0  7G 6G 5G16G17G24G25G20
 -20087770.88044 -15652796.17944  21256333.5834   21256333.1324
 -16145960.38044 -12581260.93844  21653326.5084   21653326.3454
   -601979.92844   -469073.70744  21091955.2774   21091954.7324
  -9800556.17244  -7636789.92144  22781749.3264   22781749.4134
  -9957779.74144  -7759268.30744  23360914.8144   23360914.5994
    140679.95644    109621.64444  24844881.2144   24844885.2114
   -800923.89744   -624096.84444  20516336.8674   20516336.3504
 94  4 14  3 35 30.0000000  0  6G 6G16G 5G17G24G20
 -20144326.37644 -15696865.38144  21245571.4074   21245570.5004
   -591291.07144   -460744.71644  21093989.2074   21093988.6914
 -16060610.85844 -12514754.83244  21669567.8844   21669567.2594
  -9874835.21944  -7694669.64344  22767614.6294   22767615.4454
  -9878381.09944  -7697399.23044  23376023.2884   23376023.1174
   -777852.90044   -606119.44844  20520727.0044   20520726.6674
 94  4 14  3 36  0.0000000  0  6G 6G16G 5G17G24G20
 -20200746.88544 -15740829.40044  21234834.9994   21234834.2034
   -580015.27744   -451958.37144  21096135.0304   21096134.4844
 -15974892.97444 -12447961.68644  21685879.1744   21685879.0184
  -9948864.22144  -7752354.52744  22753527.1084   22753527.5554
  -9798971.95144  -7635521.99444  23391135.2834   23391134.3534
   -754200.16044   -587688.75144  20525227.9514   20525227.6744
 94  4 14  3 36 30.0000000  0  6G 6G16G 5G24G17G20
 -20257003.23944 -15784665.50344  21224129.6754   21224128.6744
   -568131.46144   -442698.24444  21098396.4954   21098395.7554
 -15888771.27944 -12380853.90244  21702268.1534   21702267.9584
  -9719507.94744  -7573601.99144  23406257.0004   23406255.2664
 -10022611.63544  -7809819.97944  22739493.4304   22739494.7434
   -729938.49444   -568783.56244  20529845.0864   20529844.8144
 94  4 14  3 37  0.0000000  0  6G 6G16G 5G17G24G20
 -20313107.19444 -15828382.85544  21213453.2984   21213452.1914
   -555646.84544   -432969.96644  21100772.1984   21100771.4604
 -15802242.49444 -12313428.88844  21718733.9764   21718733.2754
 -10096081.88344  -7867069.47044  22725512.9084   22725513.3284
  -9639989.48344  -7511639.57744  23421387.8464   23421387.3414
   -705070.56644   -549405.96344  20534576.8444   20534576.7204
 94  4 14  3 37 30.0000000  0  6G 6G16G 5G17G24G20
 -20369064.80944 -15871986.17144  21202804.9074   21202804.2154
   -542612.20844   -422813.08444  21103252.4384   21103252.2904
 -15715351.62644 -12245721.72744  21735268.5434   21735267.7654
 -10169311.19744  -7924131.22544  22711577.7054   22711578.5954
  -9560447.56044  -7449658.85944  23436523.8134   23436525.2604
   -679622.33044   -529576.17044  20539419.7204   20539419.9274
 94  4 14  3 38  0.0000000  0  6G 6G16G 5G17G24G20
 -20424868.33144 -15915469.42444  21192185.6614   21192185.1694
   -529035.08344   -412233.49644  21105836.4954   21105835.9624
 -15628115.28144 -12177745.38044  21751868.7214   21751868.9634
 -10242310.45844  -7981013.74044  22697686.2754   22697687.5034
  -9480891.45544  -7387667.10944  23451664.4024   23451662.7184
   -653594.68244   -509294.90144  20544372.4704   20544372.2354
 94  4 14  3 38 30.0000000  0  6G 6G16G 5G17G24G20
 -20480518.11644 -15958832.88344  21181595.6854   21181595.1054
   -514893.18744   -401213.83444  21108527.1444   21108526.4984
 -15540534.03844 -12109500.27944  21768535.3664   21768534.8794
 -10315080.41344  -8037717.54944  22683838.8364   22683839.8774
  -9401324.13744  -7325666.60544  23466804.2624   23466803.8534
   -626973.99344   -488551.52044  20549438.2634   20549437.9894
 94  4 14  3 39  0.0000000  0  6G 6G16G 5G17G24G20
 -20536026.98644 -16002086.53544  21171032.7534   21171032.1014
   -500210.77944   -389772.98544  21111321.4774   21111320.8864
 -15452647.84744 -12041017.55544  21785259.6964   21785259.2294
 -10387639.65944  -8094257.17244  22670031.2964   22670032.1554
  -9321773.27744  -7263678.94344  23481942.7084   23481941.9984
   -599785.98844   -467366.06944  20554612.0474   20554611.7734
 94  4 14  3 39 30.0000000  0  6G 6G16G 5G17G24G20
 -20591360.76844 -16045203.75944  21160503.3204   21160502.9154
   -484959.12744   -377888.56944  21114223.3874   21114222.9874
 -15364438.61144 -11972283.09944  21802045.1584   21802044.5824
 -10459956.63844  -8150608.01644  22656269.6894   22656270.9214
  -9242226.21844  -7201694.24144  23497079.3174   23497079.8744
   -572011.68844   -445723.76744  20559897.0984   20559896.9314
 94  4 14  3 40  0.0000000  0  6G 6G16G 5G17G24G20
 -20646516.82444 -16088182.49244  21150007.6214   21150006.9774
   -469113.35944   -365541.20944  21117238.9594   21117238.0864
 -15275890.53844 -11903284.61544  21818895.1404   21818895.3734
 -10532018.05344  -8206759.72644  22642556.6354   22642557.1164
  -9162689.67644  -7139717.70744  23512215.0944   23512214.6274
   -543647.77144   -423622.02044  20565294.9694   20565294.6544
 94  4 14  3 40 30.0000000  0  6G 6G16G 5G17G24G20
 -20701474.06644 -16131006.30544  21139549.5614   21139548.6774
   -452661.77644   -352721.78344  21120369.5144   21120368.9064
 -15186982.32944 -11834005.50544  21835814.1354   21835813.6064
 -10603809.35144  -8262700.95544  22628894.9674   22628895.2394
  -9083144.72244  -7077734.66044  23527351.7394   23527351.0724
   -514686.65844   -401054.92044  20570805.9644   20570805.5714
 94  4 14  3 41  0.0000000  0  6G 6G16G 5G17G24G20
 -20756241.82644 -16173682.46844  21129127.6974   21129126.7514
   -435634.57444   -339453.81644  21123609.6904   21123609.0494
 -15097735.65544 -11764462.65644  21852797.3074   21852797.1894
 -10675355.37044  -8318451.05244  22615280.1954   22615281.4264
  -9003612.87344  -7015761.81144  23542485.8664   23542486.0474
   -485157.20744   -378044.96944  20576425.2054   20576424.9594
 94  4 14  3 41 30.0000000  0  6G 6G16G 5G17G24G20
 -20810824.22444 -16216214.19344  21118740.8974   21118739.8074
   -418022.00844   -325729.72844  21126961.0314   21126960.4844
 -15008145.40244 -11694652.08144  21869845.7014   21869845.3514
 -10746664.68044  -8374016.69844  22601710.4344   22601710.7064
  -8924096.26744  -6953800.82444  23557618.6084   23557619.1034
   -455052.54944   -354586.80644  20582154.1624   20582153.7554
 94  4 14  3 42  0.0000000  0  6G 6G16G 5G17G24G20
 -20865219.31644 -16258599.96444  21108389.8734   21108389.0184
   -399823.37344   -311548.96444  21130424.2044   21130423.5674
 -14918212.23544 -11624574.29544  21886959.1814   21886959.3274
 -10817740.82444  -8429400.65244  22588185.3074   22588185.7984
  -8844572.41444  -6891834.22044  23572751.6184   23572750.1854
   -424361.22144   -330671.48144  20587994.3514   20587993.9074
 94  4 14  3 42 30.0000000  0  6G 6G16G 5G17G24G20
 -20919415.20644 -16300830.51644  21098076.7334   21098075.7464
   -381035.34844   -296908.92944  21133999.2824   21133999.0034
 -14827934.64944 -11554228.15044  21904138.2514   21904137.7274
 -10888579.85344  -8484599.84844  22574705.1564   22574706.0394
  -8765014.87244  -6829841.32944  23587889.9514   23587889.9934
   -393071.53144   -306289.90744  20593948.6304   20593948.3084
 94  4 14  3 43  0.0000000  0  6G 6G16G 5G17G24G20
 -20973436.50844 -16342925.02544  21087796.6024   21087795.5994
   -361666.92144   -281816.63644  21137685.2544   21137684.6864
 -14737335.51744 -11483631.42844  21921379.1884   21921378.4474
 -10959199.73644  -8539628.26844  22561266.5104   22561266.6614
  -8685440.28644  -6767835.17744  23603033.4464   23603032.9184
   -361195.68744   -281451.59944  20600014.3004   20600014.1164
 94  4 14  3 43 30.0000000  0  6G 6G16G 5G17G24G20
 -21027271.92944 -16384874.68744  21077551.9334   21077551.2774
   -341696.11244   -266254.96144  21141485.3854   21141484.9884
 -14646387.04944 -11412762.50644  21938686.0504   21938685.4314
 -11029575.73944  -8594466.66244  22547874.0364   22547874.0654
  -8605821.89844  -6705794.88744  23618184.3004   23618182.8444
   -328714.93844   -256141.93444  20606195.1484   20606194.9854
 94  4 14  3 44  0.0000000  0  6G 6G16G 5G17G24G20
 -21080913.68244 -16426673.44144  21067344.2394   21067343.7014
   -321117.49544   -250219.65944  21145401.4754   21145401.1854
 -14555083.64244 -11341617.00844  21956060.5484   21956060.1034
 -11099677.57444  -8649091.42044  22534533.9754   22534534.6434
  -8526144.55944  -6643708.64244  23633346.2014   23633344.8204
   -295628.92244   -230360.62644  20612491.3904   20612491.1984
 94  4 14  3 44 30.0000000  0  6G 6G16G 5G17G24G20
 -21134372.44544 -16468329.60544  21057171.4294   21057170.9694
   -299936.14644   -233714.70444  21149432.2024   21149431.7414
 -14463433.84144 -11270201.59944  21973500.6004   21973500.8914
 -11169499.26644  -8703497.88844  22521246.9484   22521248.0334
  -8446424.04644  -6581588.77744  23648516.9264   23648515.0894
   -261953.69644   -204120.19344  20618899.4164   20618898.9464
 94  4 14  3 45  0.0000000  0  6G 6G16G 5G17G24G20
 -21187679.81644 -16509867.80144  21047027.3334   21047026.9994
   -278179.53544   -216761.49344  21153572.2134   21153571.6264
 -14371475.31544 -11198545.62244  21991000.2134   21990999.3054
 -11239059.12944  -8757700.32144  22508010.3234   22508011.1004
  -8366696.07144  -6519463.09444  23663687.7334   23663685.3834
   -227723.88444   -177447.62344  20625413.0754   20625412.9784
 94  4 14  3 45 30.0000000  0  6G 6G16G 5G17G24G20
 -21240826.03544 -16551280.42244  21036913.9814   21036913.4664
   -255851.02244   -199362.64044  21157821.2124   21157820.8854
 -14279214.30144 -11126653.93344  22008556.7294   22008556.0734
 -11308345.94744  -8811689.98844  22494826.1124   22494826.4624
  -8286976.00744  -6457343.57344  23678859.0914   23678856.9544
   -192941.31044   -150344.33644  20632032.1364   20632031.9574
 94  4 14  3 46  0.0000000  0  6G 6G16G 5G17G24G20
 -21293821.56244 -16592575.62344  21026829.2724   21026828.4324
   -232965.25244   -181529.56444  21162176.0754   21162175.3714
 -14186681.16344 -11054550.19744  22026165.2444   22026164.8634
 -11377370.61144  -8865475.40044  22481691.1334   22481691.6274
  -8207295.60444  -6395254.95644  23694022.1264   23694021.2534
   -157618.01044   -122819.69144  20638753.9584   20638753.4024
 94  4 14  3 46 30.0000000  0  5G 6G 5G17G24G20
 -21346664.09244 -16633751.60444  21016773.8034   21016772.8564
 -14093884.02244 -10982240.74844  22043823.8854   22043823.0714
 -11446154.80344  -8919073.43544  22468601.1764   22468601.6024
  -8127663.70844  -6333204.14444  23709174.6894   23709174.5814
   -121752.14244    -94872.25544  20645578.8654   20645578.6054
 94  4 14  3 47  0.0000000  0  5G 6G 5G17G24G20
 -21399313.93944 -16674777.44444  21006755.2014   21006754.0324
 -14000802.00444 -10909709.31244  22061537.0714   22061536.6774
 -11514694.67644  -8972481.07244  22455558.5244   22455559.4284
  -8048061.98344  -6271176.83644  23724322.9874   23724323.2624
    -85316.61844    -66480.94944  20652512.4084   20652512.3024
 94  4 14  3 47 30.0000000  0  6G 6G 5G17G24G23G20
 -21451742.63544 -16715630.96144  20996778.4614   20996777.2564
 -13907397.38844 -10836926.50144  22079310.9484   22079310.9114
 -11582980.65644  -9025690.87544  22442564.5754   22442565.0824
  -7968469.76344  -6209156.94044  23739466.9954   23739467.8294
         0.15454         0.61754  25306754.7204   25306756.7864
    -48283.10844    -37623.68344  20659559.6424   20659559.2914
 94  4 14  3 48  0.0000000  0  6G 5G17G24G23G20G 6
 -13813692.61644 -10763909.80044  22097142.3474   22097142.1654
 -11651059.17444  -9078739.01844  22429609.6524   22429610.0304
  -7888897.25844  -6147152.40844  23754609.8794   23754610.3214
   -108006.82444    -84160.70944  25286199.8854   25286200.9484
    -10681.11644     -8323.43244  20666715.0934   20666714.6564
 -21503982.17044 -16756337.07744  20986837.2864   20986836.1804
 94  4 14  3 48 30.0000000  0  6G 5G17G24G23G20G 6
 -13719652.37144 -10690631.69544  22115037.8184   22115037.2574
 -11718911.78644  -9131611.14244  22416697.8754   22416698.5914
  -7809304.52944  -6085132.11644  23769755.7654   23769757.4324
   -216012.45544   -168320.81844  25265648.3674   25265648.8394
     27515.04344     21439.80444  20673983.6304   20673983.2564
 -21555993.05444 -16796865.02944  20976939.5854   20976938.7734
 94  4 14  3 49  0.0000000  0  6G 5G17G24G23G20G 6
 -13625289.46244 -10617102.15344  22132994.6174   22132994.1004
 -11786544.34544  -9184311.78744  22403827.2394   22403826.9034
  -7729714.60444  -6023114.00344  23784901.0564   23784900.7374
   -324042.90744   -252500.37844  25245090.8294   25245091.6454
     66286.27144     51651.14244  20681361.5064   20681361.2224
 -21607787.92844 -16837224.65444  20967083.0714   20967082.5234
 94  4 14  3 49 30.0000000  0  5G 5G17G24G 6G20
 -13530601.37244 -10543319.22844  22151013.2434   22151013.1264
 -11853941.51544  -9236829.00244  22391002.0724   22391003.0734
  -7650128.19344  -5961098.62844  23800046.6464   23800047.1944
 -21659377.87244 -16877424.59444  20957265.9104   20957265.0544
    105628.85344     82307.69544  20688848.3074   20688848.0124
 94  4 14  3 50  0.0000000  0  5G 5G17G24G 6G20
 -13435637.26244 -10469321.22844  22169084.3514   22169083.5834
 -11921111.55244  -9289169.23544  22378220.1894   22378220.4484
  -7570570.38744  -5899105.54044  23815185.4904   23815184.4034
 -21710781.37144 -16917479.25344  20947484.4344   20947483.4674
    145510.46844    113384.27244  20696437.4864   20696437.1614
 94  4 14  3 50 30.0000000  0  5G 5G17G24G 6G20
 -13340365.47344 -10395083.48644  22187214.1524   22187213.6844
 -11987997.87744  -9341288.40944  22365492.2404   22365492.6784
  -7491004.87344  -5837106.44944  23830326.8044   23830326.5584
 -21761954.65944 -16957354.53044  20937746.9854   20937745.7524
    185968.32944    144909.86944  20704136.2914   20704136.0214
 94  4 14  3 51  0.0000000  0  5G 5G17G24G 6G20
 -13244787.36344 -10320607.03444  22205401.6374   22205401.1014
 -12054603.88044  -9393189.13644  22352817.7414   22352817.9464
  -7411437.60044  -5775105.98344  23845466.6244   23845465.7664
 -21812917.78244 -16997066.04144  20928049.1254   20928047.6964
    226991.65644    176876.09244  20711942.7664   20711942.4744
 94  4 14  3 51 30.0000000  0  5G 5G17G24G 6G20
 -13148901.95844 -10245891.14144  22223648.0794   22223647.6384
 -12120921.06844  -9444864.82844  22340197.2784   22340197.5324
  -7331848.29744  -5713088.37344  23860612.9324   23860613.8704
 -21863669.00544 -17036612.43244  20918391.5224   20918390.2624
    268588.19944    209288.96744  20719858.2404   20719858.0564
 94  4 14  3 52  0.0000000  0  5G 5G17G24G 6G20
 -13052730.80344 -10170952.58744  22241948.5224   22241948.9164
 -12186966.10144  -9496328.44344  22327629.3774   22327629.8254
  -7252245.79644  -5651060.45044  23875761.5274   23875760.2214
 -21914224.82944 -17076006.56644  20908770.6404   20908769.6034
    310743.76544    242137.44944  20727880.3094   20727879.9324
 94  4 14  3 52 30.0000000  0  5G 5G17G24G 6G20
 -12956270.15344 -10095788.45244  22260304.3614   22260303.9194
 -12252766.46644  -9547601.41244  22315108.1444   22315108.4774
  -7172640.52844  -5589030.37444  23890910.4904   23890908.0914
 -21964602.78644 -17115262.10844  20899183.7664   20899183.1564
    353449.12144    275414.34544  20736006.7884   20736006.6434
 94  4 14  3 53  0.0000000  0  5G 5G17G24G 6G20
 -12859540.22944 -10020414.49444  22278712.1274   22278711.7564
 -12318349.63544  -9598705.14044  22302628.1414   22302628.5674
  -7093057.79744  -5527017.87444  23906053.9724   23906052.9104
 -22014813.01444 -17154386.94844  20889628.6834   20889628.1244
    396689.99044    309108.51844  20744235.1814   20744235.1284
 94  4 14  3 53 30.0000000  0  5G 5G17G24G 6G20
 -12762578.34044  -9944859.78444  22297162.9994   22297161.9624
 -12383723.88844  -9649646.07744  22290187.5074   22290188.1154
  -7013515.15644  -5465036.59944  23921190.6164   23921189.0624
 -22064855.58944 -17193381.14544  20880105.8314   20880105.1054
    440455.66244    343211.62444  20752563.7304   20752563.6314
 94  4 14  3 54  0.0000000  0  6G 5G17G24G23G 6G20
 -12665339.95444  -9869089.61844  22315666.4224   22315666.2264
 -12448860.52844  -9700401.85544  22277792.6384   22277792.5704
  -6933982.74344  -5403063.32444  23936324.0754   23936324.7614
        -0.35954         0.59354  25039409.0994   25039413.7074
 -22114671.67244 -17232198.85644  20870626.7694   20870625.5774
    484785.56444    377754.38744  20760999.3244   20760999.1394
 94  4 14  3 54 30.0000000  0  6G 5G17G24G23G 6G20
 -12567822.18644  -9793101.74544  22334223.9194   22334223.4024
 -12513754.49244  -9750968.54244  22265443.6294   22265444.0674
  -6854471.12744  -5341106.21544  23951455.0504   23951454.1984
   -108060.70044    -84202.15944  25018844.6054   25018848.3474
 -22164247.43544 -17270829.30544  20861193.1664   20861191.6304
    529679.15944    412736.40244  20769542.4344   20769541.9254
 94  4 14  3 55  0.0000000  0  6G 5G17G24G23G 6G20
 -12470032.66644  -9716902.12544  22352832.3754   22352832.1174
 -12578393.49144  -9801336.54544  22253143.3734   22253143.8874
  -6774986.46744  -5279170.12744  23966580.7934   23966579.9484
   -216107.76244   -168394.65944  24998284.8564   24998283.4494
 -22213580.08844 -17309270.31844  20851805.6374   20851804.0844
    575129.29344    448152.08544  20778191.2954   20778191.0264
 94  4 14  3 55 30.0000000  0  6G 5G17G24G23G 6G20
 -12371972.78044  -9640491.83744  22371492.7524   22371492.4944
 -12642779.74944  -9851507.60244  22240890.8244   22240891.1994
  -6695533.67544  -5217258.86444  23981699.4544   23981697.9754
   -324154.34444   -252586.71544  24977725.9144   24977726.5974
 -22262687.44644 -17347535.77844  20842460.0474   20842459.1724
    621122.40044    483990.86244  20786943.2954   20786942.9544
 94  4 14  3 56  0.0000000  0  5G 5G17G24G 6G20
 -12273618.87144  -9563852.42344  22390208.9434   22390209.1064
 -12706896.17544  -9901468.41744  22228690.0264   22228689.8744
  -6616098.21844  -5155361.10744  23996815.0844   23996815.3364
 -22311564.85544 -17385622.06644  20833158.3804   20833157.9724
    667670.02144    520261.72744  20795801.2794   20795800.9484
 94  4 14  3 56 30.0000000  0  5G 5G17G24G 6G20
 -12174990.67944  -9486999.30744  22408977.4624   22408976.9704
 -12770743.89744  -9951219.85744  22216540.0774   22216540.5084
  -6536676.15444  -5093473.78544  24011929.3974   24011930.3864
 -22360232.93644 -17423545.23444  20823897.4374   20823896.8034
    714758.78644    556954.25644  20804762.1074   20804761.7794
 94  4 14  3 57  0.0000000  0  5G 5G17G24G 6G20
 -12076083.61444  -9409928.86444  22427798.7734   22427798.6004
 -12834306.16644 -10000748.86444  22204444.2954   22204444.4674
  -6457232.02244  -5031569.27544  24027047.0824   24027046.8504
 -22408678.53544 -17461295.03844  20814678.9514   20814677.7784
    762410.11844    594085.15044  20813829.6524   20813829.3324
 94  4 14  3 57 30.0000000  0  5G 5G17G24G 6G20
 -11976940.01744  -9332674.12844  22446665.1374   22446664.6644
 -12897623.35544 -10050086.89244  22192395.5814   22192395.5024
  -6377797.65644  -4969672.40144  24042163.2164   24042162.7584
 -22456928.07744 -17498892.07444  20805497.7574   20805496.2804
    810600.08744    631635.75644  20822999.9624   20822999.6864
 94  4 14  3 58  0.0000000  0  5G17G 5G24G 6G20
 -12960702.97844 -10099239.80844  22180392.1794   22180392.6314
 -11877582.63244  -9255252.80144  22465572.1274   22465572.2214
  -6298380.13744  -4907788.60144  24057277.3504   24057276.7844
 -22504965.77244 -17536324.03444  20796356.4224   20796354.9994
    859323.90344    669602.35444  20832271.7474   20832271.5514
 94  4 14  3 58 30.0000000  0  5G17G 5G24G 6G20
 -13023548.59644 -10148210.37444  22168432.8554   22168433.5164
 -11778019.32544  -9177671.01144  22484518.5274   22484517.7854
  -6218981.04944  -4845919.19444  24072385.1514   24072385.0844
 -22552772.23044 -17573575.80844  20787258.9244   20787257.6004
    908579.16644    707983.07444  20841644.7534   20841644.3124
 94  4 14  3 59  0.0000000  0  5G17G 5G24G 6G20
 -13086143.23344 -10196985.36644  22156521.0744   22156521.5554
 -11678237.77944  -9099919.16444  22503506.4904   22503505.5754
  -6139614.17044  -4784074.86544  24087487.7354   24087488.7294
 -22600339.87944 -17610641.49744  20778206.7404   20778205.8184
    958370.87844    746781.79644  20851119.8744   20851119.4574
 94  4 14  3 59 30.0000000  0  5G17G 5G24G 6G20
 -13148465.22844 -10245547.91744  22144661.9384   22144662.3154
 -11578203.40544  -9021970.31344  22522542.3644   22522541.9394
  -6060273.01044  -4722250.60744  24102585.8524   24102585.5064
 -22647641.02544 -17647499.52744  20769205.6674   20769204.8374
   1008708.39044    786005.81944  20860698.8294   20860698.4544
 94  4 14  4  0  0.0000000  0  5G17G 5G24G 6G20
 -13210514.03644 -10293897.59844  22132854.5274   22132854.6994
 -11477915.33744  -8943823.76644  22541626.2044   22541625.5904
  -5980954.38744  -4660443.89244  24117679.7434   24117678.5774
 -22694687.08744 -17684158.78844  20760253.2524   20760252.4674
   1059574.18844    825641.49644  20870378.0144   20870377.5824
 94  4 14  4  0 30.0000000  0  5G17G 5G24G 6G20
 -13272290.12744 -10342034.77244  22121098.7174   22121098.9694
 -11377355.24344  -8865465.25044  22560762.0174   22560762.2844
  -5901658.83544  -4598655.16944  24132768.8474   24132769.6154
 -22741497.70944 -17720634.58644  20751345.7884   20751344.6994
   1110966.14844    865687.16844  20880157.5764   20880157.3654
 94  4 14  4  1  0.0000000  0  5G17G 5G24G 6G20
 -13333810.49144 -10389972.69044  22109391.6384   22109391.8794
 -11276523.53244  -8786895.09644  22579949.2044   22579949.5944
  -5822387.62844  -4536885.40544  24147854.8924   24147855.6664
 -22788092.81244 -17756942.45044  20742478.7384   20742477.2604
   1162874.83444    906135.48044  20890035.7454   20890035.3404
 94  4 14  4  1 30.0000000  0  5G17G 5G24G 6G20
 -13395113.78244 -10437741.42244  22097725.8754   22097726.4414
 -11175450.45044  -8708136.85544  22599182.7294   22599183.3074
  -5743135.21544  -4475130.29044  24162935.4104   24162934.8344
 -22834474.11244 -17793083.70944  20733652.8364   20733651.5634
   1215285.97044    946975.31344  20900009.2334   20900008.8784
 94  4 14  4  2  0.0000000  0  5G17G 5G24G 6G20
 -13456212.55644 -10485350.83144  22086099.5224   22086100.1754
 -11074155.04644  -8629205.38244  22618458.6294   22618459.1714
  -5663899.42244  -4413388.15444  24178013.3664   24178012.6484
 -22880646.97844 -17829062.55944  20724866.1764   20724865.1304
   1268201.50544    988208.18344  20910078.6954   20910078.3274
 94  4 14  4  2 30.0000000  0  5G17G 5G24G 6G20
 -13517106.13144 -10532800.32844  22074511.5554   22074511.3284
 -10972653.68544  -8550113.43644  22637774.2694   22637774.0934
  -5584691.29844  -4351667.52244  24193086.4674   24193085.1224
 -22926601.97544 -17864871.63844  20716121.3014   20716120.4454
   1321625.33344   1029837.12644  20920244.7174   20920244.4084
 94  4 14  4  3  0.0000000  0  5G17G 5G24G 6G20
 -13577762.53644 -10580065.02944  22062968.7564   22062968.7964
 -10870947.95044  -8470862.22344  22657128.3264   22657128.2664
  -5505487.67844  -4289950.43644  24208158.1974   24208156.3174
 -22972306.57244 -17900485.60344  20707424.2584   20707423.3454
   1375577.88744   1071878.06444  20930511.6424   20930511.3174
 94  4 14  4  3 30.0000000  0  5G17G 5G24G 6G20
 -13638152.66344 -10627122.20644  22051477.2494   22051477.4204
 -10769032.22644  -8391447.38244  22676522.4364   22676521.1294
  -5426290.35344  -4228238.26744  24223228.1554   24223228.4884
 -23017741.37044 -17935889.33544  20698778.2064   20698777.0334
   1430074.17344   1114342.69444  20940881.9834   20940881.6044
 94  4 14  4  4  0.0000000  0  6G17G 5G24G23G 6G20
 -13698265.43544 -10673963.28144  22040038.2864   22040038.5954
 -10666911.49144  -8311872.79644  22695955.1364   22695955.4564
  -5347128.05244  -4166553.37544  24238293.1834   24238294.9324
         0.07354         0.88754  24629063.5304   24629068.2514
 -23062925.89644 -17971098.05044  20690179.7434   20690178.6374
   1485103.49844   1157222.67144  20951353.7324   20951353.3704
 94  4 14  4  4 30.0000000  0  5G17G 5G24G 6G20
 -13758080.13344 -10720572.08444  22028655.5114   22028654.9524
 -10564563.54144  -8232121.16044  22715430.8854   22715430.9884
  -5267988.90744  -4104886.53144  24253353.6534   24253353.5824
 -23107836.97144 -18006093.68144  20681633.1864   20681631.9694
   1540681.42544   1200530.12944  20961929.8554   20961929.5614
 94  4 14  4  5  0.0000000  0  5G17G 5G24G 6G20
 -13817645.89844 -10766986.93644  22017320.4594   22017320.2164
 -10462017.84244  -8152215.42544  22734944.9774   22734944.4404
  -5188915.23144  -4043270.69044  24268400.9964   24268399.3314
 -23152520.21544 -18040911.79144  20673130.5294   20673129.2934
   1596761.09344   1244228.56344  20972601.5124   20972601.2494
 94  4 14  4  5 30.0000000  0  6G20G17G 5G24G23G 6
   1653372.48644   1288341.32444  20983374.1564   20983373.9684
 -13876930.67044 -10813182.83744  22006039.0744   22006039.5544
 -10359242.16344  -8072130.48744  22754502.7784   22754502.6104
  -5109874.51244  -3981680.53444  24283441.0664   24283442.1694
        -0.27754        -0.06654  24567780.9044   24567781.0054
 -23196937.82844 -18075522.91144  20664678.2854   20664677.2474
 94  4 14  4  6  0.0000000  0  6G20G17G 5G23G24G 6
   1710513.73144   1332866.94944  20994247.8984   20994247.7524
 -13935932.64244 -10859158.35344  21994811.5564   21994811.9414
 -10256239.32544  -7991868.54244  22774103.4924   22774103.0294
   -107136.93144    -83482.99044  24547393.2744   24547392.4104
  -5030853.14044  -3920105.46444  24298477.9214   24298478.5104
 -23241083.27044 -18109921.94844  20656277.6524   20656276.6554
 94  4 14  4  6 30.0000000  0  6G20G17G 5G23G24G 6
   1768167.34544   1377791.82544  21005219.1164   21005219.0064
 -13994664.47644 -10904923.38444  21983635.0374   21983635.1874
 -10153019.08844  -7911437.20644  22793746.2294   22793745.4854
   -214183.52544   -166895.79844  24527022.6954   24527020.5144
  -4951847.72244  -3858542.83244  24313512.3604   24313511.7314
 -23284959.41344 -18144111.14344  20647927.9864   20647926.9524
 94  4 14  4  7  0.0000000  0  6G20G17G 5G23G24G 6
   1826310.38244   1423098.07744  21016283.1574   21016283.1304
 -14053142.19244 -10950490.41344  21972507.0194   21972506.9544
 -10049603.56544  -7830853.69144  22813425.6874   22813424.8614
   -321164.90944   -250257.83744  24506665.6324   24506662.5974
  -4872865.12544  -3796997.99944  24328542.0804   24328542.5304
 -23328578.55644 -18178100.08044  20639627.7244   20639626.5144
 94  4 14  4  7 30.0000000  0  6G20G17G 5G23G24G 6
   1884923.33944   1468770.50444  21027436.8254   21027436.6184
 -14111388.84644 -10995877.38644  21961423.3974   21961423.4824
  -9946015.82944  -7750135.98344  22833137.6594   22833136.8754
   -428103.76544   -333586.65644  24486315.1474   24486315.5114
  -4793922.09844  -3735483.96244  24343565.2424   24343563.5484
 -23371951.83944 -18211897.43444  20631374.1214   20631372.7274
 94  4 14  4  8  0.0000000  0  6G20G17G 5G23G24G 6
   1944022.78344   1514821.99444  21038683.2974   21038683.1934
 -14169400.27644 -11041081.07544  21950383.8554   21950383.9784
  -9842226.20544  -7669260.96744  22852887.8354   22852886.9134
   -534991.17344   -416875.44344  24465975.1454   24465975.6914
  -4715000.16044  -3673986.36644  24358583.3164   24358583.8664
 -23415069.79844 -18245495.83844  20623168.9334   20623167.8674
 94  4 14  4  8 30.0000000  0  6G20G17G 5G23G24G 6
   2003609.64844   1561253.30444  21050022.3834   21050022.0924
 -14227184.86844 -11086107.99944  21939387.6074   21939387.3864
  -9738234.63744  -7588228.59044  22872676.7684   22872676.3814
   -641834.17344   -500129.63044  24445643.1234   24445643.6614
  -4636095.97644  -3612502.62644  24373598.0084   24373598.1724
 -23457928.50844 -18278892.22844  20615013.0794   20615012.2844
 94  4 14  4  9  0.0000000  0  6G20G17G 5G23G24G 6
   2063679.76744   1608061.18144  21061453.2554   21061453.0284
 -14284749.53744 -11130963.57544  21928433.4994   21928433.4174
  -9634050.78544  -7507046.38444  22892502.5484   22892501.0564
   -748636.35444   -583351.99044  24425319.2064   24425321.5394
  -4557219.38644  -3551040.36544  24388608.1294   24388608.0744
 -23500530.75444 -18312088.77544  20606906.3604   20606905.2664
 94  4 14  4  9 30.0000000  0  6G20G17G 5G23G24G 6
   2124230.45644   1655243.52544  21072975.5034   21072975.3234
 -14342086.59744 -11175641.77844  21917522.5634   21917523.2204
  -9529683.34944  -7425721.11444  22912362.8894   22912362.0654
   -855390.14344   -666536.66844  24405004.9884   24405005.7414
  -4478383.29144  -3489609.68744  24403609.8764   24403608.9794
 -23542886.39944 -18345093.16544  20598846.0294   20598844.8894
 94  4 14  4 10  0.0000000  0  6G20G17G 5G23G24G 6
   2185289.57944   1702822.03744  21084594.6924   21084594.6614
 -14399148.77944 -11220105.80244  21906663.8784   21906664.1044
  -9425110.44244  -7344235.74144  22932262.2184   22932261.9974
   -962052.46044   -749650.01444  24384707.4414   24384704.7234
  -4399554.68344  -3428184.83744  24418611.0174   24418610.8984
 -23584960.93544 -18377878.51144  20590839.6984   20590838.4174
 94  4 14  4 10 30.0000000  0  6G20G17G 5G23G24G 6
   2246845.55844   1750787.71244  21096308.5294   21096308.3394
 -14455935.40144 -11264355.09444  21895857.9294   21895857.9934
  -9320356.26544  -7262609.12444  22952196.0114   22952195.5384
  -1068615.64544   -832686.16144  24364429.0534   24364431.0954
  -4320747.41344  -3366776.58544  24433606.8194   24433606.6444
 -23626753.45144 -18410444.10344  20582886.5454   20582885.5574
 94  4 14  4 11  0.0000000  0  6G20G17G 5G23G24G 6
   2308874.31544   1799121.79644  21108112.3574   21108112.1034
 -14512462.93944 -11308402.51244  21885100.8934   21885101.0364
  -9215435.29144  -7180852.54144  22972161.5184   22972161.3824
  -1175094.14544   -915656.33244  24344166.1374   24344166.5624
  -4242001.72944  -3305416.37344  24448591.1054   24448593.3754
 -23668290.08244 -18442810.30344  20574982.6594   20574981.7654
 94  4 14  4 11 30.0000000  0  6G20G17G 5G23G24G 6
   2371389.76644   1847835.12044  21120008.5574   21120008.3934
 -14568728.61544 -11352245.85844  21874394.0094   21874394.8564
  -9110337.43244  -7098958.09844  22992161.1244   22992159.2194
  -1281463.19444   -998541.19744  24323924.6204   24323923.9764
  -4163310.93344  -3244098.90344  24463566.8854   24463568.8294
 -23709557.93244 -18474967.06544  20567129.7914   20567128.7384
 94  4 14  4 12  0.0000000  0  6G20G17G 5G23G24G 6
   2434389.89844   1896926.12144  21131996.8974   21131997.0744
 -14624747.38944 -11395896.80944  21863734.0824   21863734.1634
  -9005060.41244  -7016924.06844  23012195.2634   23012192.8564
  -1387720.67944  -1081339.09344  24303705.5234   24303712.1854
  -4084670.30044  -3182820.45544  24478531.4004   24478532.6974
 -23750553.52744 -18506911.67644  20559328.3334   20559327.5274
 94  4 14  4 12 30.0000000  0  6G20G17G 5G23G24G 6
   2497881.13844   1946399.78944  21144079.0714   21144079.4554
 -14680527.59644 -11439361.86944  21853119.0624   21853119.7644
  -8899602.42244  -6934749.02044  23032262.8164   23032261.5874
  -1493871.18244  -1164053.71344  24283506.6564   24283508.1444
  -4006079.21644  -3121580.73544  24493486.1364   24493492.6474
 -23791274.49044 -18538642.29044  20551579.3714   20551578.5044
 94  4 14  4 13  0.0000000  0  6G20G17G 5G23G24G 6
   2561863.32044   1996256.01744  21156254.5314   21156254.0484
 -14736080.48344 -11482649.80744  21842547.9764   21842548.4624
  -8793968.40344  -6852436.76244  23052364.3294   23052363.8444
  -1599928.21344  -1246695.54544  24263323.1474   24263321.0244
  -3927526.89444  -3060371.13144  24508434.4024   24508432.3064
 -23831710.50844 -18570150.86944  20543884.7744   20543883.9424
 94  4 14  4 13 30.0000000  0  6G20G17G 5G23G24G 6
   2626329.06644   2046489.04044  21168521.9574   21168522.2434
 -14791407.84244 -11525761.99644  21832019.5944   21832019.6804
  -8688183.71844  -6770007.16944  23072493.9614   23072494.7194
  -1705893.13444  -1329265.49144  24243158.4284   24243156.6514
  -3848988.80044  -2999172.66044  24523380.2974   24523382.2634
 -23871853.81644 -18601431.36344  20536245.6944   20536244.8944
 94  4 14  4 14  0.0000000  0  6G20G17G 5G23G24G 6
   2691267.46044   2097090.37444  21180879.2394   21180878.9604
 -14846492.75944 -11568685.28244  21821537.0504   21821537.5884
  -8582263.42544  -6687471.91644  23092649.9274   23092648.9074
  -1811776.96644  -1411772.25444  24223009.4224   24223013.1214
  -3770469.38244  -2937988.73844  24538322.4194   24538323.6274
 -23911703.91544 -18632483.38344  20528662.3934   20528661.8064
 94  4 14  4 14 30.0000000  0  6G20G17G 5G23G24G 6
   2756700.31144   2148076.99544  21193330.7554   21193330.8164
 -14901303.89944 -11611395.23244  21811106.8214   21811107.0044
  -8476178.18144  -6604808.10844  23112837.8234   23112836.4314
  -1917559.74044  -1494200.35644  24202879.7644   24202879.5464
  -3691951.79944  -2876806.20344  24553262.6664   24553260.7494
 -23951226.48444 -18663280.18444  20521141.5394   20521140.5414
 94  4 14  4 15  0.0000000  0  6G20G17G 5G23G24G 6
   2822611.17444   2199436.08744  21205873.3074   21205873.7174
 -14955840.66244 -11653891.39344  21800728.8594   21800728.4854
  -8369929.76344  -6522017.14244  23133056.1934   23133054.4994
  -2023239.00644  -1576547.72344  24182769.8044   24182772.0234
  -3613436.06644  -2815625.18944  24568203.2534   24568205.3014
 -23990431.28644 -18693829.37244  20513681.2254   20513679.9754
 94  4 14  4 15 30.0000000  0  6G20G17G 5G23G24G 6
   2888987.23544   2251157.67844  21218504.2114   21218503.6074
 -15010097.32344 -11696169.27444  21790403.9814   21790404.5994
  -8263516.79744  -6439097.98844  23153306.1234   23153306.9024
  -2128809.24444  -1658810.13744  24162680.8754   24162683.5694
  -3534952.76044  -2754469.36344  24583139.2514   24583139.7434
 -24029351.79544 -18724157.03644  20506274.8864   20506273.8114
 94  4 14  4 16  0.0000000  0  6G20G17G 5G23G24G 6
   2955832.30644   2303244.72544  21231224.1944   21231224.2934
 -15064074.70444 -11738229.52944  21780132.5544   21780132.6824
  -8156921.22744  -6356036.50644  23173590.3614   23173590.5424
  -2234260.21644  -1740979.63444  24142613.7184   24142617.1224
  -3456521.29944  -2693353.94944  24598064.4764   24598065.5814
 -24067999.20244 -18754271.89844  20498920.4604   20498919.4414
 94  4 14  4 16 30.0000000  0  6G20G17G 5G23G24G 6
   3023133.02044   2355686.81944  21244031.3844   21244031.7224
 -15117806.31644 -11780098.29344  21769907.4494   21769908.0024
  -8050160.04744  -6272845.99344  23193906.3074   23193909.6084
  -2339592.07444  -1823056.29544  24122569.2224   24122566.0564
  -3378138.33144  -2632276.34944  24612980.6844   24612977.5694
 -24106390.02044 -18784186.81744  20491614.8014   20491614.3144
 94  4 14  4 17  0.0000000  0  6G20G17G 5G23G24G 6
   3090877.77044   2408474.91644  21256922.7494   21256922.6014
 -15171300.58944 -11821782.10944  21759728.2014   21759729.0914
  -7943260.64544  -6189547.73744  23214249.0364   23214247.0184
  -2444811.09044  -1905045.10244  24102546.5504   24102544.1314
  -3299814.74444  -2571245.01244  24627884.5534   24627885.3304
 -24144545.71444 -18813918.52944  20484354.1944   20484353.3344
 94  4 14  4 17 30.0000000  0  6G20G17G 5G23G24G 6
   3159077.82844   2461617.80744  21269900.8494   21269901.0304
 -15224548.63644 -11863274.06744  21749595.0784   21749595.1784
  -7836219.29844  -6106138.94644  23234618.5774   23234618.3954
  -2549915.28444  -1986944.42544  24082546.5674   24082549.5744
  -3221549.62244  -2510259.22544  24642778.0084   24642777.3664
 -24182451.40744 -18843455.42144  20477141.0054   20477139.7654
 94  4 14  4 18  0.0000000  0  6G20G17G 5G23G24G 6
   3227734.04044   2515116.13944  21282965.5944   21282965.7314
 -15277550.92044 -11904574.51644  21739509.1964   21739509.0054
  -7729043.76144  -6022625.52844  23255013.5794   23255010.7614
  -2654907.16144  -2068756.22144  24062567.3954   24062569.9484
  -3143317.75544  -2449299.34644  24657664.0934   24657664.1224
 -24220071.50344 -18872769.77844  20469982.0074   20469981.0124
 94  4 14  4 18 30.0000000  0  6G20G17G 5G23G24G 6
   3296849.06444   2568971.97744  21296117.8224   21296117.4764
 -15330299.28544 -11945677.10844  21729471.8824   21729471.3864
  -7621731.54244  -5939005.67244  23275434.0104   23275433.9844
  -2759785.76644  -2150479.70244  24042608.9814   24042609.1784
  -3065104.09844  -2388353.62944  24672547.9494   24672549.6204
 -24257378.95844 -18901840.51544  20462882.7294   20462881.8264
 94  4 14  4 19  0.0000000  0  6G20G17G 5G23G24G 6
   3366402.07944   2623169.11744  21309353.3584   21309353.5094
 -15382797.05244 -11986584.43944  21719481.6314   21719482.2364
  -7514281.20944  -5855278.18344  23295881.0014   23295879.2214
  -2864572.25444  -2232131.45644  24022668.3024   24022668.5094
  -2986947.95044  -2327452.81044  24687420.9254   24687419.3974
 -24294388.78444 -18930679.34044  20455840.1614   20455838.9524
 94  4 14  4 19 30.0000000  0  6G20G17G 5G23G24G 6
   3436399.98444   2677712.91244  21322673.3204   21322673.7554
 -15435041.96244 -12027294.74444  21709539.4394   21709538.9474
  -7406672.52044  -5771427.27544  23316358.3654   23316357.7144
  -2969245.15944  -2313694.67044  24002748.8934   24002749.2574
  -2908828.32344  -2266580.42944  24702286.7644   24702289.5274
 -24331079.26144 -18959269.31444  20448857.9444   20448856.6904
 94  4 14  4 20  0.0000000  0  6G20G17G 5G23G24G 6
   3506846.34244   2732606.16744  21336079.0444   21336079.2234
 -15487034.26344 -12067808.19144  21699646.1384   21699645.5304
  -7298901.78744  -5687450.08544  23336866.7754   23336868.2994
  -3073786.30644  -2395155.22044  23982856.3044   23982859.0434
  -2830734.89444  -2205728.44344  24717148.1304   24717150.1564
 -24367434.25144 -18987597.87644  20441939.5414   20441937.9404
 94  4 14  4 20 30.0000000  0  6G20G17G 5G23G24G 6
   3577726.08244   2787837.11544  21349566.9964   21349566.8554
 -15538785.14044 -12108133.53944  21689797.9124   21689798.1924
  -7190982.22344  -5603356.91844  23357403.6244   23357401.7534
  -3178201.84744  -2476517.90844  23962986.7264   23962990.5944
  -2752692.25244  -2144915.99544  24731998.4084   24731992.7874
 -24403470.71644 -19015678.23144  20435082.2744   20435081.1284
 94  4 14  4 21  0.0000000  0  6G20G17G 5G23G24G 6
   3649035.90444   2843403.18044  21363136.7684   21363136.7784
 -15590297.85544 -12148273.30044  21679995.1934   21679995.4874
  -7082925.80544  -5519157.11444  23377965.5574   23377965.8184
  -3282496.85144  -2557786.68444  23943139.7234   23943138.7904
  -2674693.22044  -2084137.53844  24746840.8684   24746839.0794
 -24439192.48344 -19043513.37144  20428284.8134   20428284.3184
 94  4 14  4 21 30.0000000  0  6G20G17G 5G23G24G 6
   3720772.29244   2899301.64944  21376787.8474   21376787.8984
 -15641586.20244 -12188238.22144  21670235.8794   21670236.2684
  -6974766.63444  -5434877.28044  23398547.9234   23398547.1814
  -3386672.35644  -2638962.27544  23923316.1054   23923317.1694
  -2596724.53044  -2023382.76044  24761677.4434   24761678.4774
 -24474600.27744 -19071103.86144  20421546.9784   20421545.6484
 94  4 14  4 22  0.0000000  0  6G20G17G 5G23G24G 6
   3792951.37944   2955545.07344  21390523.0284   21390523.0384
 -15692628.69344 -12228011.56244  21660522.4784   21660522.5424
  -6866514.56244  -5350525.05244  23419147.1774   23419148.2984
  -3490712.74144  -2720032.66044  23903518.2754   23903519.0704
  -2518774.95544  -1962642.83844  24776511.5414   24776511.0304
 -24509679.93944 -19098438.65744  20414871.5254   20414870.2564
 94  4 14  4 22 30.0000000  0  6G17G20G23G 5G24G 6
 -15743419.05644 -12267588.44844  21650857.1614   21650857.0374
   3865573.34444   3012133.59144  21404342.2254   21404342.2264
  -3594610.46244  -2800991.86544  23883747.4934   23883748.5604
  -6758175.78544  -5266105.26844  23439763.2194   23439763.9764
  -2440847.01444  -1901919.79944  24791340.8654   24791339.2554
 -24544451.08244 -19125533.05244  20408254.7604   20408253.6174
 94  4 14  4 23  0.0000000  0  6G17G20G 5G23G24G 6
 -15793965.56344 -12306975.31344  21641238.7114   21641239.0064
   3938640.35344   3069068.90444  21418246.5764   21418246.7504
  -6649755.22744  -5181621.72144  23460395.2604   23460394.8664
  -3698351.15944  -2881828.69344  23864005.5374   23864005.8694
  -2362943.17144  -1841215.52244  24806165.4444   24806167.3504
 -24578918.04044 -19152390.41944  20401695.9764   20401694.8814
 94  4 14  4 23 30.0000000  0  6G17G20G 5G23G24G 6
 -15844260.92144 -12346166.48244  21631667.7374   21631667.6284
   4012145.52844   3126345.63344  21432234.1564   21432234.1554
  -6541253.38744  -5097074.85744  23481042.2424   23481040.9914
  -3801918.39944  -2962530.38144  23844297.5274   23844299.1744
  -2285091.15344  -1780551.62044  24820980.2274   24820981.9004
 -24613081.55544 -19179011.33444  20395194.9274   20395193.7144
 94  4 14  4 24  0.0000000  0  6G17G20G 5G23G24G 6
 -15894276.03944 -12385139.29044  21622150.2164   21622149.9804
   4086106.34544   3183977.41744  21446308.8914   21446309.0944
  -6432627.28344  -5012431.13944  23501713.1804   23501712.1854
  -3905287.84944  -3043077.92644  23824627.2264   23824628.1434
  -2207276.20744  -1719916.60544  24835787.6174   24835787.1104
 -24646909.68144 -19205370.91044  20388757.6494   20388756.1954
 94  4 14  4 24 30.0000000  0  6G17G20G 5G23G24G 6
 -15944034.03544 -12423911.74244  21612681.4834   21612681.3294
   4160488.81944   3241937.76544  21460463.2734   21460463.4564
  -6323882.98844  -4927695.33644  23522406.5344   23522405.8464
  -4008497.07844  -3123500.65644  23804986.4224   23804986.0954
  -2129534.34544  -1659338.54844  24850582.2524   24850583.7664
 -24680417.29944 -19231480.73444  20382381.2744   20382379.9324
 94  4 14  4 25  0.0000000  0  6G17G20G23G 5G24G 6
 -15993539.42444 -12462487.34944  21603261.2474   21603261.1494
   4235280.15244   3300216.69944  21474695.5724   21474695.7004
  -4111564.88244  -3203813.17444  23785373.0784   23785372.9824
  -6215030.42544  -4842875.19844  23543120.9184   23543120.6714
  -2051869.38744  -1598820.41144  24865360.8134   24865360.1214
 -24713597.74644 -19257335.62044  20376067.3094   20376066.2894
 94  4 14  4 25 30.0000000  0  6G17G20G23G 5G24G 6
 -16042769.07144 -12500848.07944  21593892.7704   21593893.1254
   4310487.94344   3358820.15244  21489007.0804   21489007.0794
  -4214497.13444  -3284020.06144  23765786.1544   23765785.3454
  -6106062.61344  -4757965.24244  23563856.5004   23563856.2904
  -1974248.65844  -1538336.76044  24880132.4484   24880131.6184
 -24746441.62744 -19282928.25444  20369817.2824   20369816.3924
 94  4 14  4 26  0.0000000  0  6G17G20G23G 5G24G 6
 -16091743.10144 -12539009.62844  21584573.5604   21584573.5024
   4386103.92944   3417741.67644  21503396.0484   21503396.2994
  -4317311.85644  -3364135.39344  23746221.8914   23746221.6164
  -5996996.28844  -4672978.51744  23584611.0904   23584609.7814
  -1896651.65044  -1477871.56944  24894898.3744   24894898.6094
 -24778959.36944 -19308266.75644  20363629.4224   20363628.0824
 94  4 14  4 26 30.0000000  0  6G17G20G23G 5G24G 6
 -16140471.56744 -12576979.83644  21575300.7884   21575300.8894
   4462119.31144   3476974.41844  21517861.7904   21517861.8944
  -4420010.63544  -3444160.36444  23726677.9064   23726678.0914
  -5887849.49444  -4587929.10044  23605380.8874   23605380.1884
  -1819084.26844  -1417429.47744  24909658.2024   24909659.1604
 -24811165.80244 -19333362.67444  20357500.5594   20357499.1734
 94  4 14  4 27  0.0000000  0  6G17G20G23G 5G24G 6
 -16188958.32344 -12614761.71044  21566073.9624   21566073.9884
   4538534.06144   3536518.35944  21532403.2044   21532403.1654
  -4522586.13944  -3524089.26844  23707158.1394   23707159.1704
  -5778626.68544  -4502820.46544  23626165.5884   23626165.4694
  -1741531.79644  -1356999.00144  24924416.5824   24924417.0504
 -24843070.06144 -19358223.13144  20351429.4504   20351427.9104
 94  4 14  4 27 30.0000000  0  6G17G20G23G 5G24G 6
 -16237187.32144 -12652342.74144  21556896.6264   21556896.2914
   4615371.44244   3596391.62644  21547024.8384   21547024.8234
  -4625005.58944  -3603896.59544  23687668.7164   23687669.1814
  -5669292.57344  -4417625.09244  23646970.8884   23646970.6764
  -1663967.82644  -1296559.54844  24939175.4514   24939176.8034
 -24874635.99044 -19382819.95544  20345422.8264   20345421.8044
 94  4 14  4 28  0.0000000  0  6G17G20G23G 5G24G 6
 -16285198.13444 -12689753.75044  21547759.9234   21547759.9884
   4692594.77144   3656565.62644  21561719.5764   21561719.7984
  -4727286.69244  -3683596.11244  23668205.5084   23668204.7954
  -5559870.87944  -4332361.47144  23667792.9834   23667793.1384
  -1586452.48144  -1236157.79644  24953927.1834   24953927.4004
 -24905887.55044 -19407171.82144  20339475.8464   20339475.0834
 94  4 14  4 28 30.0000000  0  6G17G20G23G 5G24G 6
 -16332983.14644 -12726988.81044  21538666.7264   21538666.4814
   4770203.49444   3717039.93044  21576488.4164   21576488.1854
  -4829413.06544  -3763175.04844  23648770.8514   23648771.7674
  -5450354.27444  -4247023.89144  23688632.5734   23688633.2124
  -1509001.54544  -1175806.66844  24968665.5274   24968665.5214
 -24936819.15544 -19431274.36944  20333589.7674   20333588.1674
 94  4 14  4 29  0.0000000  0  6G17G20G23G 5G24G 6
 -16380536.57544 -12764043.41744  21529618.2134   21529618.2944
   4848202.28044   3777818.18544  21591330.8414   21591330.9244
  -4931372.13144  -3842623.62544  23629368.5714   23629368.4464
  -5340754.89544  -4161621.79644  23709488.4574   23709490.9444
  -1431612.72344  -1115503.66544  24983393.4934   24983391.2814
 -24967413.67744 -19455114.25244  20327767.6304   20327766.7894
 94  4 14  4 29 30.0000000  0  6G17G20G23G 5G24G 6
 -16427856.40744 -12800915.99444  21520613.1774   21520613.2144
   4926598.77944   3838906.34844  21606249.5384   21606249.4224
  -5033141.09644  -3921924.08244  23610003.2414   23610003.7764
  -5231091.14044  -4076169.54144  23730358.0434   23730358.6144
  -1354288.14644  -1055250.80744  24998106.1194   24998104.8794
 -24997651.89344 -19478676.50444  20322013.4674   20322012.4874
 94  4 14  4 30  0.0000000  0  6G17G20G23G 5G24G 6
 -16474932.49544 -12837598.63944  21511654.8254   21511654.4794
   5005391.85244   3900303.52744  21621243.1204   21621243.1874
  -5134713.50744  -4001071.38644  23590674.7744   23590675.1244
  -5121383.15844  -3990682.85344  23751235.2034   23751234.1344
  -1277022.96644   -995044.18144  25012808.9824   25012807.1424
 -25027543.26244 -19501968.47344  20316325.4044   20316323.9224
 94  4 14  4 30 30.0000000  0  6G17G20G23G 5G24G 6
 -16521735.07144 -12874068.12644  21502748.5164   21502748.4874
   5084608.44544   3962030.72844  21636317.6274   21636317.2994
  -5236061.94944  -4080044.15044  23571387.5794   23571388.1954
  -5011617.81144  -3905151.48644  23772122.9824   23772123.4074
  -1199769.45444   -934846.67144  25027509.8744   25027509.6734
 -25057057.44344 -19524966.53444  20310708.9264   20310707.6464
 94  4 14  4 31  0.0000000  0  7G17G20G23G 5G24G22G 6
 -16568285.73844 -12910341.33444  21493890.3274   21493890.3214
   5164229.54644   4024073.11744  21651468.9504   21651469.3584
  -5337202.55544  -4158854.99044  23552141.1094   23552142.0814
  -4901817.16144  -3819592.56544  23793016.7874   23793016.8684
  -1122527.16644   -874657.85744  25042208.5734   25042205.2864
        -0.24654         0.37154  25168878.6234   25168883.0594
 -25086206.40244 -19547680.00844  20305162.2594   20305161.2004
 94  4 14  4 31 30.0000000  0  7G17G20G23G 5G24G22G 6
 -16614899.83844 -12946663.98444  21485019.6344   21485019.5494
   5243924.53944   4086173.08344  21666634.5354   21666634.7334
  -5438470.52544  -4237765.04844  23532871.1294   23532871.6814
  -4792272.72944  -3734233.29644  23813862.9914   23813865.2614
  -1045617.79444   -814728.54044  25056845.4314   25056841.6794
    -86405.11444    -67328.09044  25152435.8114   25152437.2144
 -25115336.34444 -19570378.66144  20299618.9574   20299617.8114
 94  4 14  4 32  0.0000000  0  7G17G20G23G 5G24G22G 6
 -16661531.61044 -12983000.41044  21476146.0794   21476145.8234
   5323725.15444   4148355.35544  21681819.8744   21681819.9184
  -5539827.54744  -4316744.52944  23513583.3514   23513584.7014
  -4682913.09344  -3649018.00744  23834673.1354   23834673.3074
   -969002.46544   -755028.30744  25071423.7484   25071423.0324
   -172838.08744   -134678.41744  25135989.2594   25135990.6264
 -25144414.10744 -19593036.65044  20294085.7344   20294084.4204
 94  4 14  4 32 30.0000000  0  7G17G20G23G 5G24G22G 6
 -16707343.34044 -13018697.84144  21467428.6294   21467428.8884
   5404477.79444   4211279.46444  21697186.8414   21697186.8914
  -5640426.84544  -4395133.57244  23494439.8284   23494441.8524
  -4572873.94044  -3563273.28944  23855612.9204   23855611.2414
   -891847.97344   -694907.92344  25086106.2124   25086103.6574
   -258453.88244   -201391.98444  25119697.7344   25119697.8164
 -25172586.58244 -19614989.22344  20288724.5094   20288723.3024
 94  4 14  4 33  0.0000000  0  7G17G20G23G 5G24G22G 6
 -16752823.42844 -13054136.85044  21458773.7164   21458773.4994
   5485681.65544   4274555.17844  21712639.0804   21712639.4264
  -5740776.28044  -4473327.90044  23475343.7654   23475344.3744
  -4462641.86044  -3477378.19844  23876589.7204   23876588.0974
   -814666.81044   -634766.83244  25100792.3774   25100793.9564
   -343747.86144   -267854.78644  25103465.9264   25103463.9324
 -25200354.74544 -19636626.74644  20283440.3274   20283439.0514
 94  4 14  4 33 30.0000000  0  7G17G20G23G 5G24G22G 6
 -16798045.44344 -13089374.77544  21450168.5214   21450168.1104
   5567249.08044   4338114.19144  21728161.0274   21728161.0914
  -5840960.98844  -4551393.88444  23456279.7554   23456279.7864
  -4352306.84744  -3391402.94144  23897585.4164   23897584.5984
   -737561.41044   -574684.69044  25115466.1464   25115465.5494
   -428799.64244   -334128.91244  25087280.1074   25087278.4434
 -25227798.33744 -19658011.36244  20278218.2314   20278216.8224
 94  4 14  4 34  0.0000000  0  7G17G20G23G 5G24G22G 6
 -16843035.41944 -13124431.88944  21441607.0224   21441606.8084
   5649164.89944   4401944.67344  21743749.2844   21743749.3644
  -5940989.54944  -4629338.19744  23437245.1094   23437244.9504
  -4241921.01844  -3305388.03944  23918591.6504   23918591.7674
   -660540.19744   -514668.18344  25130122.6494   25130116.4274
   -513601.62544   -400208.32644  25071145.2904   25071145.0074
 -25254908.40844 -19679136.09144  20273059.0484   20273058.0914
 94  4 14  4 34 30.0000000  0  7G17G20G23G 5G24G22G 6
 -16887811.13044 -13159322.03944  21433086.4104   21433085.9464
   5731415.84244   4466036.30444  21759401.1654   21759401.2844
  -6040878.56544  -4707173.76444  23418236.6034   23418237.1914
  -4131526.90544  -3219366.65944  23939598.5384   23939596.8524
   -583611.26244   -454723.55944  25144760.8834   25144764.4184
   -598133.31644   -466077.15944  25055057.8484   25055059.5414
 -25281692.65144 -19700006.92944  20267962.3664   20267960.8794
 94  4 14  4 35  0.0000000  0  7G17G20G23G 5G24G22G 6
 -16932342.04444 -13194021.43544  21424612.4614   21424612.4204
   5814022.67044   4530405.24244  21775120.6164   21775120.4424
  -6140594.77744  -4784874.69544  23399261.1874   23399261.4294
  -4021115.16844  -3133331.59444  23960609.1924   23960609.2034
   -506732.52344   -394818.11544  25159390.6884   25159390.6644
   -682338.25344   -531691.32144  25039034.6134   25039031.7324
 -25308120.23844 -19720599.84444  20262933.3904   20262932.0234
 94  4 14  4 35 30.0000000  0  7G17G20G23G 5G24G22G 6
 -16976645.60544 -13228543.68044  21416181.5904   21416181.5154
   5896986.82144   4595052.60844  21790908.0054   21790907.8514
  -6240121.88644  -4862428.26544  23380322.1414   23380322.2584
  -3910700.45544  -3047294.14744  23981619.9364   23981619.3114
   -429886.39944   -334938.00344  25174013.7154   25174010.7474
   -766214.05544   -597049.09444  25023073.1764   25023074.1824
 -25334182.43644 -19740908.05644  20257973.5154   20257972.8394
 94  4 14  4 36  0.0000000  0  7G17G20G23G 5G24G22G 6
 -17020747.78844 -13262909.00544  21407789.2404   21407789.0594
   5980292.78544   4659966.32444  21806760.6644   21806760.9674
  -6339475.00844  -4939846.26344  23361415.5564   23361416.0794
  -3800300.18144  -2961268.03844  24002628.9804   24002630.0834
   -353081.88644   -275090.40144  25188630.4544   25188632.2714
   -849785.75144   -662169.91344  25007169.9724   25007172.3364
 -25359899.31544 -19760947.18044  20253080.4714   20253078.7344
 94  4 14  4 36 30.0000000  0  7G17G20G23G 5G24G22G 6
 -17064648.28944 -13297117.17644  21399435.3844   21399435.2634
   6063941.09844   4725146.81044  21822678.5844   21822678.6694
  -6438645.07344  -5017121.62344  23342543.6554   23342544.4574
  -3689897.61644  -2875240.10144  24023637.5534   24023639.0004
   -276332.48844   -215285.65944  25203235.7324   25203228.6224
   -933066.98444   -727064.29444  24991321.6614   24991324.4564
 -25385276.41644 -19780721.53544  20248250.9644   20248249.4724
 94  4 14  4 37  0.0000000  0  7G17G20G23G 5G22G24G 6
 -17108331.18044 -13331155.77344  21391122.7684   21391122.3554
   6147935.26144   4790596.77544  21838662.0544   21838661.9554
  -6537622.90944  -5094247.19644  23323708.9934   23323708.7474
  -3579475.87144  -2789197.23744  24044649.8654   24044651.3984
  -1016069.58744   -791741.63444  24975526.2604   24975525.4414
   -199629.19244   -155516.92044  25217830.7794   25217833.7474
 -25410301.94144 -19800221.94944  20243488.7354   20243487.8004
 94  4 14  4 37 30.0000000  0  7G17G20G23G 5G22G24G 6
 -17151780.48544 -13365012.36344  21382854.6034   21382854.3574
   6232279.62644   4856319.64044  21854712.4044   21854712.5664
  -6636405.93644  -5171220.96544  23304911.8394   23304911.3094
  -3469022.00644  -2703129.29344  24065668.7644   24065668.0014
  -1098812.21344   -856216.36844  24959780.6924   24959779.0414
   -122984.88644    -95794.16344  25232416.2134   25232418.6424
 -25434967.83344 -19819442.12344  20238795.2064   20238794.0384
 94  4 14  4 38  0.0000000  0  6G17G20G23G 5G22G 6
 -17194976.56544 -13398671.63144  21374634.7654   21374634.4074
   6316979.48844   4922319.50944  21870830.1854   21870830.7074
  -6734984.18244  -5248035.16044  23286152.7814   23286153.2424
  -3358507.45844  -2617014.03444  24086699.1194   24086698.8614
  -1181279.40644   -920476.45944  24944088.5284   24944082.4624
 -25459257.25144 -19838368.93544  20234172.6794   20234171.3234
 94  4 14  4 38 30.0000000  0  6G17G20G23G 5G22G 6
 -17237932.28844 -13432143.61344  21366460.3774   21366461.2094
   6402011.27944   4988578.03044  21887011.1184   21887011.5844
  -6833376.44444  -5324704.42344  23267430.0024   23267428.8134
  -3247946.43144  -2530862.67744  24107737.9284   24107743.7804
  -1263472.43044   -984523.03944  24928447.2724   24928454.5644
 -25483174.16844 -19857005.49144  20229621.6814   20229620.6334
 94  4 14  4 39  0.0000000  0  6G17G20G23G 5G22G 6
 -17280605.86144 -13465395.74244  21358340.0564   21358340.0194
   6487402.91844   5055116.94644  21903260.7654   21903261.1014
  -6931551.83944  -5401204.70644  23248748.1164   23248749.7334
  -3137315.74644  -2444656.95044  24128790.3434   24128790.3844
  -1345347.76344  -1048321.85844  24912866.5654   24912867.3454
 -25506676.00344 -19875318.61444  20225149.3584   20225148.4804
 94  4 14  4 39 30.0000000  0  6G17G20G23G 5G22G 6
 -17322994.95444 -13498426.19944  21350273.5694   21350273.8514
   6573159.97344   5121940.61244  21919579.5214   21919579.8724
  -7029497.16344  -5477525.72144  23230108.8374   23230108.2924
  -3026617.55844  -2358398.62544  24149855.5944   24149850.6934
  -1426895.49044  -1111865.51044  24897348.7034   24897340.5104
 -25529759.96244 -19893306.11244  20220756.6324   20220755.3204
 94  4 14  4 40  0.0000000  0  6G17G20G23G 5G22G 6
 -17365164.50544 -13531285.58044  21342249.0764   21342249.2154
   6659226.13244   5189005.11944  21935957.6294   21935958.5354
  -7127257.12544  -5553702.29244  23211505.5454   23211503.9114
  -2915927.02244  -2272146.37644  24170918.8604   24170919.7634
  -1508143.58444  -1175175.84044  24881887.9804   24881881.5124
 -25552484.14444 -19911013.26744  20216432.0354   20216430.8924
 94  4 14  4 40 30.0000000  0  6G17G20G23G 5G22G 6
 -17407104.27744 -13563965.91144  21334268.0734   21334268.1544
   6745607.77244   5256315.47444  21952395.3474   21952395.1064
  -7224818.91844  -5629724.44944  23192939.8334   23192940.7714
  -2805261.26844  -2185913.26644  24191978.2304   24191982.5244
  -1589071.25444  -1238236.25944  24866487.5994   24866487.3164
 -25574845.25344 -19928437.51044  20212177.3884   20212176.0894
 94  4 14  4 41  0.0000000  0  6G17G20G23G 5G22G 6
 -17448780.03044 -13596440.50244  21326337.5794   21326337.4174
   6832333.58644   5323894.00944  21968898.8734   21968900.0304
  -7322146.84644  -5705564.37844  23174419.1424   23174420.0624
  -2694594.36244  -2099679.37344  24213037.9014   24213040.6534
  -1669657.39844  -1301030.63444  24851152.2374   24851152.9574
 -25596826.11944 -19945565.45544  20207994.3904   20207993.0504
 94  4 14  4 41 30.0000000  0  6G17G20G23G 5G22G 6
 -17490199.71444 -13628715.56944  21318455.4384   21318455.7944
   6919400.25244   5391738.14144  21985467.1094   21985468.4314
  -7419246.44344  -5781226.39344  23155941.5194   23155941.6854
  -2583926.42644  -2013444.62044  24234097.8014   24234097.1554
  -1749893.37744  -1363552.08444  24835883.9944   24835886.9954
 -25618427.16044 -19962397.44044  20203883.4634   20203883.0764
 94  4 14  4 42  0.0000000  0  6G17G20G23G 5G22G 6
 -17531394.10444 -13660815.07544  21310616.2534   21310616.3994
   7006776.44744   5459823.46044  22002093.9604   22002094.8194
  -7516150.15344  -5856735.76744  23137501.5104   23137501.6464
  -2473279.67244  -1927226.39244  24255152.7904   24255149.3904
  -1829799.39944  -1425816.53544  24820679.4804   24820681.1194
 -25639664.66344 -19978946.14344  20199842.8544   20199841.2454
 94  4 14  4 42 30.0000000  0  7G17G20G23G26G 5G22G 6
 -17572315.56144 -13692701.90144  21302829.0664   21302828.9714
   7094499.33644   5528178.93844  22018787.3854   22018787.8224
  -7612814.70544  -5932058.76044  23119107.0784   23119108.6554
        -0.89454        -0.06354  23315054.2554   23315055.7674
  -2362592.48744  -1840976.67244  24276215.8124   24276222.1824
  -1909347.51944  -1487801.97844  24805541.6674   24805539.7964
 -25660488.14244 -19995172.22244  20195879.8504   20195878.7674
 94  4 14  4 43  0.0000000  0  7G17G20G23G26G 5G22G 6
 -17612998.82144 -13724403.13444  21295087.2344   21295087.0484
   7182541.05744   5596782.84944  22035541.2244   22035541.6264
  -7709254.16744  -6007206.37744  23100755.2494   23100756.7794
    -62338.92044    -48575.07244  23303191.3304   23303191.7714
  -2251885.43844  -1754711.45244  24297282.8974   24297286.3834
  -1988567.78344  -1549532.11244  24790466.6654   24790460.6474
 -25680911.91144 -20011086.84944  20191993.3384   20191992.3404
 94  4 14  4 43 30.0000000  0  7G17G20G23G26G 5G22G 6
 -17653495.09644 -13755958.65444  21287381.3954   21287381.4074
   7270860.50744   5665603.16944  22052347.9204   22052348.4684
  -7805495.02844  -6082199.24744  23082441.1974   23082443.1634
   -124415.57044    -96946.42644  23291378.5964   23291376.9314
  -2141205.19944  -1668467.11644  24318343.8774   24318344.2984
  -2067484.70844  -1611025.77044  24775450.0934   24775453.0674
 -25700974.10044 -20026719.72344  20188175.9764   20188174.7034
 94  4 14  4 44  0.0000000  0  7G17G20G23G26G 5G22G 6
 -17693785.42244 -13787353.70644  21279714.5684   21279714.6934
   7359474.06544   5734652.67344  22069210.5944   22069210.7774
  -7901498.82744  -6157007.38344  23064172.1174   23064173.2014
   -186233.59844   -145116.31044  23279615.3004   23279613.6024
  -2030532.58344  -1582228.70644  24339404.7964   24339407.5224
  -2146085.46544  -1672273.09544  24760491.3944   24760493.1074
 -25720669.57844 -20042066.84844  20184427.5864   20184426.5584
 94  4 14  4 44 30.0000000  0  7G17G20G23G26G 5G22G 6
 -17733871.78344 -13818589.81144  21272086.2604   21272085.6084
   7448388.76444   5803936.85444  22086130.4654   22086130.6584
  -7997243.22744  -6231613.38444  23045951.8794   23045950.9154
   -247790.57444   -193082.75144  23267901.1564   23267900.3984
  -1919868.39744  -1495996.92244  24360463.6574   24360467.8174
  -2224363.40244  -1733268.89644  24745595.8544   24745591.1064
 -25740007.49844 -20057135.35444  20180747.9284   20180746.6784
 94  4 14  4 45  0.0000000  0  7G17G20G23G26G 5G22G 6
 -17773755.22444 -13849667.80844  21264496.9194   21264496.8194
   7537606.84644   5873457.41344  22103108.0114   22103108.7844
  -8092735.47044  -6306022.90344  23027780.3594   23027780.6724
   -309089.04544   -240847.75844  23256236.8314   23256234.6374
  -1809219.66844  -1409777.11444  24381518.7834   24381521.1804
  -2302311.07644  -1794007.27044  24730763.4664   24730764.4074
 -25758988.00444 -20071925.35844  20177136.0704   20177134.9364
 94  4 14  4 45 30.0000000  0  7G17G20G23G26G 5G22G 6
 -17813412.02444 -13880569.20644  21256950.3724   21256950.7504
   7627136.28344   5943220.58644  22120144.9694   22120144.4834
  -8187981.11944  -6380240.28644  23009655.9614   23009655.2794
   -370132.73444   -288414.28344  23244620.1784   23244620.4404
  -1698568.37044  -1323555.28844  24402575.4444   24402574.5884
  -2379921.54044  -1854482.91844  24715993.9954   24715994.0684
 -25777604.57644 -20086431.77244  20173593.4004   20173592.0344
 94  4 14  4 46  0.0000000  0  7G17G20G23G26G 5G22G 6
 -17852830.80944 -13911285.12544  21249449.2164   21249449.5004
   7716970.70144   6013221.41344  22137239.8784   22137240.1264
  -8282993.87144  -6454276.18544  22991575.7524   22991575.6864
   -430900.92944   -335766.07044  23233056.8084   23233056.1004
  -1587914.51544  -1237331.55744  24423632.7974   24423639.1814
  -2457209.77944  -1914707.59244  24701286.6744   24701286.9474
 -25795839.67244 -20100640.93444  20170123.3134   20170122.0794
 94  4 14  4 46 30.0000000  0  7G17G20G23G26G 5G22G 6
 -17891984.29944 -13941794.32044  21241998.4904   21241998.3554
   7807122.60844   6083469.62444  22154395.0014   22154395.5764
  -8377770.75344  -6528128.29044  22973540.5884   22973541.9404
   -491350.98944   -382869.97644  23221553.2004   23221553.2144
  -1477247.44044  -1151097.50644  24444691.3254   24444689.7024
  -2534151.52644  -1974662.08244  24686644.8074   24686641.2174
 -25813659.26044 -20114526.32444  20166732.6984   20166731.3194
 94  4 14  4 47  0.0000000  0  7G17G20G23G26G 5G22G 6
 -17930851.23344 -13972080.22844  21234602.4354   21234602.7634
   7897585.20644   6153959.94244  22171609.6204   22171609.9884
  -8472327.35144  -6601808.72844  22955547.4034   22955547.3574
   -551477.28544   -429721.56844  23210111.5404   23210109.8374
  -1366568.80444  -1064854.39044  24465752.8574   24465755.3844
  -2610745.06844  -2034345.38444  24672068.5014   24672069.4984
 -25831045.70544 -20128074.20644  20163423.5594   20163422.6584
 94  4 14  4 47 30.0000000  0  7G17G20G23G26G 5G22G 6
 -17969449.32344 -14002156.64844  21227257.1314   21227257.7644
   7988336.86044   6224675.49744  22188879.0784   22188879.8214
  -8566667.90944  -6675320.83844  22937594.7864   22937593.5024
   -611279.99444   -476321.04844  23198731.4994   23198732.3734
  -1255901.50644   -978620.17244  24486812.4444   24486815.0944
  -2686999.78544  -2093764.58844  24657559.0114   24657555.6804
 -25848012.84044 -20141295.34544  20160195.0994   20160193.8544
 94  4 14  4 48  0.0000000  0  7G17G20G23G26G 5G22G 6
 -18007798.59744 -14032039.17744  21219959.5474   21219959.5034
   8079363.85144   6295605.59444  22206200.9184   22206201.5364
  -8660792.37044  -6748664.55844  22919682.9244   22919682.8854
   -670747.20044   -522659.07844  23187415.3044   23187415.6254
  -1145273.82244   -892416.77444  24507863.7354   24507862.9974
  -2762914.08544  -2152918.59344  24643112.2964   24643109.9214
 -25864586.75444 -20154210.07844  20157041.2064   20157040.2974
 94  4 14  4 48 30.0000000  0  7G17G20G23G26G 5G22G 6
 -18045912.39644 -14061738.22644  21212706.5774   21212706.3054
   8170666.11144   6366750.19644  22223574.9704   22223575.7424
  -8754691.84044  -6821832.93944  22901814.2464   22901815.2914
   -729880.06844   -568736.58344  23176162.4714   23176161.1364
  -1034688.26644   -806246.22644  24528907.6814   24528908.9804
  -2838474.88444  -2211797.11344  24628733.9764   24628731.7194
 -25880771.78644 -20166821.79044  20153960.9904   20153960.2424
 94  4 14  4 49  0.0000000  0  7G17G20G23G26G 5G22G 6
 -18083802.28544 -14091262.80044  21205496.4434   21205496.7254
   8262242.25744   6438108.22344  22241001.6254   22241002.6564
  -8848352.78644  -6894815.46044  22883991.5734   22883991.1684
   -788674.60844   -614550.50344  23164974.1434   23164975.0804
   -924148.19344   -720111.12144  24549943.1964   24549946.0154
  -2913685.01944  -2270402.39444  24614422.1414   24614422.7194
 -25896565.05244 -20179128.23044  20150956.1484   20150955.0814
 94  4 14  4 49 30.0000000  0  7G17G20G23G26G 5G22G 6
 -18121476.55144 -14120619.35344  21198327.2904   21198327.1814
   8354097.15144   6509683.44844  22258481.1454   22258481.3904
  -8941753.72844  -6967595.41044  22866218.2444   22866220.5084
   -847126.44144   -660097.31444  23153850.7624   23153848.2714
   -813648.33144   -634007.42144  24570969.9954   24570971.9244
  -2988537.71444  -2328729.12944  24600178.2414   24600177.7464
 -25911960.96144 -20191125.04244  20148026.1414   20148025.0564
 94  4 14  4 50  0.0000000  0  7G17G20G23G26G 5G22G 6
 -18158940.61444 -14149812.11744  21191198.2164   21191197.7924
   8446218.53944   6581466.32644  22276011.4324   22276012.2794
  -9034900.55444  -7040177.34144  22848492.5184   22848493.7904
   -905259.23244   -705395.60844  23142789.3334   23142789.0484
   -703196.06944   -547940.70144  24591988.2964   24591993.6884
  -3063051.42944  -2386791.71944  24585998.6774   24585997.8794
 -25926960.34644 -20202812.87244  20145172.1654   20145171.0484
 94  4 14  4 50 30.0000000  0  7G17G20G23G26G 5G22G 6
 -18196194.76944 -14178841.31844  21184108.7914   21184108.7554
   8538596.59044   6653449.22244  22293589.7314   22293591.1954
  -9127789.58444  -7112558.36144  22830816.0584   22830815.5844
   -963079.80144   -750450.56744  23131785.5854   23131785.1884
   -592795.36244   -461914.13644  24612997.8284   24612995.0574
  -3137235.01444  -2444597.05244  24571882.1314   24571882.4264
 -25941539.24244 -20214173.05044  20142397.7744   20142396.8554
 94  4 14  4 51  0.0000000  0  7G17G20G23G26G 5G22G 6
 -18233204.84844 -14207680.32744  21177065.9674   21177065.4994
   8631250.67644   6725647.19944  22311221.8604   22311222.6034
  -9220398.20544  -7184720.89844  22813193.8574   22813195.8724
  -1020571.29644   -795249.09544  23120846.1754   23120843.7924
   -482423.39044   -375910.10044  24634001.3594   24633997.0334
  -3211054.87944  -2502119.01844  24557834.0404   24557834.4354
 -25955680.66444 -20225192.33944  20139706.6374   20139705.6394
 94  4 14  4 51 30.0000000  0  7G17G20G23G26G 5G22G 6
 -18269979.15344 -14236335.61044  21170068.0274   21170068.4284
   8724169.33644   6798051.31044  22328903.2264   22328902.7754
  -9312743.61544  -7256678.34344  22795621.5824   22795623.0214
  -1077750.17744   -839803.99444  23109964.2184   23109963.1104
   -372088.55244   -289934.87144  24654996.2404   24654989.8964
  -3284510.11944  -2559356.87444  24543856.3734   24543858.2054
 -25969409.53844 -20235890.16444  20137094.1314   20137092.9474
 94  4 14  4 52  0.0000000  0  7G17G20G23G26G 5G22G 6
 -18306505.56644 -14264797.72844  21163117.1354   21163117.4554
   8817354.69744   6870663.28044  22346636.0144   22346634.7304
  -9404829.88244  -7328433.85544  22778098.2344   22778099.3934
  -1134602.35144   -884104.39344  23099146.4834   23099139.0514
   -261783.63344   -203983.05044  24675986.7584   24675984.5484
  -3357586.94744  -2616299.78444  24529949.6954   24529948.9984
 -25982724.64944 -20246265.57744  20134560.5844   20134559.3074
 94  4 14  4 52 30.0000000  0  7G17G20G23G26G 5G22G 6
 -18342787.08844 -14293069.03344  21156213.2434   21156212.5534
   8910797.57744   6943475.89444  22364417.8464   22364417.6854
  -9496669.20744  -7399996.94044  22760621.4694   22760622.0264
  -1191133.12944   -928154.27444  23088388.3324   23088391.2034
   -151525.85344   -118067.97544  24696968.1334   24696964.2644
  -3430272.89544  -2672938.19644  24516118.6134   24516121.3294
 -25995642.73944 -20256331.62244  20132102.1144   20132100.9534
 94  4 14  4 53  0.0000000  0  7G17G20G23G26G22G 5G 6
 -18378822.44544 -14321148.52644  21149355.8604   21149355.3614
   9004506.84044   7016496.08544  22382249.8174   22382249.2804
  -9588262.58844  -7471368.39644  22743191.1984   22743192.4164
  -1247348.30244   -971958.34144  23077691.5814   23077695.7054
  -3502560.13444  -2729265.80944  24502362.6324   24502360.1314
    -41298.31744    -32176.41444  24717943.5804   24717942.1574
 -26008167.13644 -20266090.89244  20129718.9554   20129717.5464
 94  4 14  4 53 30.0000000  0  7G17G20G23G26G22G 5G 6
 -18414617.97544 -14349041.13344  21142544.2424   21142544.7924
   9098477.58844   7089720.04144  22400132.0994   22400132.9014
  -9679595.20044  -7542536.64144  22725810.9774   22725811.0794
  -1303234.25744  -1015505.81144  23067056.7404   23067050.6764
  -3574459.69444  -2785291.50144  24488680.2074   24488682.1154
     68896.23344     53689.45144  24738912.6414   24738915.5604
 -26020286.20944 -20275534.32544  20127412.7524   20127411.3754
 94  4 14  4 54  0.0000000  0  7G17G20G23G26G22G 5G 6
 -18450170.19944 -14376744.14344  21135778.9874   21135778.7914
   9192702.23244   7163141.81744  22418062.3504   22418062.7344
  -9770664.24044  -7613499.51144  22708481.4404   22708480.1854
  -1358800.41444  -1058804.06244  23056483.0744   23056482.5064
  -3645985.69044  -2841026.01944  24475068.8124   24475067.7154
    179038.62444    139514.72244  24759872.5184   24759871.9554
 -26031975.79044 -20284643.09144  20125188.0214   20125187.0104
 94  4 14  4 54 30.0000000  0  7G17G23G26G20G 5G22G 6
 -18485511.28944 -14404282.65444  21129054.0594   21129053.5654
  -9861477.83344  -7684263.33144  22691200.3594   22691201.1044
  -1414065.18344  -1101867.50944  23045966.3784   23045962.4034
   9287159.49644   7236744.86944  22436037.1374   22436037.0604
    289099.84644    225276.63444  24780816.5734   24780816.5724
  -3717155.87944  -2896483.24744  24461525.6054   24461527.6504
 -26043252.78744 -20293430.36044  20123042.2294   20123040.9514
 94  4 14  4 55  0.0000000  0  7G17G23G26G20G22G 5G 6
 -18520625.64244 -14431644.48344  21122372.0944   21122371.5184
  -9952005.43344  -7754804.29744  22673973.1054   22673973.8044
  -1468990.94044  -1144666.75044  23035514.0604   23035510.8934
   9381870.07144   7310545.29244  22454059.7324   22454060.3414
  -3787956.26044  -2951652.41744  24448052.6254   24448055.6234
    399108.50244    310997.57644  24801750.2784   24801749.7774
 -26054093.49244 -20301877.66644  20120979.0124   20120978.2404
 94  4 14  4 55 30.0000000  0  7G17G23G26G20G22G 5G 6
 -18555507.67844 -14458825.28544  21115733.9664   21115733.8984
 -10042245.91744  -7825121.54144  22656800.9644   22656800.7884
  -1523565.47744  -1187192.37644  23025129.2454   23025129.4734
   9476822.87644   7384534.48044  22472128.3964   22472129.6994
  -3858391.21844  -3006536.78244  24434650.4344   24434650.9594
    509038.32244    396657.10244  24822669.1644   24822676.1014
 -26064505.70844 -20309991.08044  20118997.9694   20118996.4604
 94  4 14  4 56  0.0000000  0  7G17G23G26G20G22G 5G 6
 -18590147.52744 -14485817.36144  21109142.1434   21109142.0184
 -10132205.08144  -7895219.56944  22639682.3294   22639682.8594
  -1577775.27944  -1229433.70344  23014813.5774   23014808.8904
   9572022.97744   7458716.35744  22490244.9724   22490245.4494
  -3928449.16944  -3061127.31244  24421316.8644   24421316.4494
    618894.59544    482259.42544  24843574.2084   24843573.8004
 -26074489.11044 -20317770.35344  20117098.1954   20117097.3424
 94  4 14  4 56 30.0000000  0  7G17G23G26G20G22G 5G 6
 -18624541.78344 -14512618.07544  21102597.1784   21102597.1644
 -10221870.13944  -7965088.41644  22622619.9554   22622620.3124
  -1631591.71144  -1271368.66444  23004572.0514   23004565.9484
   9667473.31144   7533093.23244  22508407.9884   22508409.8444
  -3998112.47244  -3115410.36844  24408061.5064   24408066.0434
    728699.31244    567821.54344  24864469.6494   24864469.6654
 -26084050.45344 -20325220.75444  20115278.6344   20115277.5344
 94  4 14  4 57  0.0000000  0  7G17G23G26G20G22G 5G 6
 -18658685.85144 -14539223.83344  21096099.5854   21096099.3694
 -10311250.32944  -8034735.31044  22605611.3284   22605611.0644
  -1685019.01944  -1313000.24544  22994405.2414   22994403.0674
   9763159.45244   7607653.86744  22526616.8854   22526616.7314
  -4067390.79644  -3169393.46044  24394878.9914   24394876.3134
    838444.45644    653337.18444  24885353.9234   24885348.6074
 -26093188.92744 -20332341.64444  20113539.7184   20113538.3284
